<?xml version="1.0" encoding="UTF-8" standalone="no" ?>
<gpx xmlns="http://www.topografix.com/GPX/1/1" xmlns:xsi="http://www.w3.org/2001/XMLSchema-instance" xsi:schemaLocation="http://www.topografix.com/GPX/1/1 http://www.topografix.com/GPX/1/1/gpx.xsd" version="1.1" creator="VisuGPX - https://www.visugpx.com">
  <metadata>
    <name>RANDO V.C.NYONSAIS 181112</name>
    <desc><![CDATA[......................................]]></desc>
  </metadata>
  <trk>
    <name><![CDATA[RANDO V.C.NYONSAIS 181112_1]]></name>
    <trkseg>
      <trkpt lat="44.35897" lon="5.14596">
        <ele>274.4</ele>
        <time>2012-10-10T11:03:26Z</time>
      </trkpt>
      <trkpt lat="44.35899" lon="5.14598">
        <ele>273.8</ele>
        <time>2012-10-10T11:03:31Z</time>
      </trkpt>
      <trkpt lat="44.35898" lon="5.14599">
        <ele>273.9</ele>
        <time>2012-10-10T11:03:36Z</time>
      </trkpt>
      <trkpt lat="44.35898" lon="5.14609">
        <ele>273.4</ele>
        <time>2012-10-10T11:03:41Z</time>
      </trkpt>
      <trkpt lat="44.35897" lon="5.14639">
        <ele>273.2</ele>
        <time>2012-10-10T11:03:46Z</time>
      </trkpt>
      <trkpt lat="44.35899" lon="5.14674">
        <ele>279.4</ele>
        <time>2012-10-10T11:03:51Z</time>
      </trkpt>
      <trkpt lat="44.35899" lon="5.1471">
        <ele>282.9</ele>
        <time>2012-10-10T11:03:56Z</time>
      </trkpt>
      <trkpt lat="44.35903" lon="5.14749">
        <ele>282.2</ele>
        <time>2012-10-10T11:04:01Z</time>
      </trkpt>
      <trkpt lat="44.35923" lon="5.14789">
        <ele>276.7</ele>
        <time>2012-10-10T11:04:06Z</time>
      </trkpt>
      <trkpt lat="44.35911" lon="5.14824">
        <ele>277.6</ele>
        <time>2012-10-10T11:04:11Z</time>
      </trkpt>
      <trkpt lat="44.35902" lon="5.14861">
        <ele>278.4</ele>
        <time>2012-10-10T11:04:16Z</time>
      </trkpt>
      <trkpt lat="44.359" lon="5.14898">
        <ele>278.5</ele>
        <time>2012-10-10T11:04:21Z</time>
      </trkpt>
      <trkpt lat="44.35901" lon="5.14933">
        <ele>281.9</ele>
        <time>2012-10-10T11:04:26Z</time>
      </trkpt>
      <trkpt lat="44.35902" lon="5.14964">
        <ele>284.9</ele>
        <time>2012-10-10T11:04:31Z</time>
      </trkpt>
      <trkpt lat="44.35901" lon="5.14993">
        <ele>289.3</ele>
        <time>2012-10-10T11:04:36Z</time>
      </trkpt>
      <trkpt lat="44.35898" lon="5.15023">
        <ele>292.2</ele>
        <time>2012-10-10T11:04:41Z</time>
      </trkpt>
      <trkpt lat="44.35885" lon="5.15051">
        <ele>292</ele>
        <time>2012-10-10T11:04:46Z</time>
      </trkpt>
      <trkpt lat="44.3587" lon="5.15056">
        <ele>292.3</ele>
        <time>2012-10-10T11:04:51Z</time>
      </trkpt>
      <trkpt lat="44.3585" lon="5.15054">
        <ele>294.2</ele>
        <time>2012-10-10T11:04:56Z</time>
      </trkpt>
      <trkpt lat="44.35825" lon="5.15059">
        <ele>295.3</ele>
        <time>2012-10-10T11:05:01Z</time>
      </trkpt>
      <trkpt lat="44.35807" lon="5.15067">
        <ele>296.2</ele>
        <time>2012-10-10T11:05:06Z</time>
      </trkpt>
      <trkpt lat="44.35783" lon="5.15086">
        <ele>297.5</ele>
        <time>2012-10-10T11:05:11Z</time>
      </trkpt>
      <trkpt lat="44.35759" lon="5.15102">
        <ele>296.6</ele>
        <time>2012-10-10T11:05:16Z</time>
      </trkpt>
      <trkpt lat="44.3573" lon="5.15123">
        <ele>296.2</ele>
        <time>2012-10-10T11:05:21Z</time>
      </trkpt>
      <trkpt lat="44.35702" lon="5.15131">
        <ele>296.9</ele>
        <time>2012-10-10T11:05:26Z</time>
      </trkpt>
      <trkpt lat="44.35685" lon="5.15151">
        <ele>297.3</ele>
        <time>2012-10-10T11:05:31Z</time>
      </trkpt>
      <trkpt lat="44.35679" lon="5.15164">
        <ele>297.2</ele>
        <time>2012-10-10T11:05:36Z</time>
      </trkpt>
      <trkpt lat="44.35683" lon="5.15173">
        <ele>297.4</ele>
        <time>2012-10-10T11:05:41Z</time>
      </trkpt>
      <trkpt lat="44.3569" lon="5.1519">
        <ele>298.7</ele>
        <time>2012-10-10T11:05:46Z</time>
      </trkpt>
      <trkpt lat="44.35708" lon="5.15205">
        <ele>300.1</ele>
        <time>2012-10-10T11:05:51Z</time>
      </trkpt>
      <trkpt lat="44.35723" lon="5.15226">
        <ele>303.5</ele>
        <time>2012-10-10T11:05:56Z</time>
      </trkpt>
      <trkpt lat="44.35728" lon="5.15243">
        <ele>306.1</ele>
        <time>2012-10-10T11:06:01Z</time>
      </trkpt>
      <trkpt lat="44.35728" lon="5.15267">
        <ele>308.3</ele>
        <time>2012-10-10T11:06:06Z</time>
      </trkpt>
      <trkpt lat="44.35728" lon="5.15298">
        <ele>310.3</ele>
        <time>2012-10-10T11:06:11Z</time>
      </trkpt>
      <trkpt lat="44.35727" lon="5.15318">
        <ele>311.7</ele>
        <time>2012-10-10T11:06:16Z</time>
      </trkpt>
      <trkpt lat="44.35725" lon="5.15343">
        <ele>313.2</ele>
        <time>2012-10-10T11:06:21Z</time>
      </trkpt>
      <trkpt lat="44.35721" lon="5.15368">
        <ele>314.3</ele>
        <time>2012-10-10T11:06:26Z</time>
      </trkpt>
      <trkpt lat="44.35718" lon="5.15392">
        <ele>315.8</ele>
        <time>2012-10-10T11:06:31Z</time>
      </trkpt>
      <trkpt lat="44.35715" lon="5.15415">
        <ele>319</ele>
        <time>2012-10-10T11:06:36Z</time>
      </trkpt>
      <trkpt lat="44.3571" lon="5.15436">
        <ele>322.6</ele>
        <time>2012-10-10T11:06:41Z</time>
      </trkpt>
      <trkpt lat="44.35701" lon="5.15453">
        <ele>326.5</ele>
        <time>2012-10-10T11:06:46Z</time>
      </trkpt>
      <trkpt lat="44.35686" lon="5.15458">
        <ele>328</ele>
        <time>2012-10-10T11:06:51Z</time>
      </trkpt>
      <trkpt lat="44.35671" lon="5.15456">
        <ele>327.5</ele>
        <time>2012-10-10T11:06:56Z</time>
      </trkpt>
      <trkpt lat="44.35651" lon="5.15452">
        <ele>328.7</ele>
        <time>2012-10-10T11:07:01Z</time>
      </trkpt>
      <trkpt lat="44.35645" lon="5.15463">
        <ele>331.6</ele>
        <time>2012-10-10T11:07:06Z</time>
      </trkpt>
      <trkpt lat="44.35655" lon="5.15472">
        <ele>332.3</ele>
        <time>2012-10-10T11:07:11Z</time>
      </trkpt>
      <trkpt lat="44.35668" lon="5.15478">
        <ele>333.1</ele>
        <time>2012-10-10T11:07:16Z</time>
      </trkpt>
      <trkpt lat="44.35683" lon="5.15484">
        <ele>335.2</ele>
        <time>2012-10-10T11:07:21Z</time>
      </trkpt>
      <trkpt lat="44.35696" lon="5.15487">
        <ele>336.1</ele>
        <time>2012-10-10T11:07:26Z</time>
      </trkpt>
      <trkpt lat="44.3571" lon="5.15491">
        <ele>337.1</ele>
        <time>2012-10-10T11:07:31Z</time>
      </trkpt>
      <trkpt lat="44.35721" lon="5.15503">
        <ele>339.8</ele>
        <time>2012-10-10T11:07:36Z</time>
      </trkpt>
      <trkpt lat="44.35718" lon="5.15509">
        <ele>341.9</ele>
        <time>2012-10-10T11:07:41Z</time>
      </trkpt>
      <trkpt lat="44.35707" lon="5.15509">
        <ele>342.6</ele>
        <time>2012-10-10T11:07:46Z</time>
      </trkpt>
      <trkpt lat="44.35693" lon="5.15509">
        <ele>343.2</ele>
        <time>2012-10-10T11:07:51Z</time>
      </trkpt>
      <trkpt lat="44.35682" lon="5.15511">
        <ele>344.6</ele>
        <time>2012-10-10T11:07:56Z</time>
      </trkpt>
      <trkpt lat="44.35669" lon="5.15512">
        <ele>345.6</ele>
        <time>2012-10-10T11:08:01Z</time>
      </trkpt>
      <trkpt lat="44.35657" lon="5.15513">
        <ele>347.7</ele>
        <time>2012-10-10T11:08:06Z</time>
      </trkpt>
      <trkpt lat="44.35641" lon="5.15511">
        <ele>350.1</ele>
        <time>2012-10-10T11:08:11Z</time>
      </trkpt>
      <trkpt lat="44.35631" lon="5.15509">
        <ele>351.6</ele>
        <time>2012-10-10T11:08:16Z</time>
      </trkpt>
      <trkpt lat="44.35619" lon="5.15505">
        <ele>352.7</ele>
        <time>2012-10-10T11:08:21Z</time>
      </trkpt>
      <trkpt lat="44.35607" lon="5.15501">
        <ele>353.7</ele>
        <time>2012-10-10T11:08:26Z</time>
      </trkpt>
      <trkpt lat="44.35593" lon="5.15499">
        <ele>354.7</ele>
        <time>2012-10-10T11:08:31Z</time>
      </trkpt>
      <trkpt lat="44.35581" lon="5.15501">
        <ele>356</ele>
        <time>2012-10-10T11:08:36Z</time>
      </trkpt>
      <trkpt lat="44.35569" lon="5.15504">
        <ele>356.4</ele>
        <time>2012-10-10T11:08:41Z</time>
      </trkpt>
      <trkpt lat="44.35559" lon="5.15508">
        <ele>357.1</ele>
        <time>2012-10-10T11:08:46Z</time>
      </trkpt>
      <trkpt lat="44.35548" lon="5.15517">
        <ele>359.6</ele>
        <time>2012-10-10T11:08:51Z</time>
      </trkpt>
      <trkpt lat="44.35535" lon="5.15521">
        <ele>360.1</ele>
        <time>2012-10-10T11:08:56Z</time>
      </trkpt>
      <trkpt lat="44.3552" lon="5.15528">
        <ele>362.5</ele>
        <time>2012-10-10T11:09:01Z</time>
      </trkpt>
      <trkpt lat="44.35509" lon="5.15531">
        <ele>364.1</ele>
        <time>2012-10-10T11:09:06Z</time>
      </trkpt>
      <trkpt lat="44.35498" lon="5.15535">
        <ele>366</ele>
        <time>2012-10-10T11:09:11Z</time>
      </trkpt>
      <trkpt lat="44.35486" lon="5.15539">
        <ele>366.6</ele>
        <time>2012-10-10T11:09:16Z</time>
      </trkpt>
      <trkpt lat="44.35474" lon="5.15542">
        <ele>366.7</ele>
        <time>2012-10-10T11:09:21Z</time>
      </trkpt>
      <trkpt lat="44.35462" lon="5.15547">
        <ele>368.6</ele>
        <time>2012-10-10T11:09:26Z</time>
      </trkpt>
      <trkpt lat="44.35448" lon="5.15546">
        <ele>368.4</ele>
        <time>2012-10-10T11:09:31Z</time>
      </trkpt>
      <trkpt lat="44.35436" lon="5.15546">
        <ele>368.4</ele>
        <time>2012-10-10T11:09:36Z</time>
      </trkpt>
      <trkpt lat="44.35428" lon="5.15551">
        <ele>370.6</ele>
        <time>2012-10-10T11:09:41Z</time>
      </trkpt>
      <trkpt lat="44.35417" lon="5.1556">
        <ele>373.8</ele>
        <time>2012-10-10T11:09:46Z</time>
      </trkpt>
      <trkpt lat="44.35408" lon="5.15571">
        <ele>378</ele>
        <time>2012-10-10T11:09:51Z</time>
      </trkpt>
      <trkpt lat="44.35398" lon="5.15585">
        <ele>384</ele>
        <time>2012-10-10T11:09:56Z</time>
      </trkpt>
      <trkpt lat="44.35384" lon="5.15578">
        <ele>380.9</ele>
        <time>2012-10-10T11:10:01Z</time>
      </trkpt>
      <trkpt lat="44.35374" lon="5.15572">
        <ele>379</ele>
        <time>2012-10-10T11:10:06Z</time>
      </trkpt>
      <trkpt lat="44.35359" lon="5.15567">
        <ele>378.2</ele>
        <time>2012-10-10T11:10:11Z</time>
      </trkpt>
      <trkpt lat="44.35345" lon="5.15562">
        <ele>378.1</ele>
        <time>2012-10-10T11:10:16Z</time>
      </trkpt>
      <trkpt lat="44.3533" lon="5.15557">
        <ele>378.4</ele>
        <time>2012-10-10T11:10:21Z</time>
      </trkpt>
      <trkpt lat="44.35319" lon="5.15557">
        <ele>380.2</ele>
        <time>2012-10-10T11:10:26Z</time>
      </trkpt>
      <trkpt lat="44.35308" lon="5.15556">
        <ele>381.9</ele>
        <time>2012-10-10T11:10:31Z</time>
      </trkpt>
      <trkpt lat="44.35297" lon="5.15557">
        <ele>384.5</ele>
        <time>2012-10-10T11:10:36Z</time>
      </trkpt>
      <trkpt lat="44.35285" lon="5.15556">
        <ele>386.3</ele>
        <time>2012-10-10T11:10:41Z</time>
      </trkpt>
      <trkpt lat="44.35274" lon="5.15555">
        <ele>388.7</ele>
        <time>2012-10-10T11:10:46Z</time>
      </trkpt>
      <trkpt lat="44.35263" lon="5.15554">
        <ele>391</ele>
        <time>2012-10-10T11:10:51Z</time>
      </trkpt>
      <trkpt lat="44.35251" lon="5.15552">
        <ele>393.3</ele>
        <time>2012-10-10T11:10:56Z</time>
      </trkpt>
      <trkpt lat="44.3524" lon="5.1555">
        <ele>395.2</ele>
        <time>2012-10-10T11:11:01Z</time>
      </trkpt>
      <trkpt lat="44.35231" lon="5.15548">
        <ele>396.7</ele>
        <time>2012-10-10T11:11:06Z</time>
      </trkpt>
      <trkpt lat="44.35224" lon="5.1555">
        <ele>399.5</ele>
        <time>2012-10-10T11:11:11Z</time>
      </trkpt>
      <trkpt lat="44.3523" lon="5.15554">
        <ele>399.2</ele>
        <time>2012-10-10T11:11:16Z</time>
      </trkpt>
      <trkpt lat="44.35241" lon="5.1556">
        <ele>399.4</ele>
        <time>2012-10-10T11:11:21Z</time>
      </trkpt>
      <trkpt lat="44.35248" lon="5.15567">
        <ele>400.3</ele>
        <time>2012-10-10T11:11:26Z</time>
      </trkpt>
      <trkpt lat="44.3526" lon="5.15576">
        <ele>401.2</ele>
        <time>2012-10-10T11:11:31Z</time>
      </trkpt>
      <trkpt lat="44.35269" lon="5.15583">
        <ele>402.2</ele>
        <time>2012-10-10T11:11:36Z</time>
      </trkpt>
      <trkpt lat="44.35274" lon="5.15587">
        <ele>402.8</ele>
        <time>2012-10-10T11:11:41Z</time>
      </trkpt>
      <trkpt lat="44.35282" lon="5.15595">
        <ele>404.6</ele>
        <time>2012-10-10T11:11:46Z</time>
      </trkpt>
      <trkpt lat="44.35289" lon="5.15598">
        <ele>404.6</ele>
        <time>2012-10-10T11:11:51Z</time>
      </trkpt>
      <trkpt lat="44.353" lon="5.15605">
        <ele>405.3</ele>
        <time>2012-10-10T11:11:56Z</time>
      </trkpt>
      <trkpt lat="44.35313" lon="5.15612">
        <ele>406.2</ele>
        <time>2012-10-10T11:12:01Z</time>
      </trkpt>
      <trkpt lat="44.35324" lon="5.15621">
        <ele>408.3</ele>
        <time>2012-10-10T11:12:06Z</time>
      </trkpt>
      <trkpt lat="44.35331" lon="5.15626">
        <ele>409.8</ele>
        <time>2012-10-10T11:12:11Z</time>
      </trkpt>
      <trkpt lat="44.35344" lon="5.15632">
        <ele>411.3</ele>
        <time>2012-10-10T11:12:16Z</time>
      </trkpt>
      <trkpt lat="44.35344" lon="5.15637">
        <ele>413.7</ele>
        <time>2012-10-10T11:12:21Z</time>
      </trkpt>
      <trkpt lat="44.35334" lon="5.15633">
        <ele>412.8</ele>
        <time>2012-10-10T11:12:26Z</time>
      </trkpt>
      <trkpt lat="44.35327" lon="5.1563">
        <ele>412.6</ele>
        <time>2012-10-10T11:12:31Z</time>
      </trkpt>
      <trkpt lat="44.35321" lon="5.15629">
        <ele>413.1</ele>
        <time>2012-10-10T11:12:36Z</time>
      </trkpt>
      <trkpt lat="44.35309" lon="5.15625">
        <ele>412.9</ele>
        <time>2012-10-10T11:12:41Z</time>
      </trkpt>
      <trkpt lat="44.35299" lon="5.15623">
        <ele>414</ele>
        <time>2012-10-10T11:12:46Z</time>
      </trkpt>
      <trkpt lat="44.3529" lon="5.15624">
        <ele>416.5</ele>
        <time>2012-10-10T11:12:51Z</time>
      </trkpt>
      <trkpt lat="44.35282" lon="5.15622">
        <ele>416.9</ele>
        <time>2012-10-10T11:12:56Z</time>
      </trkpt>
      <trkpt lat="44.35271" lon="5.15619">
        <ele>418.5</ele>
        <time>2012-10-10T11:13:01Z</time>
      </trkpt>
      <trkpt lat="44.35262" lon="5.15618">
        <ele>420.2</ele>
        <time>2012-10-10T11:13:06Z</time>
      </trkpt>
      <trkpt lat="44.35252" lon="5.15616">
        <ele>421.9</ele>
        <time>2012-10-10T11:13:11Z</time>
      </trkpt>
      <trkpt lat="44.35244" lon="5.15611">
        <ele>421.2</ele>
        <time>2012-10-10T11:13:16Z</time>
      </trkpt>
      <trkpt lat="44.35236" lon="5.1561">
        <ele>422.8</ele>
        <time>2012-10-10T11:13:21Z</time>
      </trkpt>
      <trkpt lat="44.3523" lon="5.15609">
        <ele>424.1</ele>
        <time>2012-10-10T11:13:26Z</time>
      </trkpt>
      <trkpt lat="44.3522" lon="5.15604">
        <ele>424.4</ele>
        <time>2012-10-10T11:13:31Z</time>
      </trkpt>
      <trkpt lat="44.3521" lon="5.15606">
        <ele>427.7</ele>
        <time>2012-10-10T11:13:36Z</time>
      </trkpt>
      <trkpt lat="44.35203" lon="5.15605">
        <ele>428.8</ele>
        <time>2012-10-10T11:13:41Z</time>
      </trkpt>
      <trkpt lat="44.35198" lon="5.15603">
        <ele>429.2</ele>
        <time>2012-10-10T11:13:46Z</time>
      </trkpt>
      <trkpt lat="44.35185" lon="5.15598">
        <ele>429.9</ele>
        <time>2012-10-10T11:13:51Z</time>
      </trkpt>
      <trkpt lat="44.35175" lon="5.15593">
        <ele>429.8</ele>
        <time>2012-10-10T11:13:56Z</time>
      </trkpt>
      <trkpt lat="44.35164" lon="5.15592">
        <ele>431.3</ele>
        <time>2012-10-10T11:14:01Z</time>
      </trkpt>
      <trkpt lat="44.35155" lon="5.15592">
        <ele>432.5</ele>
        <time>2012-10-10T11:14:06Z</time>
      </trkpt>
      <trkpt lat="44.35145" lon="5.15597">
        <ele>435.8</ele>
        <time>2012-10-10T11:14:11Z</time>
      </trkpt>
      <trkpt lat="44.35138" lon="5.15601">
        <ele>438</ele>
        <time>2012-10-10T11:14:16Z</time>
      </trkpt>
      <trkpt lat="44.35127" lon="5.15602">
        <ele>438.1</ele>
        <time>2012-10-10T11:14:21Z</time>
      </trkpt>
      <trkpt lat="44.35118" lon="5.15606">
        <ele>439.7</ele>
        <time>2012-10-10T11:14:26Z</time>
      </trkpt>
      <trkpt lat="44.35111" lon="5.15607">
        <ele>440</ele>
        <time>2012-10-10T11:14:31Z</time>
      </trkpt>
      <trkpt lat="44.35103" lon="5.15612">
        <ele>441.1</ele>
        <time>2012-10-10T11:14:36Z</time>
      </trkpt>
      <trkpt lat="44.35092" lon="5.15617">
        <ele>442</ele>
        <time>2012-10-10T11:14:41Z</time>
      </trkpt>
      <trkpt lat="44.35084" lon="5.15623">
        <ele>443.5</ele>
        <time>2012-10-10T11:14:46Z</time>
      </trkpt>
      <trkpt lat="44.35074" lon="5.15625">
        <ele>443.5</ele>
        <time>2012-10-10T11:14:51Z</time>
      </trkpt>
      <trkpt lat="44.35064" lon="5.15625">
        <ele>442.5</ele>
        <time>2012-10-10T11:14:56Z</time>
      </trkpt>
      <trkpt lat="44.35053" lon="5.15633">
        <ele>444.6</ele>
        <time>2012-10-10T11:15:01Z</time>
      </trkpt>
      <trkpt lat="44.35046" lon="5.15638">
        <ele>446.3</ele>
        <time>2012-10-10T11:15:06Z</time>
      </trkpt>
      <trkpt lat="44.35034" lon="5.15641">
        <ele>447.3</ele>
        <time>2012-10-10T11:15:11Z</time>
      </trkpt>
      <trkpt lat="44.35025" lon="5.15642">
        <ele>448.2</ele>
        <time>2012-10-10T11:15:16Z</time>
      </trkpt>
      <trkpt lat="44.35018" lon="5.1565">
        <ele>452.6</ele>
        <time>2012-10-10T11:15:21Z</time>
      </trkpt>
      <trkpt lat="44.35024" lon="5.15652">
        <ele>452.4</ele>
        <time>2012-10-10T11:15:26Z</time>
      </trkpt>
      <trkpt lat="44.3504" lon="5.15655">
        <ele>453.7</ele>
        <time>2012-10-10T11:15:31Z</time>
      </trkpt>
      <trkpt lat="44.35055" lon="5.15652">
        <ele>453.5</ele>
        <time>2012-10-10T11:15:36Z</time>
      </trkpt>
      <trkpt lat="44.35065" lon="5.1565">
        <ele>453.9</ele>
        <time>2012-10-10T11:15:41Z</time>
      </trkpt>
      <trkpt lat="44.35076" lon="5.15646">
        <ele>453.7</ele>
        <time>2012-10-10T11:15:46Z</time>
      </trkpt>
      <trkpt lat="44.3509" lon="5.15643">
        <ele>454.3</ele>
        <time>2012-10-10T11:15:51Z</time>
      </trkpt>
      <trkpt lat="44.35102" lon="5.15642">
        <ele>455</ele>
        <time>2012-10-10T11:15:56Z</time>
      </trkpt>
      <trkpt lat="44.35113" lon="5.15641">
        <ele>456.2</ele>
        <time>2012-10-10T11:16:01Z</time>
      </trkpt>
      <trkpt lat="44.35125" lon="5.1564">
        <ele>455.9</ele>
        <time>2012-10-10T11:16:06Z</time>
      </trkpt>
      <trkpt lat="44.35133" lon="5.1564">
        <ele>456.2</ele>
        <time>2012-10-10T11:16:11Z</time>
      </trkpt>
      <trkpt lat="44.35143" lon="5.15643">
        <ele>457.6</ele>
        <time>2012-10-10T11:16:16Z</time>
      </trkpt>
      <trkpt lat="44.3515" lon="5.15646">
        <ele>457.9</ele>
        <time>2012-10-10T11:16:21Z</time>
      </trkpt>
      <trkpt lat="44.3516" lon="5.1565">
        <ele>458.3</ele>
        <time>2012-10-10T11:16:26Z</time>
      </trkpt>
      <trkpt lat="44.35167" lon="5.15654">
        <ele>459</ele>
        <time>2012-10-10T11:16:31Z</time>
      </trkpt>
      <trkpt lat="44.35177" lon="5.1566">
        <ele>459.9</ele>
        <time>2012-10-10T11:16:36Z</time>
      </trkpt>
      <trkpt lat="44.35186" lon="5.15666">
        <ele>461.3</ele>
        <time>2012-10-10T11:16:41Z</time>
      </trkpt>
      <trkpt lat="44.35194" lon="5.15671">
        <ele>462.1</ele>
        <time>2012-10-10T11:16:46Z</time>
      </trkpt>
      <trkpt lat="44.35201" lon="5.15676">
        <ele>462.9</ele>
        <time>2012-10-10T11:16:51Z</time>
      </trkpt>
      <trkpt lat="44.3521" lon="5.15683">
        <ele>463.5</ele>
        <time>2012-10-10T11:16:56Z</time>
      </trkpt>
      <trkpt lat="44.35224" lon="5.15691">
        <ele>464</ele>
        <time>2012-10-10T11:17:01Z</time>
      </trkpt>
      <trkpt lat="44.35232" lon="5.15697">
        <ele>464.8</ele>
        <time>2012-10-10T11:17:06Z</time>
      </trkpt>
      <trkpt lat="44.35234" lon="5.15702">
        <ele>466.8</ele>
        <time>2012-10-10T11:17:11Z</time>
      </trkpt>
      <trkpt lat="44.35246" lon="5.1571">
        <ele>468.1</ele>
        <time>2012-10-10T11:17:16Z</time>
      </trkpt>
      <trkpt lat="44.35259" lon="5.15717">
        <ele>468.5</ele>
        <time>2012-10-10T11:17:21Z</time>
      </trkpt>
      <trkpt lat="44.35268" lon="5.15724">
        <ele>470.4</ele>
        <time>2012-10-10T11:17:26Z</time>
      </trkpt>
      <trkpt lat="44.35274" lon="5.15732">
        <ele>472.9</ele>
        <time>2012-10-10T11:17:31Z</time>
      </trkpt>
      <trkpt lat="44.35281" lon="5.15737">
        <ele>474.6</ele>
        <time>2012-10-10T11:17:36Z</time>
      </trkpt>
      <trkpt lat="44.35288" lon="5.15742">
        <ele>476.7</ele>
        <time>2012-10-10T11:17:41Z</time>
      </trkpt>
      <trkpt lat="44.35297" lon="5.15749">
        <ele>479.4</ele>
        <time>2012-10-10T11:17:46Z</time>
      </trkpt>
      <trkpt lat="44.35303" lon="5.15753">
        <ele>480.9</ele>
        <time>2012-10-10T11:17:51Z</time>
      </trkpt>
      <trkpt lat="44.35313" lon="5.15757">
        <ele>482.2</ele>
        <time>2012-10-10T11:17:56Z</time>
      </trkpt>
      <trkpt lat="44.35323" lon="5.15762">
        <ele>483.6</ele>
        <time>2012-10-10T11:18:01Z</time>
      </trkpt>
      <trkpt lat="44.35337" lon="5.15765">
        <ele>484.2</ele>
        <time>2012-10-10T11:18:06Z</time>
      </trkpt>
      <trkpt lat="44.35347" lon="5.1577">
        <ele>486.3</ele>
        <time>2012-10-10T11:18:11Z</time>
      </trkpt>
      <trkpt lat="44.35355" lon="5.15773">
        <ele>487.4</ele>
        <time>2012-10-10T11:18:16Z</time>
      </trkpt>
      <trkpt lat="44.35367" lon="5.15777">
        <ele>489.2</ele>
        <time>2012-10-10T11:18:21Z</time>
      </trkpt>
      <trkpt lat="44.35379" lon="5.1578">
        <ele>489.8</ele>
        <time>2012-10-10T11:18:26Z</time>
      </trkpt>
      <trkpt lat="44.35388" lon="5.15785">
        <ele>491.9</ele>
        <time>2012-10-10T11:18:31Z</time>
      </trkpt>
      <trkpt lat="44.35396" lon="5.15787">
        <ele>493.1</ele>
        <time>2012-10-10T11:18:36Z</time>
      </trkpt>
      <trkpt lat="44.35407" lon="5.15792">
        <ele>496</ele>
        <time>2012-10-10T11:18:41Z</time>
      </trkpt>
      <trkpt lat="44.35418" lon="5.15794">
        <ele>496.9</ele>
        <time>2012-10-10T11:18:46Z</time>
      </trkpt>
      <trkpt lat="44.35429" lon="5.15796">
        <ele>497.5</ele>
        <time>2012-10-10T11:18:51Z</time>
      </trkpt>
      <trkpt lat="44.35437" lon="5.15796">
        <ele>497.7</ele>
        <time>2012-10-10T11:18:56Z</time>
      </trkpt>
      <trkpt lat="44.3545" lon="5.158">
        <ele>499.5</ele>
        <time>2012-10-10T11:19:01Z</time>
      </trkpt>
      <trkpt lat="44.35458" lon="5.15799">
        <ele>499</ele>
        <time>2012-10-10T11:19:06Z</time>
      </trkpt>
      <trkpt lat="44.3547" lon="5.15801">
        <ele>499.8</ele>
        <time>2012-10-10T11:19:11Z</time>
      </trkpt>
      <trkpt lat="44.35479" lon="5.15802">
        <ele>500.2</ele>
        <time>2012-10-10T11:19:16Z</time>
      </trkpt>
      <trkpt lat="44.3549" lon="5.15804">
        <ele>501.5</ele>
        <time>2012-10-10T11:19:21Z</time>
      </trkpt>
      <trkpt lat="44.35504" lon="5.15806">
        <ele>503.5</ele>
        <time>2012-10-10T11:19:26Z</time>
      </trkpt>
      <trkpt lat="44.3551" lon="5.15809">
        <ele>505</ele>
        <time>2012-10-10T11:19:31Z</time>
      </trkpt>
      <trkpt lat="44.35521" lon="5.1581">
        <ele>506.3</ele>
        <time>2012-10-10T11:19:36Z</time>
      </trkpt>
      <trkpt lat="44.35529" lon="5.15811">
        <ele>506.7</ele>
        <time>2012-10-10T11:19:41Z</time>
      </trkpt>
      <trkpt lat="44.35538" lon="5.15811">
        <ele>506.3</ele>
        <time>2012-10-10T11:19:46Z</time>
      </trkpt>
      <trkpt lat="44.35549" lon="5.15816">
        <ele>509</ele>
        <time>2012-10-10T11:19:51Z</time>
      </trkpt>
      <trkpt lat="44.35559" lon="5.15819">
        <ele>509.9</ele>
        <time>2012-10-10T11:19:56Z</time>
      </trkpt>
      <trkpt lat="44.35567" lon="5.15822">
        <ele>511.8</ele>
        <time>2012-10-10T11:20:01Z</time>
      </trkpt>
      <trkpt lat="44.35577" lon="5.15826">
        <ele>513.5</ele>
        <time>2012-10-10T11:20:06Z</time>
      </trkpt>
      <trkpt lat="44.35587" lon="5.15828">
        <ele>514.3</ele>
        <time>2012-10-10T11:20:11Z</time>
      </trkpt>
      <trkpt lat="44.35596" lon="5.15831">
        <ele>515.7</ele>
        <time>2012-10-10T11:20:16Z</time>
      </trkpt>
      <trkpt lat="44.35606" lon="5.15833">
        <ele>516.8</ele>
        <time>2012-10-10T11:20:21Z</time>
      </trkpt>
      <trkpt lat="44.35615" lon="5.15833">
        <ele>517.1</ele>
        <time>2012-10-10T11:20:26Z</time>
      </trkpt>
      <trkpt lat="44.35626" lon="5.15834">
        <ele>518.1</ele>
        <time>2012-10-10T11:20:31Z</time>
      </trkpt>
      <trkpt lat="44.35638" lon="5.15836">
        <ele>520.1</ele>
        <time>2012-10-10T11:20:36Z</time>
      </trkpt>
      <trkpt lat="44.35644" lon="5.15837">
        <ele>521.3</ele>
        <time>2012-10-10T11:20:41Z</time>
      </trkpt>
      <trkpt lat="44.35652" lon="5.1584">
        <ele>523</ele>
        <time>2012-10-10T11:20:46Z</time>
      </trkpt>
      <trkpt lat="44.35661" lon="5.15842">
        <ele>524.1</ele>
        <time>2012-10-10T11:20:51Z</time>
      </trkpt>
      <trkpt lat="44.35675" lon="5.15846">
        <ele>525.7</ele>
        <time>2012-10-10T11:20:56Z</time>
      </trkpt>
      <trkpt lat="44.35686" lon="5.15848">
        <ele>526.6</ele>
        <time>2012-10-10T11:21:01Z</time>
      </trkpt>
      <trkpt lat="44.35691" lon="5.1585">
        <ele>527</ele>
        <time>2012-10-10T11:21:06Z</time>
      </trkpt>
      <trkpt lat="44.35699" lon="5.15852">
        <ele>527.3</ele>
        <time>2012-10-10T11:21:11Z</time>
      </trkpt>
      <trkpt lat="44.35706" lon="5.15855">
        <ele>528</ele>
        <time>2012-10-10T11:21:16Z</time>
      </trkpt>
      <trkpt lat="44.35714" lon="5.1586">
        <ele>529.3</ele>
        <time>2012-10-10T11:21:21Z</time>
      </trkpt>
      <trkpt lat="44.35723" lon="5.15865">
        <ele>531.4</ele>
        <time>2012-10-10T11:21:26Z</time>
      </trkpt>
      <trkpt lat="44.35734" lon="5.15871">
        <ele>533.5</ele>
        <time>2012-10-10T11:21:31Z</time>
      </trkpt>
      <trkpt lat="44.35746" lon="5.15875">
        <ele>533.4</ele>
        <time>2012-10-10T11:21:36Z</time>
      </trkpt>
      <trkpt lat="44.35756" lon="5.15879">
        <ele>534.1</ele>
        <time>2012-10-10T11:21:41Z</time>
      </trkpt>
      <trkpt lat="44.35754" lon="5.15883">
        <ele>536.6</ele>
        <time>2012-10-10T11:21:46Z</time>
      </trkpt>
      <trkpt lat="44.35742" lon="5.15881">
        <ele>537.6</ele>
        <time>2012-10-10T11:21:51Z</time>
      </trkpt>
      <trkpt lat="44.35732" lon="5.15879">
        <ele>538.4</ele>
        <time>2012-10-10T11:21:56Z</time>
      </trkpt>
      <trkpt lat="44.35723" lon="5.1588">
        <ele>540.1</ele>
        <time>2012-10-10T11:22:01Z</time>
      </trkpt>
      <trkpt lat="44.35713" lon="5.15877">
        <ele>539.9</ele>
        <time>2012-10-10T11:22:06Z</time>
      </trkpt>
      <trkpt lat="44.357" lon="5.15876">
        <ele>540.4</ele>
        <time>2012-10-10T11:22:11Z</time>
      </trkpt>
      <trkpt lat="44.35691" lon="5.15875">
        <ele>540.7</ele>
        <time>2012-10-10T11:22:16Z</time>
      </trkpt>
      <trkpt lat="44.35677" lon="5.15876">
        <ele>541.4</ele>
        <time>2012-10-10T11:22:21Z</time>
      </trkpt>
      <trkpt lat="44.35656" lon="5.15874">
        <ele>540.7</ele>
        <time>2012-10-10T11:22:26Z</time>
      </trkpt>
      <trkpt lat="44.35641" lon="5.15873">
        <ele>539.9</ele>
        <time>2012-10-10T11:22:31Z</time>
      </trkpt>
      <trkpt lat="44.3562" lon="5.15877">
        <ele>540.4</ele>
        <time>2012-10-10T11:22:36Z</time>
      </trkpt>
      <trkpt lat="44.35594" lon="5.15872">
        <ele>537.3</ele>
        <time>2012-10-10T11:22:41Z</time>
      </trkpt>
      <trkpt lat="44.35566" lon="5.15867">
        <ele>536.3</ele>
        <time>2012-10-10T11:22:46Z</time>
      </trkpt>
      <trkpt lat="44.35537" lon="5.15868">
        <ele>537.3</ele>
        <time>2012-10-10T11:22:51Z</time>
      </trkpt>
      <trkpt lat="44.35509" lon="5.15869">
        <ele>537.3</ele>
        <time>2012-10-10T11:22:56Z</time>
      </trkpt>
      <trkpt lat="44.35479" lon="5.15868">
        <ele>536.1</ele>
        <time>2012-10-10T11:23:01Z</time>
      </trkpt>
      <trkpt lat="44.35465" lon="5.15872">
        <ele>537.5</ele>
        <time>2012-10-10T11:23:06Z</time>
      </trkpt>
      <trkpt lat="44.35445" lon="5.15872">
        <ele>537.2</ele>
        <time>2012-10-10T11:23:11Z</time>
      </trkpt>
      <trkpt lat="44.35425" lon="5.15872">
        <ele>537.3</ele>
        <time>2012-10-10T11:23:16Z</time>
      </trkpt>
      <trkpt lat="44.35406" lon="5.15878">
        <ele>539.7</ele>
        <time>2012-10-10T11:23:21Z</time>
      </trkpt>
      <trkpt lat="44.35388" lon="5.15874">
        <ele>537.8</ele>
        <time>2012-10-10T11:23:26Z</time>
      </trkpt>
      <trkpt lat="44.3537" lon="5.15873">
        <ele>538.3</ele>
        <time>2012-10-10T11:23:31Z</time>
      </trkpt>
      <trkpt lat="44.35349" lon="5.15873">
        <ele>539.4</ele>
        <time>2012-10-10T11:23:36Z</time>
      </trkpt>
      <trkpt lat="44.35336" lon="5.15871">
        <ele>539.5</ele>
        <time>2012-10-10T11:23:41Z</time>
      </trkpt>
      <trkpt lat="44.35318" lon="5.15869">
        <ele>541.1</ele>
        <time>2012-10-10T11:23:46Z</time>
      </trkpt>
      <trkpt lat="44.35302" lon="5.15867">
        <ele>542.1</ele>
        <time>2012-10-10T11:23:51Z</time>
      </trkpt>
      <trkpt lat="44.35286" lon="5.15863">
        <ele>543.2</ele>
        <time>2012-10-10T11:23:56Z</time>
      </trkpt>
      <trkpt lat="44.35269" lon="5.15857">
        <ele>543.8</ele>
        <time>2012-10-10T11:24:01Z</time>
      </trkpt>
      <trkpt lat="44.35253" lon="5.15853">
        <ele>545.4</ele>
        <time>2012-10-10T11:24:06Z</time>
      </trkpt>
      <trkpt lat="44.35237" lon="5.15847">
        <ele>545.7</ele>
        <time>2012-10-10T11:24:11Z</time>
      </trkpt>
      <trkpt lat="44.3522" lon="5.1584">
        <ele>546</ele>
        <time>2012-10-10T11:24:16Z</time>
      </trkpt>
      <trkpt lat="44.35203" lon="5.15834">
        <ele>547.2</ele>
        <time>2012-10-10T11:24:21Z</time>
      </trkpt>
      <trkpt lat="44.35185" lon="5.15829">
        <ele>548.8</ele>
        <time>2012-10-10T11:24:26Z</time>
      </trkpt>
      <trkpt lat="44.35174" lon="5.15827">
        <ele>550.2</ele>
        <time>2012-10-10T11:24:31Z</time>
      </trkpt>
      <trkpt lat="44.35159" lon="5.15826">
        <ele>552.1</ele>
        <time>2012-10-10T11:24:36Z</time>
      </trkpt>
      <trkpt lat="44.35141" lon="5.15823">
        <ele>551.9</ele>
        <time>2012-10-10T11:24:41Z</time>
      </trkpt>
      <trkpt lat="44.35124" lon="5.1582">
        <ele>551.3</ele>
        <time>2012-10-10T11:24:46Z</time>
      </trkpt>
      <trkpt lat="44.35108" lon="5.1582">
        <ele>551.8</ele>
        <time>2012-10-10T11:24:51Z</time>
      </trkpt>
      <trkpt lat="44.35087" lon="5.15829">
        <ele>555.6</ele>
        <time>2012-10-10T11:24:56Z</time>
      </trkpt>
      <trkpt lat="44.3506" lon="5.15835">
        <ele>556.4</ele>
        <time>2012-10-10T11:25:01Z</time>
      </trkpt>
      <trkpt lat="44.35041" lon="5.15838">
        <ele>555.2</ele>
        <time>2012-10-10T11:25:06Z</time>
      </trkpt>
      <trkpt lat="44.35015" lon="5.15844">
        <ele>554</ele>
        <time>2012-10-10T11:25:11Z</time>
      </trkpt>
      <trkpt lat="44.34989" lon="5.15851">
        <ele>554.2</ele>
        <time>2012-10-10T11:25:16Z</time>
      </trkpt>
      <trkpt lat="44.34962" lon="5.15857">
        <ele>553.5</ele>
        <time>2012-10-10T11:25:21Z</time>
      </trkpt>
      <trkpt lat="44.34941" lon="5.15865">
        <ele>554.7</ele>
        <time>2012-10-10T11:25:26Z</time>
      </trkpt>
      <trkpt lat="44.3492" lon="5.15865">
        <ele>551.9</ele>
        <time>2012-10-10T11:25:31Z</time>
      </trkpt>
      <trkpt lat="44.34897" lon="5.15869">
        <ele>550.7</ele>
        <time>2012-10-10T11:25:36Z</time>
      </trkpt>
      <trkpt lat="44.34872" lon="5.15875">
        <ele>550.9</ele>
        <time>2012-10-10T11:25:41Z</time>
      </trkpt>
      <trkpt lat="44.34849" lon="5.15882">
        <ele>551.9</ele>
        <time>2012-10-10T11:25:46Z</time>
      </trkpt>
      <trkpt lat="44.3483" lon="5.15884">
        <ele>552.3</ele>
        <time>2012-10-10T11:25:51Z</time>
      </trkpt>
      <trkpt lat="44.3481" lon="5.15874">
        <ele>556.4</ele>
        <time>2012-10-10T11:25:56Z</time>
      </trkpt>
      <trkpt lat="44.34792" lon="5.15867">
        <ele>561.2</ele>
        <time>2012-10-10T11:26:01Z</time>
      </trkpt>
      <trkpt lat="44.34775" lon="5.15851">
        <ele>561.1</ele>
        <time>2012-10-10T11:26:06Z</time>
      </trkpt>
      <trkpt lat="44.34754" lon="5.15836">
        <ele>562.7</ele>
        <time>2012-10-10T11:26:11Z</time>
      </trkpt>
      <trkpt lat="44.3474" lon="5.1583">
        <ele>564.2</ele>
        <time>2012-10-10T11:26:16Z</time>
      </trkpt>
      <trkpt lat="44.34728" lon="5.15811">
        <ele>564.6</ele>
        <time>2012-10-10T11:26:21Z</time>
      </trkpt>
      <trkpt lat="44.34743" lon="5.15781">
        <ele>561.1</ele>
        <time>2012-10-10T11:26:26Z</time>
      </trkpt>
      <trkpt lat="44.34756" lon="5.15764">
        <ele>558.8</ele>
        <time>2012-10-10T11:26:31Z</time>
      </trkpt>
      <trkpt lat="44.34768" lon="5.15741">
        <ele>560</ele>
        <time>2012-10-10T11:26:36Z</time>
      </trkpt>
      <trkpt lat="44.34781" lon="5.15721">
        <ele>561</ele>
        <time>2012-10-10T11:26:41Z</time>
      </trkpt>
      <trkpt lat="44.34795" lon="5.15698">
        <ele>561.8</ele>
        <time>2012-10-10T11:26:46Z</time>
      </trkpt>
      <trkpt lat="44.34804" lon="5.1568">
        <ele>563.6</ele>
        <time>2012-10-10T11:26:51Z</time>
      </trkpt>
      <trkpt lat="44.34815" lon="5.1566">
        <ele>564.4</ele>
        <time>2012-10-10T11:26:56Z</time>
      </trkpt>
      <trkpt lat="44.34828" lon="5.15638">
        <ele>563</ele>
        <time>2012-10-10T11:27:01Z</time>
      </trkpt>
      <trkpt lat="44.34836" lon="5.15621">
        <ele>562.4</ele>
        <time>2012-10-10T11:27:06Z</time>
      </trkpt>
      <trkpt lat="44.34841" lon="5.156">
        <ele>562.3</ele>
        <time>2012-10-10T11:27:11Z</time>
      </trkpt>
      <trkpt lat="44.34835" lon="5.15578">
        <ele>565.2</ele>
        <time>2012-10-10T11:27:16Z</time>
      </trkpt>
      <trkpt lat="44.34823" lon="5.15561">
        <ele>569.2</ele>
        <time>2012-10-10T11:27:21Z</time>
      </trkpt>
      <trkpt lat="44.3481" lon="5.15542">
        <ele>571.5</ele>
        <time>2012-10-10T11:27:26Z</time>
      </trkpt>
      <trkpt lat="44.34798" lon="5.15526">
        <ele>572.3</ele>
        <time>2012-10-10T11:27:31Z</time>
      </trkpt>
      <trkpt lat="44.34781" lon="5.1551">
        <ele>574.4</ele>
        <time>2012-10-10T11:27:36Z</time>
      </trkpt>
      <trkpt lat="44.34769" lon="5.15503">
        <ele>576</ele>
        <time>2012-10-10T11:27:41Z</time>
      </trkpt>
      <trkpt lat="44.34758" lon="5.15497">
        <ele>578.3</ele>
        <time>2012-10-10T11:27:46Z</time>
      </trkpt>
      <trkpt lat="44.3474" lon="5.15488">
        <ele>580</ele>
        <time>2012-10-10T11:27:51Z</time>
      </trkpt>
      <trkpt lat="44.34728" lon="5.15481">
        <ele>580.6</ele>
        <time>2012-10-10T11:27:56Z</time>
      </trkpt>
      <trkpt lat="44.34712" lon="5.15472">
        <ele>581.6</ele>
        <time>2012-10-10T11:28:01Z</time>
      </trkpt>
      <trkpt lat="44.34698" lon="5.15467">
        <ele>583.2</ele>
        <time>2012-10-10T11:28:06Z</time>
      </trkpt>
      <trkpt lat="44.3468" lon="5.15457">
        <ele>584.3</ele>
        <time>2012-10-10T11:28:11Z</time>
      </trkpt>
      <trkpt lat="44.34666" lon="5.15444">
        <ele>583.4</ele>
        <time>2012-10-10T11:28:16Z</time>
      </trkpt>
      <trkpt lat="44.34655" lon="5.15429">
        <ele>581.9</ele>
        <time>2012-10-10T11:28:21Z</time>
      </trkpt>
      <trkpt lat="44.34643" lon="5.1541">
        <ele>579.8</ele>
        <time>2012-10-10T11:28:26Z</time>
      </trkpt>
      <trkpt lat="44.3463" lon="5.15394">
        <ele>580</ele>
        <time>2012-10-10T11:28:31Z</time>
      </trkpt>
      <trkpt lat="44.34613" lon="5.15361">
        <ele>576</ele>
        <time>2012-10-10T11:28:36Z</time>
      </trkpt>
      <trkpt lat="44.34589" lon="5.15314">
        <ele>572.8</ele>
        <time>2012-10-10T11:28:41Z</time>
      </trkpt>
      <trkpt lat="44.3457" lon="5.15262">
        <ele>565.6</ele>
        <time>2012-10-10T11:28:46Z</time>
      </trkpt>
      <trkpt lat="44.34554" lon="5.15218">
        <ele>559.7</ele>
        <time>2012-10-10T11:28:51Z</time>
      </trkpt>
      <trkpt lat="44.34548" lon="5.15204">
        <ele>558.5</ele>
        <time>2012-10-10T11:28:56Z</time>
      </trkpt>
      <trkpt lat="44.34548" lon="5.152">
        <ele>556.7</ele>
        <time>2012-10-10T11:29:01Z</time>
      </trkpt>
      <trkpt lat="44.34548" lon="5.15196">
        <ele>555.5</ele>
        <time>2012-10-10T11:29:06Z</time>
      </trkpt>
      <trkpt lat="44.34548" lon="5.15196">
        <ele>555.3</ele>
        <time>2012-10-10T11:29:11Z</time>
      </trkpt>
      <trkpt lat="44.34549" lon="5.15196">
        <ele>555.1</ele>
        <time>2012-10-10T11:29:16Z</time>
      </trkpt>
      <trkpt lat="44.34547" lon="5.15194">
        <ele>555.3</ele>
        <time>2012-10-10T11:29:21Z</time>
      </trkpt>
      <trkpt lat="44.34545" lon="5.15195">
        <ele>557</ele>
        <time>2012-10-10T11:29:26Z</time>
      </trkpt>
      <trkpt lat="44.34544" lon="5.15192">
        <ele>556.4</ele>
        <time>2012-10-10T11:29:31Z</time>
      </trkpt>
      <trkpt lat="44.34543" lon="5.15186">
        <ele>555.6</ele>
        <time>2012-10-10T11:29:36Z</time>
      </trkpt>
      <trkpt lat="44.34545" lon="5.15187">
        <ele>554.5</ele>
        <time>2012-10-10T11:29:41Z</time>
      </trkpt>
      <trkpt lat="44.34547" lon="5.15188">
        <ele>553.9</ele>
        <time>2012-10-10T11:29:46Z</time>
      </trkpt>
      <trkpt lat="44.34545" lon="5.15189">
        <ele>555</ele>
        <time>2012-10-10T11:29:51Z</time>
      </trkpt>
      <trkpt lat="44.34537" lon="5.15179">
        <ele>556.9</ele>
        <time>2012-10-10T11:29:56Z</time>
      </trkpt>
      <trkpt lat="44.34529" lon="5.1515">
        <ele>560.1</ele>
        <time>2012-10-10T11:30:01Z</time>
      </trkpt>
      <trkpt lat="44.34539" lon="5.15116">
        <ele>560.2</ele>
        <time>2012-10-10T11:30:06Z</time>
      </trkpt>
      <trkpt lat="44.34567" lon="5.15052">
        <ele>547.5</ele>
        <time>2012-10-10T11:30:11Z</time>
      </trkpt>
      <trkpt lat="44.34561" lon="5.15029">
        <ele>547.4</ele>
        <time>2012-10-10T11:30:16Z</time>
      </trkpt>
      <trkpt lat="44.34549" lon="5.15014">
        <ele>549.2</ele>
        <time>2012-10-10T11:30:21Z</time>
      </trkpt>
      <trkpt lat="44.34535" lon="5.14997">
        <ele>550.2</ele>
        <time>2012-10-10T11:30:26Z</time>
      </trkpt>
      <trkpt lat="44.34522" lon="5.14993">
        <ele>553.5</ele>
        <time>2012-10-10T11:30:31Z</time>
      </trkpt>
      <trkpt lat="44.34507" lon="5.14993">
        <ele>558.9</ele>
        <time>2012-10-10T11:30:36Z</time>
      </trkpt>
      <trkpt lat="44.34493" lon="5.14993">
        <ele>563.2</ele>
        <time>2012-10-10T11:30:41Z</time>
      </trkpt>
      <trkpt lat="44.34481" lon="5.14992">
        <ele>566.5</ele>
        <time>2012-10-10T11:30:46Z</time>
      </trkpt>
      <trkpt lat="44.34469" lon="5.1499">
        <ele>569.3</ele>
        <time>2012-10-10T11:30:51Z</time>
      </trkpt>
      <trkpt lat="44.34457" lon="5.14988">
        <ele>571.6</ele>
        <time>2012-10-10T11:30:56Z</time>
      </trkpt>
      <trkpt lat="44.34441" lon="5.1498">
        <ele>572.6</ele>
        <time>2012-10-10T11:31:01Z</time>
      </trkpt>
      <trkpt lat="44.34431" lon="5.14974">
        <ele>572.1</ele>
        <time>2012-10-10T11:31:06Z</time>
      </trkpt>
      <trkpt lat="44.34417" lon="5.14967">
        <ele>572.6</ele>
        <time>2012-10-10T11:31:11Z</time>
      </trkpt>
      <trkpt lat="44.34402" lon="5.1496">
        <ele>573</ele>
        <time>2012-10-10T11:31:16Z</time>
      </trkpt>
      <trkpt lat="44.34386" lon="5.14952">
        <ele>573.9</ele>
        <time>2012-10-10T11:31:21Z</time>
      </trkpt>
      <trkpt lat="44.34371" lon="5.14945">
        <ele>574.3</ele>
        <time>2012-10-10T11:31:26Z</time>
      </trkpt>
      <trkpt lat="44.34359" lon="5.14941">
        <ele>575.7</ele>
        <time>2012-10-10T11:31:31Z</time>
      </trkpt>
      <trkpt lat="44.34335" lon="5.1493">
        <ele>577.4</ele>
        <time>2012-10-10T11:31:36Z</time>
      </trkpt>
      <trkpt lat="44.34324" lon="5.14926">
        <ele>578</ele>
        <time>2012-10-10T11:31:41Z</time>
      </trkpt>
      <trkpt lat="44.34309" lon="5.14921">
        <ele>578.6</ele>
        <time>2012-10-10T11:31:46Z</time>
      </trkpt>
      <trkpt lat="44.34288" lon="5.14918">
        <ele>580.2</ele>
        <time>2012-10-10T11:31:51Z</time>
      </trkpt>
      <trkpt lat="44.34275" lon="5.14916">
        <ele>580.8</ele>
        <time>2012-10-10T11:31:56Z</time>
      </trkpt>
      <trkpt lat="44.34258" lon="5.14912">
        <ele>581.2</ele>
        <time>2012-10-10T11:32:01Z</time>
      </trkpt>
      <trkpt lat="44.3424" lon="5.14909">
        <ele>581</ele>
        <time>2012-10-10T11:32:06Z</time>
      </trkpt>
      <trkpt lat="44.34221" lon="5.14915">
        <ele>583.5</ele>
        <time>2012-10-10T11:32:11Z</time>
      </trkpt>
      <trkpt lat="44.34201" lon="5.14923">
        <ele>587.1</ele>
        <time>2012-10-10T11:32:16Z</time>
      </trkpt>
      <trkpt lat="44.34179" lon="5.14911">
        <ele>584.2</ele>
        <time>2012-10-10T11:32:21Z</time>
      </trkpt>
      <trkpt lat="44.34152" lon="5.14888">
        <ele>579.6</ele>
        <time>2012-10-10T11:32:26Z</time>
      </trkpt>
      <trkpt lat="44.34134" lon="5.14863">
        <ele>575.8</ele>
        <time>2012-10-10T11:32:31Z</time>
      </trkpt>
      <trkpt lat="44.34111" lon="5.14834">
        <ele>575.4</ele>
        <time>2012-10-10T11:32:36Z</time>
      </trkpt>
      <trkpt lat="44.34095" lon="5.14809">
        <ele>574.7</ele>
        <time>2012-10-10T11:32:41Z</time>
      </trkpt>
      <trkpt lat="44.34074" lon="5.14787">
        <ele>574.3</ele>
        <time>2012-10-10T11:32:46Z</time>
      </trkpt>
      <trkpt lat="44.34049" lon="5.14773">
        <ele>574.7</ele>
        <time>2012-10-10T11:32:51Z</time>
      </trkpt>
      <trkpt lat="44.34033" lon="5.14786">
        <ele>579.9</ele>
        <time>2012-10-10T11:32:56Z</time>
      </trkpt>
      <trkpt lat="44.34021" lon="5.14797">
        <ele>584.4</ele>
        <time>2012-10-10T11:33:01Z</time>
      </trkpt>
      <trkpt lat="44.34012" lon="5.14802">
        <ele>587.3</ele>
        <time>2012-10-10T11:33:06Z</time>
      </trkpt>
      <trkpt lat="44.34006" lon="5.14817">
        <ele>592.4</ele>
        <time>2012-10-10T11:33:11Z</time>
      </trkpt>
      <trkpt lat="44.34004" lon="5.14831">
        <ele>596.8</ele>
        <time>2012-10-10T11:33:16Z</time>
      </trkpt>
      <trkpt lat="44.34" lon="5.14837">
        <ele>598.9</ele>
        <time>2012-10-10T11:33:21Z</time>
      </trkpt>
      <trkpt lat="44.33993" lon="5.14837">
        <ele>600.1</ele>
        <time>2012-10-10T11:33:26Z</time>
      </trkpt>
      <trkpt lat="44.33986" lon="5.14839">
        <ele>601.3</ele>
        <time>2012-10-10T11:33:31Z</time>
      </trkpt>
      <trkpt lat="44.33981" lon="5.14842">
        <ele>602.6</ele>
        <time>2012-10-10T11:33:36Z</time>
      </trkpt>
      <trkpt lat="44.33974" lon="5.14843">
        <ele>603.6</ele>
        <time>2012-10-10T11:33:41Z</time>
      </trkpt>
      <trkpt lat="44.3397" lon="5.14847">
        <ele>605.3</ele>
        <time>2012-10-10T11:33:46Z</time>
      </trkpt>
      <trkpt lat="44.33964" lon="5.14845">
        <ele>606.6</ele>
        <time>2012-10-10T11:33:51Z</time>
      </trkpt>
      <trkpt lat="44.3396" lon="5.14843">
        <ele>607.3</ele>
        <time>2012-10-10T11:33:56Z</time>
      </trkpt>
      <trkpt lat="44.33954" lon="5.14835">
        <ele>607.6</ele>
        <time>2012-10-10T11:34:01Z</time>
      </trkpt>
      <trkpt lat="44.33951" lon="5.14825">
        <ele>607.3</ele>
        <time>2012-10-10T11:34:06Z</time>
      </trkpt>
      <trkpt lat="44.33945" lon="5.14817">
        <ele>608.5</ele>
        <time>2012-10-10T11:34:11Z</time>
      </trkpt>
      <trkpt lat="44.33938" lon="5.14813">
        <ele>610.9</ele>
        <time>2012-10-10T11:34:16Z</time>
      </trkpt>
      <trkpt lat="44.33931" lon="5.14811">
        <ele>613.5</ele>
        <time>2012-10-10T11:34:21Z</time>
      </trkpt>
      <trkpt lat="44.33924" lon="5.14807">
        <ele>615.4</ele>
        <time>2012-10-10T11:34:26Z</time>
      </trkpt>
      <trkpt lat="44.33918" lon="5.14805">
        <ele>617.5</ele>
        <time>2012-10-10T11:34:31Z</time>
      </trkpt>
      <trkpt lat="44.33913" lon="5.148">
        <ele>618.1</ele>
        <time>2012-10-10T11:34:36Z</time>
      </trkpt>
      <trkpt lat="44.33906" lon="5.14791">
        <ele>618.6</ele>
        <time>2012-10-10T11:34:41Z</time>
      </trkpt>
      <trkpt lat="44.33898" lon="5.14784">
        <ele>619.8</ele>
        <time>2012-10-10T11:34:46Z</time>
      </trkpt>
      <trkpt lat="44.33891" lon="5.14776">
        <ele>620.8</ele>
        <time>2012-10-10T11:34:51Z</time>
      </trkpt>
      <trkpt lat="44.33885" lon="5.14765">
        <ele>620.8</ele>
        <time>2012-10-10T11:34:56Z</time>
      </trkpt>
      <trkpt lat="44.33873" lon="5.14757">
        <ele>623.3</ele>
        <time>2012-10-10T11:35:01Z</time>
      </trkpt>
      <trkpt lat="44.33864" lon="5.14756">
        <ele>626.6</ele>
        <time>2012-10-10T11:35:06Z</time>
      </trkpt>
      <trkpt lat="44.33858" lon="5.14747">
        <ele>626.6</ele>
        <time>2012-10-10T11:35:11Z</time>
      </trkpt>
      <trkpt lat="44.33854" lon="5.14736">
        <ele>626.6</ele>
        <time>2012-10-10T11:35:16Z</time>
      </trkpt>
      <trkpt lat="44.33848" lon="5.14725">
        <ele>627.5</ele>
        <time>2012-10-10T11:35:21Z</time>
      </trkpt>
      <trkpt lat="44.33842" lon="5.14717">
        <ele>628.8</ele>
        <time>2012-10-10T11:35:26Z</time>
      </trkpt>
      <trkpt lat="44.33834" lon="5.14712">
        <ele>631.1</ele>
        <time>2012-10-10T11:35:31Z</time>
      </trkpt>
      <trkpt lat="44.33828" lon="5.14699">
        <ele>631.1</ele>
        <time>2012-10-10T11:35:36Z</time>
      </trkpt>
      <trkpt lat="44.33822" lon="5.14693">
        <ele>632.6</ele>
        <time>2012-10-10T11:35:41Z</time>
      </trkpt>
      <trkpt lat="44.33815" lon="5.14687">
        <ele>634.8</ele>
        <time>2012-10-10T11:35:46Z</time>
      </trkpt>
      <trkpt lat="44.33803" lon="5.14679">
        <ele>638.9</ele>
        <time>2012-10-10T11:35:51Z</time>
      </trkpt>
      <trkpt lat="44.33797" lon="5.14673">
        <ele>639.9</ele>
        <time>2012-10-10T11:35:56Z</time>
      </trkpt>
      <trkpt lat="44.33787" lon="5.14668">
        <ele>642.8</ele>
        <time>2012-10-10T11:36:01Z</time>
      </trkpt>
      <trkpt lat="44.3378" lon="5.14666">
        <ele>644.9</ele>
        <time>2012-10-10T11:36:06Z</time>
      </trkpt>
      <trkpt lat="44.33772" lon="5.14664">
        <ele>647.8</ele>
        <time>2012-10-10T11:36:11Z</time>
      </trkpt>
      <trkpt lat="44.33765" lon="5.14662">
        <ele>650.1</ele>
        <time>2012-10-10T11:36:16Z</time>
      </trkpt>
      <trkpt lat="44.33762" lon="5.14655">
        <ele>649.3</ele>
        <time>2012-10-10T11:36:21Z</time>
      </trkpt>
      <trkpt lat="44.33756" lon="5.14653">
        <ele>651.2</ele>
        <time>2012-10-10T11:36:26Z</time>
      </trkpt>
      <trkpt lat="44.3375" lon="5.14649">
        <ele>652.2</ele>
        <time>2012-10-10T11:36:31Z</time>
      </trkpt>
      <trkpt lat="44.33745" lon="5.14644">
        <ele>653.3</ele>
        <time>2012-10-10T11:36:36Z</time>
      </trkpt>
      <trkpt lat="44.33741" lon="5.14637">
        <ele>653.2</ele>
        <time>2012-10-10T11:36:41Z</time>
      </trkpt>
      <trkpt lat="44.33736" lon="5.1463">
        <ele>655</ele>
        <time>2012-10-10T11:36:46Z</time>
      </trkpt>
      <trkpt lat="44.33731" lon="5.14624">
        <ele>656.3</ele>
        <time>2012-10-10T11:36:51Z</time>
      </trkpt>
      <trkpt lat="44.33728" lon="5.14614">
        <ele>656.5</ele>
        <time>2012-10-10T11:36:56Z</time>
      </trkpt>
      <trkpt lat="44.3373" lon="5.14599">
        <ele>654.5</ele>
        <time>2012-10-10T11:37:01Z</time>
      </trkpt>
      <trkpt lat="44.33735" lon="5.1458">
        <ele>650.4</ele>
        <time>2012-10-10T11:37:06Z</time>
      </trkpt>
      <trkpt lat="44.33741" lon="5.14546">
        <ele>645</ele>
        <time>2012-10-10T11:37:11Z</time>
      </trkpt>
      <trkpt lat="44.33741" lon="5.14516">
        <ele>640</ele>
        <time>2012-10-10T11:37:16Z</time>
      </trkpt>
      <trkpt lat="44.33751" lon="5.14498">
        <ele>633.4</ele>
        <time>2012-10-10T11:37:21Z</time>
      </trkpt>
      <trkpt lat="44.33756" lon="5.1449">
        <ele>630</ele>
        <time>2012-10-10T11:37:26Z</time>
      </trkpt>
      <trkpt lat="44.33776" lon="5.14507">
        <ele>624.3</ele>
        <time>2012-10-10T11:37:31Z</time>
      </trkpt>
      <trkpt lat="44.33787" lon="5.14511">
        <ele>619.8</ele>
        <time>2012-10-10T11:37:36Z</time>
      </trkpt>
      <trkpt lat="44.33799" lon="5.14501">
        <ele>613.1</ele>
        <time>2012-10-10T11:37:41Z</time>
      </trkpt>
      <trkpt lat="44.33807" lon="5.14493">
        <ele>608.5</ele>
        <time>2012-10-10T11:37:46Z</time>
      </trkpt>
      <trkpt lat="44.33818" lon="5.14487">
        <ele>603</ele>
        <time>2012-10-10T11:37:51Z</time>
      </trkpt>
      <trkpt lat="44.33833" lon="5.145">
        <ele>598.3</ele>
        <time>2012-10-10T11:37:56Z</time>
      </trkpt>
      <trkpt lat="44.33852" lon="5.14507">
        <ele>590.2</ele>
        <time>2012-10-10T11:38:01Z</time>
      </trkpt>
      <trkpt lat="44.3386" lon="5.14535">
        <ele>589.3</ele>
        <time>2012-10-10T11:38:06Z</time>
      </trkpt>
      <trkpt lat="44.33877" lon="5.1455">
        <ele>584.2</ele>
        <time>2012-10-10T11:38:11Z</time>
      </trkpt>
      <trkpt lat="44.33898" lon="5.1456">
        <ele>577.4</ele>
        <time>2012-10-10T11:38:16Z</time>
      </trkpt>
      <trkpt lat="44.33926" lon="5.14578">
        <ele>569.3</ele>
        <time>2012-10-10T11:38:21Z</time>
      </trkpt>
      <trkpt lat="44.33962" lon="5.14607">
        <ele>563.5</ele>
        <time>2012-10-10T11:38:26Z</time>
      </trkpt>
      <trkpt lat="44.33984" lon="5.14604">
        <ele>558</ele>
        <time>2012-10-10T11:38:31Z</time>
      </trkpt>
      <trkpt lat="44.34015" lon="5.14603">
        <ele>548.9</ele>
        <time>2012-10-10T11:38:36Z</time>
      </trkpt>
      <trkpt lat="44.34039" lon="5.14614">
        <ele>542.4</ele>
        <time>2012-10-10T11:38:41Z</time>
      </trkpt>
      <trkpt lat="44.34044" lon="5.14654">
        <ele>547.7</ele>
        <time>2012-10-10T11:38:46Z</time>
      </trkpt>
      <trkpt lat="44.34051" lon="5.1467">
        <ele>548.9</ele>
        <time>2012-10-10T11:38:51Z</time>
      </trkpt>
      <trkpt lat="44.34069" lon="5.14656">
        <ele>541.8</ele>
        <time>2012-10-10T11:38:56Z</time>
      </trkpt>
      <trkpt lat="44.34102" lon="5.14639">
        <ele>531.3</ele>
        <time>2012-10-10T11:39:01Z</time>
      </trkpt>
      <trkpt lat="44.34122" lon="5.14625">
        <ele>525.2</ele>
        <time>2012-10-10T11:39:06Z</time>
      </trkpt>
      <trkpt lat="44.34153" lon="5.14609">
        <ele>517.5</ele>
        <time>2012-10-10T11:39:11Z</time>
      </trkpt>
      <trkpt lat="44.34178" lon="5.14593">
        <ele>511.2</ele>
        <time>2012-10-10T11:39:16Z</time>
      </trkpt>
      <trkpt lat="44.34194" lon="5.14582">
        <ele>507</ele>
        <time>2012-10-10T11:39:21Z</time>
      </trkpt>
      <trkpt lat="44.34205" lon="5.14571">
        <ele>503.8</ele>
        <time>2012-10-10T11:39:26Z</time>
      </trkpt>
      <trkpt lat="44.34213" lon="5.14561">
        <ele>500.5</ele>
        <time>2012-10-10T11:39:31Z</time>
      </trkpt>
      <trkpt lat="44.34221" lon="5.14545">
        <ele>497.9</ele>
        <time>2012-10-10T11:39:36Z</time>
      </trkpt>
      <trkpt lat="44.34226" lon="5.14535">
        <ele>496.7</ele>
        <time>2012-10-10T11:39:41Z</time>
      </trkpt>
      <trkpt lat="44.34234" lon="5.14529">
        <ele>494.7</ele>
        <time>2012-10-10T11:39:46Z</time>
      </trkpt>
      <trkpt lat="44.34234" lon="5.14522">
        <ele>494.8</ele>
        <time>2012-10-10T11:39:51Z</time>
      </trkpt>
      <trkpt lat="44.34232" lon="5.1451">
        <ele>495.3</ele>
        <time>2012-10-10T11:39:56Z</time>
      </trkpt>
      <trkpt lat="44.3423" lon="5.14497">
        <ele>495.8</ele>
        <time>2012-10-10T11:40:01Z</time>
      </trkpt>
      <trkpt lat="44.34231" lon="5.14478">
        <ele>495.3</ele>
        <time>2012-10-10T11:40:06Z</time>
      </trkpt>
      <trkpt lat="44.34232" lon="5.14456">
        <ele>495</ele>
        <time>2012-10-10T11:40:11Z</time>
      </trkpt>
      <trkpt lat="44.34233" lon="5.14428">
        <ele>494.9</ele>
        <time>2012-10-10T11:40:16Z</time>
      </trkpt>
      <trkpt lat="44.34231" lon="5.1441">
        <ele>495.2</ele>
        <time>2012-10-10T11:40:21Z</time>
      </trkpt>
      <trkpt lat="44.34222" lon="5.14397">
        <ele>497.5</ele>
        <time>2012-10-10T11:40:26Z</time>
      </trkpt>
      <trkpt lat="44.34218" lon="5.14384">
        <ele>498.8</ele>
        <time>2012-10-10T11:40:31Z</time>
      </trkpt>
      <trkpt lat="44.34215" lon="5.14367">
        <ele>500.4</ele>
        <time>2012-10-10T11:40:36Z</time>
      </trkpt>
      <trkpt lat="44.34216" lon="5.14351">
        <ele>500.6</ele>
        <time>2012-10-10T11:40:41Z</time>
      </trkpt>
      <trkpt lat="44.34223" lon="5.14337">
        <ele>499.8</ele>
        <time>2012-10-10T11:40:46Z</time>
      </trkpt>
      <trkpt lat="44.34224" lon="5.14323">
        <ele>500.8</ele>
        <time>2012-10-10T11:40:51Z</time>
      </trkpt>
      <trkpt lat="44.34224" lon="5.14309">
        <ele>502.3</ele>
        <time>2012-10-10T11:40:56Z</time>
      </trkpt>
      <trkpt lat="44.34223" lon="5.14295">
        <ele>503.2</ele>
        <time>2012-10-10T11:41:01Z</time>
      </trkpt>
      <trkpt lat="44.34221" lon="5.1428">
        <ele>504.1</ele>
        <time>2012-10-10T11:41:06Z</time>
      </trkpt>
      <trkpt lat="44.34216" lon="5.14264">
        <ele>505.4</ele>
        <time>2012-10-10T11:41:11Z</time>
      </trkpt>
      <trkpt lat="44.34211" lon="5.14251">
        <ele>506.6</ele>
        <time>2012-10-10T11:41:16Z</time>
      </trkpt>
      <trkpt lat="44.3421" lon="5.14236">
        <ele>507.4</ele>
        <time>2012-10-10T11:41:21Z</time>
      </trkpt>
      <trkpt lat="44.34203" lon="5.14225">
        <ele>508.3</ele>
        <time>2012-10-10T11:41:26Z</time>
      </trkpt>
      <trkpt lat="44.34198" lon="5.14214">
        <ele>509.3</ele>
        <time>2012-10-10T11:41:31Z</time>
      </trkpt>
      <trkpt lat="44.34193" lon="5.14204">
        <ele>510.6</ele>
        <time>2012-10-10T11:41:36Z</time>
      </trkpt>
      <trkpt lat="44.34191" lon="5.14191">
        <ele>511.9</ele>
        <time>2012-10-10T11:41:41Z</time>
      </trkpt>
      <trkpt lat="44.34187" lon="5.1418">
        <ele>513.4</ele>
        <time>2012-10-10T11:41:46Z</time>
      </trkpt>
      <trkpt lat="44.3418" lon="5.14171">
        <ele>514.7</ele>
        <time>2012-10-10T11:41:51Z</time>
      </trkpt>
      <trkpt lat="44.34176" lon="5.14164">
        <ele>515.7</ele>
        <time>2012-10-10T11:41:56Z</time>
      </trkpt>
      <trkpt lat="44.34173" lon="5.14153">
        <ele>516.9</ele>
        <time>2012-10-10T11:42:01Z</time>
      </trkpt>
      <trkpt lat="44.34169" lon="5.14141">
        <ele>517.9</ele>
        <time>2012-10-10T11:42:06Z</time>
      </trkpt>
      <trkpt lat="44.34166" lon="5.14131">
        <ele>519.3</ele>
        <time>2012-10-10T11:42:11Z</time>
      </trkpt>
      <trkpt lat="44.3416" lon="5.14119">
        <ele>521.3</ele>
        <time>2012-10-10T11:42:16Z</time>
      </trkpt>
      <trkpt lat="44.34154" lon="5.14111">
        <ele>522.5</ele>
        <time>2012-10-10T11:42:21Z</time>
      </trkpt>
      <trkpt lat="44.34147" lon="5.14101">
        <ele>524.2</ele>
        <time>2012-10-10T11:42:26Z</time>
      </trkpt>
      <trkpt lat="44.34145" lon="5.14094">
        <ele>525.3</ele>
        <time>2012-10-10T11:42:31Z</time>
      </trkpt>
      <trkpt lat="44.34139" lon="5.1409">
        <ele>526</ele>
        <time>2012-10-10T11:42:36Z</time>
      </trkpt>
      <trkpt lat="44.34134" lon="5.14094">
        <ele>526.5</ele>
        <time>2012-10-10T11:42:41Z</time>
      </trkpt>
      <trkpt lat="44.34129" lon="5.14094">
        <ele>527.3</ele>
        <time>2012-10-10T11:42:46Z</time>
      </trkpt>
      <trkpt lat="44.34124" lon="5.14092">
        <ele>528.7</ele>
        <time>2012-10-10T11:42:51Z</time>
      </trkpt>
      <trkpt lat="44.34117" lon="5.14096">
        <ele>529.5</ele>
        <time>2012-10-10T11:42:56Z</time>
      </trkpt>
      <trkpt lat="44.34113" lon="5.14104">
        <ele>529.4</ele>
        <time>2012-10-10T11:43:01Z</time>
      </trkpt>
      <trkpt lat="44.34109" lon="5.1411">
        <ele>529.6</ele>
        <time>2012-10-10T11:43:06Z</time>
      </trkpt>
      <trkpt lat="44.34104" lon="5.14118">
        <ele>530.4</ele>
        <time>2012-10-10T11:43:11Z</time>
      </trkpt>
      <trkpt lat="44.34102" lon="5.14129">
        <ele>530.5</ele>
        <time>2012-10-10T11:43:16Z</time>
      </trkpt>
      <trkpt lat="44.34102" lon="5.14132">
        <ele>530.5</ele>
        <time>2012-10-10T11:43:21Z</time>
      </trkpt>
      <trkpt lat="44.34102" lon="5.14132">
        <ele>530.6</ele>
        <time>2012-10-10T11:43:26Z</time>
      </trkpt>
      <trkpt lat="44.34101" lon="5.14135">
        <ele>530.7</ele>
        <time>2012-10-10T11:43:31Z</time>
      </trkpt>
      <trkpt lat="44.34097" lon="5.14139">
        <ele>531.5</ele>
        <time>2012-10-10T11:43:36Z</time>
      </trkpt>
      <trkpt lat="44.34095" lon="5.14138">
        <ele>532</ele>
        <time>2012-10-10T11:43:41Z</time>
      </trkpt>
      <trkpt lat="44.34092" lon="5.14141">
        <ele>532.7</ele>
        <time>2012-10-10T11:43:46Z</time>
      </trkpt>
      <trkpt lat="44.34089" lon="5.14151">
        <ele>533.7</ele>
        <time>2012-10-10T11:43:51Z</time>
      </trkpt>
      <trkpt lat="44.34085" lon="5.14148">
        <ele>534.7</ele>
        <time>2012-10-10T11:43:56Z</time>
      </trkpt>
      <trkpt lat="44.34077" lon="5.1414">
        <ele>536.7</ele>
        <time>2012-10-10T11:44:01Z</time>
      </trkpt>
      <trkpt lat="44.34071" lon="5.1413">
        <ele>538.2</ele>
        <time>2012-10-10T11:44:06Z</time>
      </trkpt>
      <trkpt lat="44.34065" lon="5.14121">
        <ele>539.7</ele>
        <time>2012-10-10T11:44:11Z</time>
      </trkpt>
      <trkpt lat="44.34057" lon="5.14113">
        <ele>541.6</ele>
        <time>2012-10-10T11:44:16Z</time>
      </trkpt>
      <trkpt lat="44.34054" lon="5.14102">
        <ele>542.3</ele>
        <time>2012-10-10T11:44:21Z</time>
      </trkpt>
      <trkpt lat="44.34054" lon="5.14091">
        <ele>542.4</ele>
        <time>2012-10-10T11:44:26Z</time>
      </trkpt>
      <trkpt lat="44.34056" lon="5.14081">
        <ele>542.1</ele>
        <time>2012-10-10T11:44:31Z</time>
      </trkpt>
      <trkpt lat="44.34056" lon="5.14069">
        <ele>543.5</ele>
        <time>2012-10-10T11:44:36Z</time>
      </trkpt>
      <trkpt lat="44.34064" lon="5.14062">
        <ele>542.9</ele>
        <time>2012-10-10T11:44:41Z</time>
      </trkpt>
      <trkpt lat="44.34075" lon="5.14056">
        <ele>541.4</ele>
        <time>2012-10-10T11:44:46Z</time>
      </trkpt>
      <trkpt lat="44.34087" lon="5.14044">
        <ele>541</ele>
        <time>2012-10-10T11:44:51Z</time>
      </trkpt>
      <trkpt lat="44.34109" lon="5.14038">
        <ele>537.3</ele>
        <time>2012-10-10T11:44:56Z</time>
      </trkpt>
      <trkpt lat="44.34132" lon="5.14031">
        <ele>532.5</ele>
        <time>2012-10-10T11:45:01Z</time>
      </trkpt>
      <trkpt lat="44.34136" lon="5.14013">
        <ele>530.7</ele>
        <time>2012-10-10T11:45:06Z</time>
      </trkpt>
      <trkpt lat="44.34139" lon="5.13993">
        <ele>528.2</ele>
        <time>2012-10-10T11:45:11Z</time>
      </trkpt>
      <trkpt lat="44.34158" lon="5.1399">
        <ele>522.9</ele>
        <time>2012-10-10T11:45:16Z</time>
      </trkpt>
      <trkpt lat="44.34169" lon="5.13991">
        <ele>520.1</ele>
        <time>2012-10-10T11:45:21Z</time>
      </trkpt>
      <trkpt lat="44.3419" lon="5.13985">
        <ele>514.5</ele>
        <time>2012-10-10T11:45:26Z</time>
      </trkpt>
      <trkpt lat="44.34212" lon="5.13978">
        <ele>508.7</ele>
        <time>2012-10-10T11:45:31Z</time>
      </trkpt>
      <trkpt lat="44.34247" lon="5.13947">
        <ele>502.1</ele>
        <time>2012-10-10T11:45:36Z</time>
      </trkpt>
      <trkpt lat="44.34253" lon="5.13927">
        <ele>504.5</ele>
        <time>2012-10-10T11:45:41Z</time>
      </trkpt>
      <trkpt lat="44.34253" lon="5.13917">
        <ele>506.2</ele>
        <time>2012-10-10T11:45:46Z</time>
      </trkpt>
      <trkpt lat="44.34252" lon="5.13902">
        <ele>508.3</ele>
        <time>2012-10-10T11:45:51Z</time>
      </trkpt>
      <trkpt lat="44.34258" lon="5.1389">
        <ele>509.3</ele>
        <time>2012-10-10T11:45:56Z</time>
      </trkpt>
      <trkpt lat="44.34265" lon="5.13881">
        <ele>509.5</ele>
        <time>2012-10-10T11:46:01Z</time>
      </trkpt>
      <trkpt lat="44.34265" lon="5.13867">
        <ele>510.5</ele>
        <time>2012-10-10T11:46:06Z</time>
      </trkpt>
      <trkpt lat="44.34266" lon="5.1385">
        <ele>511.9</ele>
        <time>2012-10-10T11:46:11Z</time>
      </trkpt>
      <trkpt lat="44.3427" lon="5.13833">
        <ele>513.5</ele>
        <time>2012-10-10T11:46:16Z</time>
      </trkpt>
      <trkpt lat="44.34279" lon="5.13809">
        <ele>513.9</ele>
        <time>2012-10-10T11:46:21Z</time>
      </trkpt>
      <trkpt lat="44.34281" lon="5.13788">
        <ele>513</ele>
        <time>2012-10-10T11:46:26Z</time>
      </trkpt>
      <trkpt lat="44.34286" lon="5.13761">
        <ele>514.9</ele>
        <time>2012-10-10T11:46:31Z</time>
      </trkpt>
      <trkpt lat="44.34282" lon="5.13724">
        <ele>510.5</ele>
        <time>2012-10-10T11:46:36Z</time>
      </trkpt>
      <trkpt lat="44.34283" lon="5.13691">
        <ele>509.3</ele>
        <time>2012-10-10T11:46:41Z</time>
      </trkpt>
      <trkpt lat="44.34283" lon="5.13658">
        <ele>507.5</ele>
        <time>2012-10-10T11:46:46Z</time>
      </trkpt>
      <trkpt lat="44.3428" lon="5.13626">
        <ele>504.6</ele>
        <time>2012-10-10T11:46:51Z</time>
      </trkpt>
      <trkpt lat="44.34298" lon="5.13608">
        <ele>499.5</ele>
        <time>2012-10-10T11:46:56Z</time>
      </trkpt>
      <trkpt lat="44.3432" lon="5.13622">
        <ele>492</ele>
        <time>2012-10-10T11:47:01Z</time>
      </trkpt>
      <trkpt lat="44.34327" lon="5.13632">
        <ele>489.9</ele>
        <time>2012-10-10T11:47:06Z</time>
      </trkpt>
      <trkpt lat="44.34341" lon="5.13624">
        <ele>482</ele>
        <time>2012-10-10T11:47:11Z</time>
      </trkpt>
      <trkpt lat="44.34341" lon="5.13592">
        <ele>480.5</ele>
        <time>2012-10-10T11:47:16Z</time>
      </trkpt>
      <trkpt lat="44.34357" lon="5.13599">
        <ele>474.4</ele>
        <time>2012-10-10T11:47:21Z</time>
      </trkpt>
      <trkpt lat="44.34378" lon="5.13614">
        <ele>467.9</ele>
        <time>2012-10-10T11:47:26Z</time>
      </trkpt>
      <trkpt lat="44.34406" lon="5.13625">
        <ele>462.8</ele>
        <time>2012-10-10T11:47:31Z</time>
      </trkpt>
      <trkpt lat="44.3441" lon="5.1361">
        <ele>462</ele>
        <time>2012-10-10T11:47:36Z</time>
      </trkpt>
      <trkpt lat="44.34407" lon="5.1359">
        <ele>463.1</ele>
        <time>2012-10-10T11:47:41Z</time>
      </trkpt>
      <trkpt lat="44.34403" lon="5.13559">
        <ele>464</ele>
        <time>2012-10-10T11:47:46Z</time>
      </trkpt>
      <trkpt lat="44.34405" lon="5.13535">
        <ele>464.2</ele>
        <time>2012-10-10T11:47:51Z</time>
      </trkpt>
      <trkpt lat="44.34415" lon="5.13518">
        <ele>463.2</ele>
        <time>2012-10-10T11:47:56Z</time>
      </trkpt>
      <trkpt lat="44.3442" lon="5.13496">
        <ele>465</ele>
        <time>2012-10-10T11:48:01Z</time>
      </trkpt>
      <trkpt lat="44.34418" lon="5.13472">
        <ele>464.6</ele>
        <time>2012-10-10T11:48:06Z</time>
      </trkpt>
      <trkpt lat="44.34411" lon="5.1345">
        <ele>463.5</ele>
        <time>2012-10-10T11:48:11Z</time>
      </trkpt>
      <trkpt lat="44.34398" lon="5.13428">
        <ele>461.8</ele>
        <time>2012-10-10T11:48:16Z</time>
      </trkpt>
      <trkpt lat="44.34382" lon="5.13389">
        <ele>455.7</ele>
        <time>2012-10-10T11:48:21Z</time>
      </trkpt>
      <trkpt lat="44.34365" lon="5.13338">
        <ele>451.3</ele>
        <time>2012-10-10T11:48:26Z</time>
      </trkpt>
      <trkpt lat="44.3435" lon="5.13314">
        <ele>452.1</ele>
        <time>2012-10-10T11:48:31Z</time>
      </trkpt>
      <trkpt lat="44.34341" lon="5.13297">
        <ele>452.6</ele>
        <time>2012-10-10T11:48:36Z</time>
      </trkpt>
      <trkpt lat="44.34327" lon="5.13285">
        <ele>456.4</ele>
        <time>2012-10-10T11:48:41Z</time>
      </trkpt>
      <trkpt lat="44.34317" lon="5.13265">
        <ele>456.1</ele>
        <time>2012-10-10T11:48:46Z</time>
      </trkpt>
      <trkpt lat="44.34302" lon="5.13247">
        <ele>454.5</ele>
        <time>2012-10-10T11:48:51Z</time>
      </trkpt>
      <trkpt lat="44.34291" lon="5.13242">
        <ele>454.9</ele>
        <time>2012-10-10T11:48:56Z</time>
      </trkpt>
      <trkpt lat="44.34274" lon="5.13238">
        <ele>456.5</ele>
        <time>2012-10-10T11:49:01Z</time>
      </trkpt>
      <trkpt lat="44.34262" lon="5.1324">
        <ele>459</ele>
        <time>2012-10-10T11:49:06Z</time>
      </trkpt>
      <trkpt lat="44.34254" lon="5.13238">
        <ele>459.7</ele>
        <time>2012-10-10T11:49:11Z</time>
      </trkpt>
      <trkpt lat="44.34242" lon="5.1324">
        <ele>462.7</ele>
        <time>2012-10-10T11:49:16Z</time>
      </trkpt>
      <trkpt lat="44.34234" lon="5.13239">
        <ele>464.2</ele>
        <time>2012-10-10T11:49:21Z</time>
      </trkpt>
      <trkpt lat="44.34224" lon="5.1324">
        <ele>466.6</ele>
        <time>2012-10-10T11:49:26Z</time>
      </trkpt>
      <trkpt lat="44.34216" lon="5.1324">
        <ele>468.7</ele>
        <time>2012-10-10T11:49:31Z</time>
      </trkpt>
      <trkpt lat="44.34206" lon="5.13235">
        <ele>470</ele>
        <time>2012-10-10T11:49:36Z</time>
      </trkpt>
      <trkpt lat="44.34197" lon="5.13234">
        <ele>472.4</ele>
        <time>2012-10-10T11:49:41Z</time>
      </trkpt>
      <trkpt lat="44.34189" lon="5.13231">
        <ele>473.5</ele>
        <time>2012-10-10T11:49:46Z</time>
      </trkpt>
      <trkpt lat="44.3418" lon="5.13228">
        <ele>474.6</ele>
        <time>2012-10-10T11:49:51Z</time>
      </trkpt>
      <trkpt lat="44.34171" lon="5.13224">
        <ele>475.3</ele>
        <time>2012-10-10T11:49:56Z</time>
      </trkpt>
      <trkpt lat="44.34163" lon="5.13219">
        <ele>476.2</ele>
        <time>2012-10-10T11:50:01Z</time>
      </trkpt>
      <trkpt lat="44.34152" lon="5.13214">
        <ele>477.7</ele>
        <time>2012-10-10T11:50:06Z</time>
      </trkpt>
      <trkpt lat="44.34143" lon="5.13207">
        <ele>478.3</ele>
        <time>2012-10-10T11:50:11Z</time>
      </trkpt>
      <trkpt lat="44.34133" lon="5.13203">
        <ele>480.5</ele>
        <time>2012-10-10T11:50:16Z</time>
      </trkpt>
      <trkpt lat="44.34126" lon="5.13199">
        <ele>481.9</ele>
        <time>2012-10-10T11:50:21Z</time>
      </trkpt>
      <trkpt lat="44.34117" lon="5.13193">
        <ele>483.2</ele>
        <time>2012-10-10T11:50:26Z</time>
      </trkpt>
      <trkpt lat="44.34113" lon="5.13189">
        <ele>484.1</ele>
        <time>2012-10-10T11:50:31Z</time>
      </trkpt>
      <trkpt lat="44.34105" lon="5.13185">
        <ele>486.3</ele>
        <time>2012-10-10T11:50:36Z</time>
      </trkpt>
      <trkpt lat="44.341" lon="5.1318">
        <ele>487</ele>
        <time>2012-10-10T11:50:41Z</time>
      </trkpt>
      <trkpt lat="44.34092" lon="5.13174">
        <ele>489.2</ele>
        <time>2012-10-10T11:50:46Z</time>
      </trkpt>
      <trkpt lat="44.34086" lon="5.13167">
        <ele>489.7</ele>
        <time>2012-10-10T11:50:51Z</time>
      </trkpt>
      <trkpt lat="44.3408" lon="5.1316">
        <ele>491.1</ele>
        <time>2012-10-10T11:50:56Z</time>
      </trkpt>
      <trkpt lat="44.34072" lon="5.13154">
        <ele>493.3</ele>
        <time>2012-10-10T11:51:01Z</time>
      </trkpt>
      <trkpt lat="44.34067" lon="5.13153">
        <ele>495.1</ele>
        <time>2012-10-10T11:51:06Z</time>
      </trkpt>
      <trkpt lat="44.34063" lon="5.13143">
        <ele>494.4</ele>
        <time>2012-10-10T11:51:11Z</time>
      </trkpt>
      <trkpt lat="44.34054" lon="5.13138">
        <ele>496.5</ele>
        <time>2012-10-10T11:51:16Z</time>
      </trkpt>
      <trkpt lat="44.34047" lon="5.13135">
        <ele>498.6</ele>
        <time>2012-10-10T11:51:21Z</time>
      </trkpt>
      <trkpt lat="44.34039" lon="5.1313">
        <ele>499.9</ele>
        <time>2012-10-10T11:51:26Z</time>
      </trkpt>
      <trkpt lat="44.34029" lon="5.13128">
        <ele>502.9</ele>
        <time>2012-10-10T11:51:31Z</time>
      </trkpt>
      <trkpt lat="44.34021" lon="5.13129">
        <ele>505</ele>
        <time>2012-10-10T11:51:36Z</time>
      </trkpt>
      <trkpt lat="44.34012" lon="5.13129">
        <ele>506.6</ele>
        <time>2012-10-10T11:51:41Z</time>
      </trkpt>
      <trkpt lat="44.34004" lon="5.13132">
        <ele>508.9</ele>
        <time>2012-10-10T11:51:46Z</time>
      </trkpt>
      <trkpt lat="44.33996" lon="5.13129">
        <ele>509.2</ele>
        <time>2012-10-10T11:51:51Z</time>
      </trkpt>
      <trkpt lat="44.33991" lon="5.13129">
        <ele>510</ele>
        <time>2012-10-10T11:51:56Z</time>
      </trkpt>
      <trkpt lat="44.33982" lon="5.13131">
        <ele>511.8</ele>
        <time>2012-10-10T11:52:01Z</time>
      </trkpt>
      <trkpt lat="44.33975" lon="5.13133">
        <ele>513.4</ele>
        <time>2012-10-10T11:52:06Z</time>
      </trkpt>
      <trkpt lat="44.33968" lon="5.13136">
        <ele>515.3</ele>
        <time>2012-10-10T11:52:11Z</time>
      </trkpt>
      <trkpt lat="44.33962" lon="5.13139">
        <ele>516.9</ele>
        <time>2012-10-10T11:52:16Z</time>
      </trkpt>
      <trkpt lat="44.33954" lon="5.13141">
        <ele>517.9</ele>
        <time>2012-10-10T11:52:21Z</time>
      </trkpt>
      <trkpt lat="44.33946" lon="5.13146">
        <ele>520.2</ele>
        <time>2012-10-10T11:52:26Z</time>
      </trkpt>
      <trkpt lat="44.33939" lon="5.13147">
        <ele>520.6</ele>
        <time>2012-10-10T11:52:31Z</time>
      </trkpt>
      <trkpt lat="44.33933" lon="5.13152">
        <ele>522.2</ele>
        <time>2012-10-10T11:52:36Z</time>
      </trkpt>
      <trkpt lat="44.33927" lon="5.13158">
        <ele>524</ele>
        <time>2012-10-10T11:52:41Z</time>
      </trkpt>
      <trkpt lat="44.3393" lon="5.13165">
        <ele>526.4</ele>
        <time>2012-10-10T11:52:46Z</time>
      </trkpt>
      <trkpt lat="44.33934" lon="5.1317">
        <ele>528.2</ele>
        <time>2012-10-10T11:52:51Z</time>
      </trkpt>
      <trkpt lat="44.3394" lon="5.13176">
        <ele>530.5</ele>
        <time>2012-10-10T11:52:56Z</time>
      </trkpt>
      <trkpt lat="44.33945" lon="5.13181">
        <ele>532.2</ele>
        <time>2012-10-10T11:53:01Z</time>
      </trkpt>
      <trkpt lat="44.33951" lon="5.13186">
        <ele>533.6</ele>
        <time>2012-10-10T11:53:06Z</time>
      </trkpt>
      <trkpt lat="44.33958" lon="5.13193">
        <ele>535.4</ele>
        <time>2012-10-10T11:53:11Z</time>
      </trkpt>
      <trkpt lat="44.33966" lon="5.13198">
        <ele>537.2</ele>
        <time>2012-10-10T11:53:16Z</time>
      </trkpt>
      <trkpt lat="44.33968" lon="5.132">
        <ele>538.4</ele>
        <time>2012-10-10T11:53:21Z</time>
      </trkpt>
      <trkpt lat="44.33963" lon="5.13202">
        <ele>539.7</ele>
        <time>2012-10-10T11:53:26Z</time>
      </trkpt>
      <trkpt lat="44.33956" lon="5.13204">
        <ele>540.9</ele>
        <time>2012-10-10T11:53:31Z</time>
      </trkpt>
      <trkpt lat="44.33949" lon="5.13206">
        <ele>541.9</ele>
        <time>2012-10-10T11:53:36Z</time>
      </trkpt>
      <trkpt lat="44.33944" lon="5.13207">
        <ele>542.6</ele>
        <time>2012-10-10T11:53:41Z</time>
      </trkpt>
      <trkpt lat="44.33937" lon="5.1321">
        <ele>543.8</ele>
        <time>2012-10-10T11:53:46Z</time>
      </trkpt>
      <trkpt lat="44.33928" lon="5.13213">
        <ele>545.5</ele>
        <time>2012-10-10T11:53:51Z</time>
      </trkpt>
      <trkpt lat="44.33922" lon="5.13216">
        <ele>547</ele>
        <time>2012-10-10T11:53:56Z</time>
      </trkpt>
      <trkpt lat="44.33912" lon="5.13218">
        <ele>547.9</ele>
        <time>2012-10-10T11:54:01Z</time>
      </trkpt>
      <trkpt lat="44.33902" lon="5.13221">
        <ele>548.8</ele>
        <time>2012-10-10T11:54:06Z</time>
      </trkpt>
      <trkpt lat="44.33893" lon="5.13222">
        <ele>549</ele>
        <time>2012-10-10T11:54:11Z</time>
      </trkpt>
      <trkpt lat="44.33884" lon="5.13227">
        <ele>550.2</ele>
        <time>2012-10-10T11:54:16Z</time>
      </trkpt>
      <trkpt lat="44.33875" lon="5.13233">
        <ele>551.8</ele>
        <time>2012-10-10T11:54:21Z</time>
      </trkpt>
      <trkpt lat="44.3387" lon="5.13239">
        <ele>553.3</ele>
        <time>2012-10-10T11:54:26Z</time>
      </trkpt>
      <trkpt lat="44.33869" lon="5.13238">
        <ele>552.7</ele>
        <time>2012-10-10T11:54:31Z</time>
      </trkpt>
      <trkpt lat="44.33869" lon="5.13239">
        <ele>552.9</ele>
        <time>2012-10-10T11:54:36Z</time>
      </trkpt>
      <trkpt lat="44.33871" lon="5.13236">
        <ele>552.2</ele>
        <time>2012-10-10T11:54:41Z</time>
      </trkpt>
      <trkpt lat="44.33869" lon="5.13237">
        <ele>552.3</ele>
        <time>2012-10-10T11:54:46Z</time>
      </trkpt>
      <trkpt lat="44.33867" lon="5.13236">
        <ele>551.4</ele>
        <time>2012-10-10T11:54:51Z</time>
      </trkpt>
      <trkpt lat="44.33863" lon="5.13231">
        <ele>548.6</ele>
        <time>2012-10-10T11:54:56Z</time>
      </trkpt>
      <trkpt lat="44.33862" lon="5.13228">
        <ele>547.2</ele>
        <time>2012-10-10T11:55:01Z</time>
      </trkpt>
      <trkpt lat="44.33861" lon="5.1323">
        <ele>547.9</ele>
        <time>2012-10-10T11:55:06Z</time>
      </trkpt>
      <trkpt lat="44.33856" lon="5.13237">
        <ele>551.3</ele>
        <time>2012-10-10T11:55:11Z</time>
      </trkpt>
      <trkpt lat="44.33847" lon="5.13244">
        <ele>554</ele>
        <time>2012-10-10T11:55:16Z</time>
      </trkpt>
      <trkpt lat="44.33839" lon="5.13249">
        <ele>555.6</ele>
        <time>2012-10-10T11:55:21Z</time>
      </trkpt>
      <trkpt lat="44.33831" lon="5.13252">
        <ele>558</ele>
        <time>2012-10-10T11:55:26Z</time>
      </trkpt>
      <trkpt lat="44.33823" lon="5.13249">
        <ele>560.3</ele>
        <time>2012-10-10T11:55:31Z</time>
      </trkpt>
      <trkpt lat="44.33816" lon="5.13242">
        <ele>562</ele>
        <time>2012-10-10T11:55:36Z</time>
      </trkpt>
      <trkpt lat="44.3381" lon="5.13236">
        <ele>563.8</ele>
        <time>2012-10-10T11:55:41Z</time>
      </trkpt>
      <trkpt lat="44.33804" lon="5.13226">
        <ele>564.4</ele>
        <time>2012-10-10T11:55:46Z</time>
      </trkpt>
      <trkpt lat="44.33795" lon="5.13217">
        <ele>565.2</ele>
        <time>2012-10-10T11:55:51Z</time>
      </trkpt>
      <trkpt lat="44.33788" lon="5.1321">
        <ele>566.1</ele>
        <time>2012-10-10T11:55:56Z</time>
      </trkpt>
      <trkpt lat="44.3378" lon="5.13202">
        <ele>568</ele>
        <time>2012-10-10T11:56:01Z</time>
      </trkpt>
      <trkpt lat="44.33772" lon="5.13196">
        <ele>569.3</ele>
        <time>2012-10-10T11:56:06Z</time>
      </trkpt>
      <trkpt lat="44.33762" lon="5.13192">
        <ele>570.4</ele>
        <time>2012-10-10T11:56:11Z</time>
      </trkpt>
      <trkpt lat="44.33752" lon="5.13192">
        <ele>572</ele>
        <time>2012-10-10T11:56:16Z</time>
      </trkpt>
      <trkpt lat="44.33744" lon="5.13199">
        <ele>573.1</ele>
        <time>2012-10-10T11:56:21Z</time>
      </trkpt>
      <trkpt lat="44.33748" lon="5.13213">
        <ele>576.2</ele>
        <time>2012-10-10T11:56:26Z</time>
      </trkpt>
      <trkpt lat="44.33752" lon="5.1322">
        <ele>577</ele>
        <time>2012-10-10T11:56:31Z</time>
      </trkpt>
      <trkpt lat="44.33755" lon="5.13229">
        <ele>579.3</ele>
        <time>2012-10-10T11:56:36Z</time>
      </trkpt>
      <trkpt lat="44.33748" lon="5.13233">
        <ele>581.8</ele>
        <time>2012-10-10T11:56:41Z</time>
      </trkpt>
      <trkpt lat="44.33742" lon="5.13232">
        <ele>582.1</ele>
        <time>2012-10-10T11:56:46Z</time>
      </trkpt>
      <trkpt lat="44.33734" lon="5.13233">
        <ele>582.9</ele>
        <time>2012-10-10T11:56:51Z</time>
      </trkpt>
      <trkpt lat="44.33725" lon="5.13235">
        <ele>584.4</ele>
        <time>2012-10-10T11:56:56Z</time>
      </trkpt>
      <trkpt lat="44.33716" lon="5.13239">
        <ele>586.4</ele>
        <time>2012-10-10T11:57:01Z</time>
      </trkpt>
      <trkpt lat="44.33708" lon="5.13241">
        <ele>587.7</ele>
        <time>2012-10-10T11:57:06Z</time>
      </trkpt>
      <trkpt lat="44.33698" lon="5.13242">
        <ele>588.7</ele>
        <time>2012-10-10T11:57:11Z</time>
      </trkpt>
      <trkpt lat="44.33687" lon="5.13244">
        <ele>589.3</ele>
        <time>2012-10-10T11:57:16Z</time>
      </trkpt>
      <trkpt lat="44.33679" lon="5.13246">
        <ele>589.4</ele>
        <time>2012-10-10T11:57:21Z</time>
      </trkpt>
      <trkpt lat="44.3367" lon="5.13248">
        <ele>589.3</ele>
        <time>2012-10-10T11:57:26Z</time>
      </trkpt>
      <trkpt lat="44.33662" lon="5.13249">
        <ele>589.7</ele>
        <time>2012-10-10T11:57:31Z</time>
      </trkpt>
      <trkpt lat="44.33652" lon="5.1325">
        <ele>590.1</ele>
        <time>2012-10-10T11:57:36Z</time>
      </trkpt>
      <trkpt lat="44.33642" lon="5.13252">
        <ele>590.9</ele>
        <time>2012-10-10T11:57:41Z</time>
      </trkpt>
      <trkpt lat="44.3363" lon="5.13255">
        <ele>591.7</ele>
        <time>2012-10-10T11:57:46Z</time>
      </trkpt>
      <trkpt lat="44.33617" lon="5.13261">
        <ele>594</ele>
        <time>2012-10-10T11:57:51Z</time>
      </trkpt>
      <trkpt lat="44.33606" lon="5.13268">
        <ele>596.4</ele>
        <time>2012-10-10T11:57:56Z</time>
      </trkpt>
      <trkpt lat="44.3359" lon="5.13277">
        <ele>599.7</ele>
        <time>2012-10-10T11:58:01Z</time>
      </trkpt>
      <trkpt lat="44.33575" lon="5.1328">
        <ele>600.3</ele>
        <time>2012-10-10T11:58:06Z</time>
      </trkpt>
      <trkpt lat="44.33561" lon="5.13283">
        <ele>600.7</ele>
        <time>2012-10-10T11:58:11Z</time>
      </trkpt>
      <trkpt lat="44.33551" lon="5.1329">
        <ele>602.1</ele>
        <time>2012-10-10T11:58:16Z</time>
      </trkpt>
      <trkpt lat="44.33543" lon="5.13296">
        <ele>602.9</ele>
        <time>2012-10-10T11:58:21Z</time>
      </trkpt>
      <trkpt lat="44.33539" lon="5.13306">
        <ele>605.2</ele>
        <time>2012-10-10T11:58:26Z</time>
      </trkpt>
      <trkpt lat="44.33534" lon="5.13314">
        <ele>606.3</ele>
        <time>2012-10-10T11:58:31Z</time>
      </trkpt>
      <trkpt lat="44.33528" lon="5.13325">
        <ele>607.5</ele>
        <time>2012-10-10T11:58:36Z</time>
      </trkpt>
      <trkpt lat="44.33521" lon="5.13339">
        <ele>608.7</ele>
        <time>2012-10-10T11:58:41Z</time>
      </trkpt>
      <trkpt lat="44.33516" lon="5.13348">
        <ele>609.4</ele>
        <time>2012-10-10T11:58:46Z</time>
      </trkpt>
      <trkpt lat="44.3351" lon="5.1336">
        <ele>610</ele>
        <time>2012-10-10T11:58:51Z</time>
      </trkpt>
      <trkpt lat="44.33505" lon="5.13373">
        <ele>610.8</ele>
        <time>2012-10-10T11:58:56Z</time>
      </trkpt>
      <trkpt lat="44.33498" lon="5.13386">
        <ele>611.1</ele>
        <time>2012-10-10T11:59:01Z</time>
      </trkpt>
      <trkpt lat="44.33489" lon="5.13401">
        <ele>612</ele>
        <time>2012-10-10T11:59:06Z</time>
      </trkpt>
      <trkpt lat="44.33482" lon="5.13421">
        <ele>613.8</ele>
        <time>2012-10-10T11:59:11Z</time>
      </trkpt>
      <trkpt lat="44.33468" lon="5.13446">
        <ele>616.2</ele>
        <time>2012-10-10T11:59:16Z</time>
      </trkpt>
      <trkpt lat="44.33452" lon="5.13464">
        <ele>619.8</ele>
        <time>2012-10-10T11:59:21Z</time>
      </trkpt>
      <trkpt lat="44.33436" lon="5.13466">
        <ele>621.7</ele>
        <time>2012-10-10T11:59:26Z</time>
      </trkpt>
      <trkpt lat="44.33416" lon="5.13461">
        <ele>622.8</ele>
        <time>2012-10-10T11:59:31Z</time>
      </trkpt>
      <trkpt lat="44.33401" lon="5.13456">
        <ele>623.4</ele>
        <time>2012-10-10T11:59:36Z</time>
      </trkpt>
      <trkpt lat="44.33389" lon="5.13452">
        <ele>623.8</ele>
        <time>2012-10-10T11:59:41Z</time>
      </trkpt>
      <trkpt lat="44.33371" lon="5.13442">
        <ele>623.9</ele>
        <time>2012-10-10T11:59:46Z</time>
      </trkpt>
      <trkpt lat="44.33353" lon="5.13435">
        <ele>624.8</ele>
        <time>2012-10-10T11:59:51Z</time>
      </trkpt>
      <trkpt lat="44.33339" lon="5.13425">
        <ele>624.2</ele>
        <time>2012-10-10T11:59:56Z</time>
      </trkpt>
      <trkpt lat="44.3332" lon="5.13419">
        <ele>624.9</ele>
        <time>2012-10-10T12:00:01Z</time>
      </trkpt>
      <trkpt lat="44.33303" lon="5.13417">
        <ele>626.3</ele>
        <time>2012-10-10T12:00:06Z</time>
      </trkpt>
      <trkpt lat="44.3329" lon="5.13419">
        <ele>628.1</ele>
        <time>2012-10-10T12:00:11Z</time>
      </trkpt>
      <trkpt lat="44.33276" lon="5.13418">
        <ele>629.6</ele>
        <time>2012-10-10T12:00:16Z</time>
      </trkpt>
      <trkpt lat="44.33265" lon="5.1342">
        <ele>631.1</ele>
        <time>2012-10-10T12:00:21Z</time>
      </trkpt>
      <trkpt lat="44.3325" lon="5.13417">
        <ele>632</ele>
        <time>2012-10-10T12:00:26Z</time>
      </trkpt>
      <trkpt lat="44.33237" lon="5.13408">
        <ele>631.8</ele>
        <time>2012-10-10T12:00:31Z</time>
      </trkpt>
      <trkpt lat="44.3322" lon="5.13405">
        <ele>632.8</ele>
        <time>2012-10-10T12:00:36Z</time>
      </trkpt>
      <trkpt lat="44.33206" lon="5.13408">
        <ele>633.6</ele>
        <time>2012-10-10T12:00:41Z</time>
      </trkpt>
      <trkpt lat="44.33199" lon="5.13412">
        <ele>634.3</ele>
        <time>2012-10-10T12:00:46Z</time>
      </trkpt>
      <trkpt lat="44.33195" lon="5.13421">
        <ele>635.4</ele>
        <time>2012-10-10T12:00:51Z</time>
      </trkpt>
      <trkpt lat="44.33189" lon="5.13427">
        <ele>634.9</ele>
        <time>2012-10-10T12:00:56Z</time>
      </trkpt>
      <trkpt lat="44.33181" lon="5.13428">
        <ele>633.3</ele>
        <time>2012-10-10T12:01:01Z</time>
      </trkpt>
      <trkpt lat="44.33167" lon="5.13433">
        <ele>631</ele>
        <time>2012-10-10T12:01:06Z</time>
      </trkpt>
      <trkpt lat="44.33155" lon="5.13439">
        <ele>629.6</ele>
        <time>2012-10-10T12:01:11Z</time>
      </trkpt>
      <trkpt lat="44.33144" lon="5.1343">
        <ele>624.8</ele>
        <time>2012-10-10T12:01:16Z</time>
      </trkpt>
      <trkpt lat="44.33137" lon="5.13436">
        <ele>625</ele>
        <time>2012-10-10T12:01:21Z</time>
      </trkpt>
      <trkpt lat="44.33128" lon="5.13432">
        <ele>622.8</ele>
        <time>2012-10-10T12:01:26Z</time>
      </trkpt>
      <trkpt lat="44.33114" lon="5.13434">
        <ele>622.5</ele>
        <time>2012-10-10T12:01:31Z</time>
      </trkpt>
      <trkpt lat="44.33103" lon="5.13441">
        <ele>625.8</ele>
        <time>2012-10-10T12:01:36Z</time>
      </trkpt>
      <trkpt lat="44.33085" lon="5.13429">
        <ele>620.9</ele>
        <time>2012-10-10T12:01:41Z</time>
      </trkpt>
      <trkpt lat="44.33072" lon="5.13416">
        <ele>615.9</ele>
        <time>2012-10-10T12:01:46Z</time>
      </trkpt>
      <trkpt lat="44.3306" lon="5.134">
        <ele>609.7</ele>
        <time>2012-10-10T12:01:51Z</time>
      </trkpt>
      <trkpt lat="44.33049" lon="5.13399">
        <ele>610.5</ele>
        <time>2012-10-10T12:01:56Z</time>
      </trkpt>
      <trkpt lat="44.33037" lon="5.13399">
        <ele>611.5</ele>
        <time>2012-10-10T12:02:01Z</time>
      </trkpt>
      <trkpt lat="44.33028" lon="5.13392">
        <ele>609.4</ele>
        <time>2012-10-10T12:02:06Z</time>
      </trkpt>
      <trkpt lat="44.33019" lon="5.13382">
        <ele>608.3</ele>
        <time>2012-10-10T12:02:11Z</time>
      </trkpt>
      <trkpt lat="44.33008" lon="5.13375">
        <ele>609.3</ele>
        <time>2012-10-10T12:02:16Z</time>
      </trkpt>
      <trkpt lat="44.32998" lon="5.13367">
        <ele>610.4</ele>
        <time>2012-10-10T12:02:21Z</time>
      </trkpt>
      <trkpt lat="44.32991" lon="5.13346">
        <ele>605.8</ele>
        <time>2012-10-10T12:02:26Z</time>
      </trkpt>
      <trkpt lat="44.3298" lon="5.13323">
        <ele>603.9</ele>
        <time>2012-10-10T12:02:31Z</time>
      </trkpt>
      <trkpt lat="44.3297" lon="5.13297">
        <ele>602.4</ele>
        <time>2012-10-10T12:02:36Z</time>
      </trkpt>
      <trkpt lat="44.32973" lon="5.13256">
        <ele>591.1</ele>
        <time>2012-10-10T12:02:41Z</time>
      </trkpt>
      <trkpt lat="44.32975" lon="5.13232">
        <ele>585.8</ele>
        <time>2012-10-10T12:02:46Z</time>
      </trkpt>
      <trkpt lat="44.32979" lon="5.13202">
        <ele>579.7</ele>
        <time>2012-10-10T12:02:51Z</time>
      </trkpt>
      <trkpt lat="44.32982" lon="5.13177">
        <ele>575</ele>
        <time>2012-10-10T12:02:56Z</time>
      </trkpt>
      <trkpt lat="44.3299" lon="5.13153">
        <ele>570.5</ele>
        <time>2012-10-10T12:03:01Z</time>
      </trkpt>
      <trkpt lat="44.32988" lon="5.13139">
        <ele>570.2</ele>
        <time>2012-10-10T12:03:06Z</time>
      </trkpt>
      <trkpt lat="44.32979" lon="5.13124">
        <ele>570.1</ele>
        <time>2012-10-10T12:03:11Z</time>
      </trkpt>
      <trkpt lat="44.32955" lon="5.13108">
        <ele>567.6</ele>
        <time>2012-10-10T12:03:16Z</time>
      </trkpt>
      <trkpt lat="44.32944" lon="5.13098">
        <ele>564.6</ele>
        <time>2012-10-10T12:03:21Z</time>
      </trkpt>
      <trkpt lat="44.3293" lon="5.13091">
        <ele>562.2</ele>
        <time>2012-10-10T12:03:26Z</time>
      </trkpt>
      <trkpt lat="44.32912" lon="5.13088">
        <ele>561.3</ele>
        <time>2012-10-10T12:03:31Z</time>
      </trkpt>
      <trkpt lat="44.32891" lon="5.13074">
        <ele>557</ele>
        <time>2012-10-10T12:03:36Z</time>
      </trkpt>
      <trkpt lat="44.32872" lon="5.13062">
        <ele>555.5</ele>
        <time>2012-10-10T12:03:41Z</time>
      </trkpt>
      <trkpt lat="44.32865" lon="5.13035">
        <ele>546.9</ele>
        <time>2012-10-10T12:03:46Z</time>
      </trkpt>
      <trkpt lat="44.32856" lon="5.13017">
        <ele>543.3</ele>
        <time>2012-10-10T12:03:51Z</time>
      </trkpt>
      <trkpt lat="44.32846" lon="5.13009">
        <ele>543.8</ele>
        <time>2012-10-10T12:03:56Z</time>
      </trkpt>
      <trkpt lat="44.32841" lon="5.12995">
        <ele>541.4</ele>
        <time>2012-10-10T12:04:01Z</time>
      </trkpt>
      <trkpt lat="44.32844" lon="5.12976">
        <ele>536.5</ele>
        <time>2012-10-10T12:04:06Z</time>
      </trkpt>
      <trkpt lat="44.32841" lon="5.12963">
        <ele>535.4</ele>
        <time>2012-10-10T12:04:11Z</time>
      </trkpt>
      <trkpt lat="44.32837" lon="5.12946">
        <ele>534.6</ele>
        <time>2012-10-10T12:04:16Z</time>
      </trkpt>
      <trkpt lat="44.32835" lon="5.12928">
        <ele>533</ele>
        <time>2012-10-10T12:04:21Z</time>
      </trkpt>
      <trkpt lat="44.3283" lon="5.12903">
        <ele>531</ele>
        <time>2012-10-10T12:04:26Z</time>
      </trkpt>
      <trkpt lat="44.32832" lon="5.12876">
        <ele>525.1</ele>
        <time>2012-10-10T12:04:31Z</time>
      </trkpt>
      <trkpt lat="44.32821" lon="5.12848">
        <ele>523.5</ele>
        <time>2012-10-10T12:04:36Z</time>
      </trkpt>
      <trkpt lat="44.32816" lon="5.12834">
        <ele>522.1</ele>
        <time>2012-10-10T12:04:41Z</time>
      </trkpt>
      <trkpt lat="44.32815" lon="5.1283">
        <ele>521.1</ele>
        <time>2012-10-10T12:04:46Z</time>
      </trkpt>
      <trkpt lat="44.32814" lon="5.12825">
        <ele>520</ele>
        <time>2012-10-10T12:04:51Z</time>
      </trkpt>
      <trkpt lat="44.32815" lon="5.12824">
        <ele>519.6</ele>
        <time>2012-10-10T12:04:56Z</time>
      </trkpt>
      <trkpt lat="44.32817" lon="5.12826">
        <ele>519.5</ele>
        <time>2012-10-10T12:05:01Z</time>
      </trkpt>
      <trkpt lat="44.32815" lon="5.12827">
        <ele>520.3</ele>
        <time>2012-10-10T12:05:06Z</time>
      </trkpt>
      <trkpt lat="44.32816" lon="5.12827">
        <ele>519.9</ele>
        <time>2012-10-10T12:05:11Z</time>
      </trkpt>
      <trkpt lat="44.32816" lon="5.12827">
        <ele>520.1</ele>
        <time>2012-10-10T12:05:16Z</time>
      </trkpt>
      <trkpt lat="44.32815" lon="5.12826">
        <ele>520</ele>
        <time>2012-10-10T12:05:21Z</time>
      </trkpt>
      <trkpt lat="44.32813" lon="5.12827">
        <ele>521.2</ele>
        <time>2012-10-10T12:05:26Z</time>
      </trkpt>
      <trkpt lat="44.32811" lon="5.12826">
        <ele>521.6</ele>
        <time>2012-10-10T12:05:31Z</time>
      </trkpt>
      <trkpt lat="44.32809" lon="5.12824">
        <ele>521.6</ele>
        <time>2012-10-10T12:05:36Z</time>
      </trkpt>
      <trkpt lat="44.32809" lon="5.12821">
        <ele>520.9</ele>
        <time>2012-10-10T12:05:41Z</time>
      </trkpt>
      <trkpt lat="44.32811" lon="5.1282">
        <ele>519.8</ele>
        <time>2012-10-10T12:05:46Z</time>
      </trkpt>
      <trkpt lat="44.32813" lon="5.12822">
        <ele>519.6</ele>
        <time>2012-10-10T12:05:51Z</time>
      </trkpt>
      <trkpt lat="44.32813" lon="5.12826">
        <ele>520.7</ele>
        <time>2012-10-10T12:05:56Z</time>
      </trkpt>
      <trkpt lat="44.32814" lon="5.12825">
        <ele>520.4</ele>
        <time>2012-10-10T12:06:01Z</time>
      </trkpt>
      <trkpt lat="44.32814" lon="5.12822">
        <ele>519.6</ele>
        <time>2012-10-10T12:06:06Z</time>
      </trkpt>
      <trkpt lat="44.32814" lon="5.12823">
        <ele>519.5</ele>
        <time>2012-10-10T12:06:11Z</time>
      </trkpt>
      <trkpt lat="44.32815" lon="5.12824">
        <ele>519.7</ele>
        <time>2012-10-10T12:06:16Z</time>
      </trkpt>
      <trkpt lat="44.32814" lon="5.12824">
        <ele>519.8</ele>
        <time>2012-10-10T12:06:21Z</time>
      </trkpt>
      <trkpt lat="44.32814" lon="5.12823">
        <ele>519.7</ele>
        <time>2012-10-10T12:06:26Z</time>
      </trkpt>
      <trkpt lat="44.32805" lon="5.12811">
        <ele>518.8</ele>
        <time>2012-10-10T12:06:31Z</time>
      </trkpt>
      <trkpt lat="44.32784" lon="5.1278">
        <ele>512.9</ele>
        <time>2012-10-10T12:06:36Z</time>
      </trkpt>
      <trkpt lat="44.3275" lon="5.12772">
        <ele>512.5</ele>
        <time>2012-10-10T12:06:41Z</time>
      </trkpt>
      <trkpt lat="44.32725" lon="5.12771">
        <ele>510.2</ele>
        <time>2012-10-10T12:06:46Z</time>
      </trkpt>
      <trkpt lat="44.32688" lon="5.12766">
        <ele>504.8</ele>
        <time>2012-10-10T12:06:51Z</time>
      </trkpt>
      <trkpt lat="44.32645" lon="5.12766">
        <ele>500.1</ele>
        <time>2012-10-10T12:06:56Z</time>
      </trkpt>
      <trkpt lat="44.32606" lon="5.12768">
        <ele>496.1</ele>
        <time>2012-10-10T12:07:01Z</time>
      </trkpt>
      <trkpt lat="44.32563" lon="5.12767">
        <ele>490.6</ele>
        <time>2012-10-10T12:07:06Z</time>
      </trkpt>
      <trkpt lat="44.32514" lon="5.12755">
        <ele>481.7</ele>
        <time>2012-10-10T12:07:11Z</time>
      </trkpt>
      <trkpt lat="44.3245" lon="5.12738">
        <ele>470.2</ele>
        <time>2012-10-10T12:07:16Z</time>
      </trkpt>
      <trkpt lat="44.32404" lon="5.12728">
        <ele>460.4</ele>
        <time>2012-10-10T12:07:21Z</time>
      </trkpt>
      <trkpt lat="44.32357" lon="5.12724">
        <ele>452.3</ele>
        <time>2012-10-10T12:07:26Z</time>
      </trkpt>
      <trkpt lat="44.3234" lon="5.12712">
        <ele>447.5</ele>
        <time>2012-10-10T12:07:31Z</time>
      </trkpt>
      <trkpt lat="44.32326" lon="5.12677">
        <ele>441.3</ele>
        <time>2012-10-10T12:07:36Z</time>
      </trkpt>
      <trkpt lat="44.32293" lon="5.12656">
        <ele>430.1</ele>
        <time>2012-10-10T12:07:41Z</time>
      </trkpt>
      <trkpt lat="44.32284" lon="5.12624">
        <ele>424.5</ele>
        <time>2012-10-10T12:07:46Z</time>
      </trkpt>
      <trkpt lat="44.32264" lon="5.12562">
        <ele>416.7</ele>
        <time>2012-10-10T12:07:51Z</time>
      </trkpt>
      <trkpt lat="44.32255" lon="5.1254">
        <ele>414</ele>
        <time>2012-10-10T12:07:56Z</time>
      </trkpt>
      <trkpt lat="44.32248" lon="5.12554">
        <ele>412.5</ele>
        <time>2012-10-10T12:08:01Z</time>
      </trkpt>
      <trkpt lat="44.32246" lon="5.12579">
        <ele>411.9</ele>
        <time>2012-10-10T12:08:06Z</time>
      </trkpt>
      <trkpt lat="44.32252" lon="5.12595">
        <ele>413.1</ele>
        <time>2012-10-10T12:08:11Z</time>
      </trkpt>
      <trkpt lat="44.32253" lon="5.12617">
        <ele>413.2</ele>
        <time>2012-10-10T12:08:16Z</time>
      </trkpt>
      <trkpt lat="44.32257" lon="5.12641">
        <ele>415</ele>
        <time>2012-10-10T12:08:21Z</time>
      </trkpt>
      <trkpt lat="44.32263" lon="5.12674">
        <ele>417.7</ele>
        <time>2012-10-10T12:08:26Z</time>
      </trkpt>
      <trkpt lat="44.32274" lon="5.12694">
        <ele>422.8</ele>
        <time>2012-10-10T12:08:31Z</time>
      </trkpt>
      <trkpt lat="44.32276" lon="5.12717">
        <ele>424.3</ele>
        <time>2012-10-10T12:08:36Z</time>
      </trkpt>
      <trkpt lat="44.3227" lon="5.12745">
        <ele>423.9</ele>
        <time>2012-10-10T12:08:41Z</time>
      </trkpt>
      <trkpt lat="44.32259" lon="5.12763">
        <ele>422.2</ele>
        <time>2012-10-10T12:08:46Z</time>
      </trkpt>
      <trkpt lat="44.32245" lon="5.12783">
        <ele>421.9</ele>
        <time>2012-10-10T12:08:51Z</time>
      </trkpt>
      <trkpt lat="44.32234" lon="5.12801">
        <ele>424.1</ele>
        <time>2012-10-10T12:08:56Z</time>
      </trkpt>
      <trkpt lat="44.32223" lon="5.12812">
        <ele>424.5</ele>
        <time>2012-10-10T12:09:01Z</time>
      </trkpt>
      <trkpt lat="44.32211" lon="5.12826">
        <ele>425.4</ele>
        <time>2012-10-10T12:09:06Z</time>
      </trkpt>
      <trkpt lat="44.32203" lon="5.12843">
        <ele>428.5</ele>
        <time>2012-10-10T12:09:11Z</time>
      </trkpt>
      <trkpt lat="44.32189" lon="5.12863">
        <ele>430.2</ele>
        <time>2012-10-10T12:09:16Z</time>
      </trkpt>
      <trkpt lat="44.32181" lon="5.12875">
        <ele>431.2</ele>
        <time>2012-10-10T12:09:21Z</time>
      </trkpt>
      <trkpt lat="44.32175" lon="5.12891">
        <ele>433.9</ele>
        <time>2012-10-10T12:09:26Z</time>
      </trkpt>
      <trkpt lat="44.3217" lon="5.12907">
        <ele>436.4</ele>
        <time>2012-10-10T12:09:31Z</time>
      </trkpt>
      <trkpt lat="44.32163" lon="5.12924">
        <ele>438.3</ele>
        <time>2012-10-10T12:09:36Z</time>
      </trkpt>
      <trkpt lat="44.32156" lon="5.12933">
        <ele>438.4</ele>
        <time>2012-10-10T12:09:41Z</time>
      </trkpt>
      <trkpt lat="44.32153" lon="5.12945">
        <ele>439.9</ele>
        <time>2012-10-10T12:09:46Z</time>
      </trkpt>
      <trkpt lat="44.32149" lon="5.12955">
        <ele>441</ele>
        <time>2012-10-10T12:09:51Z</time>
      </trkpt>
      <trkpt lat="44.32151" lon="5.12966">
        <ele>444.1</ele>
        <time>2012-10-10T12:09:56Z</time>
      </trkpt>
      <trkpt lat="44.32153" lon="5.12978">
        <ele>447.3</ele>
        <time>2012-10-10T12:10:01Z</time>
      </trkpt>
      <trkpt lat="44.32155" lon="5.12989">
        <ele>449.4</ele>
        <time>2012-10-10T12:10:06Z</time>
      </trkpt>
      <trkpt lat="44.32157" lon="5.13">
        <ele>451.3</ele>
        <time>2012-10-10T12:10:11Z</time>
      </trkpt>
      <trkpt lat="44.32158" lon="5.13011">
        <ele>451.8</ele>
        <time>2012-10-10T12:10:16Z</time>
      </trkpt>
      <trkpt lat="44.32165" lon="5.13023">
        <ele>453.8</ele>
        <time>2012-10-10T12:10:21Z</time>
      </trkpt>
      <trkpt lat="44.32175" lon="5.13032">
        <ele>455.5</ele>
        <time>2012-10-10T12:10:26Z</time>
      </trkpt>
      <trkpt lat="44.3218" lon="5.13042">
        <ele>454.8</ele>
        <time>2012-10-10T12:10:31Z</time>
      </trkpt>
      <trkpt lat="44.32189" lon="5.13053">
        <ele>454.5</ele>
        <time>2012-10-10T12:10:36Z</time>
      </trkpt>
      <trkpt lat="44.32201" lon="5.13072">
        <ele>452.7</ele>
        <time>2012-10-10T12:10:41Z</time>
      </trkpt>
      <trkpt lat="44.32211" lon="5.13086">
        <ele>451.6</ele>
        <time>2012-10-10T12:10:46Z</time>
      </trkpt>
      <trkpt lat="44.32221" lon="5.13102">
        <ele>449.9</ele>
        <time>2012-10-10T12:10:51Z</time>
      </trkpt>
      <trkpt lat="44.32234" lon="5.13126">
        <ele>447.2</ele>
        <time>2012-10-10T12:10:56Z</time>
      </trkpt>
      <trkpt lat="44.32252" lon="5.13159">
        <ele>444.7</ele>
        <time>2012-10-10T12:11:01Z</time>
      </trkpt>
      <trkpt lat="44.32266" lon="5.13178">
        <ele>444.9</ele>
        <time>2012-10-10T12:11:06Z</time>
      </trkpt>
      <trkpt lat="44.32277" lon="5.132">
        <ele>444.2</ele>
        <time>2012-10-10T12:11:11Z</time>
      </trkpt>
      <trkpt lat="44.32291" lon="5.13223">
        <ele>445.3</ele>
        <time>2012-10-10T12:11:16Z</time>
      </trkpt>
      <trkpt lat="44.32297" lon="5.13237">
        <ele>445.8</ele>
        <time>2012-10-10T12:11:21Z</time>
      </trkpt>
      <trkpt lat="44.323" lon="5.13267">
        <ele>444.5</ele>
        <time>2012-10-10T12:11:26Z</time>
      </trkpt>
      <trkpt lat="44.32294" lon="5.13302">
        <ele>439.8</ele>
        <time>2012-10-10T12:11:31Z</time>
      </trkpt>
      <trkpt lat="44.3226" lon="5.1331">
        <ele>430.9</ele>
        <time>2012-10-10T12:11:36Z</time>
      </trkpt>
      <trkpt lat="44.32233" lon="5.13292">
        <ele>426</ele>
        <time>2012-10-10T12:11:41Z</time>
      </trkpt>
      <trkpt lat="44.32221" lon="5.13301">
        <ele>422.1</ele>
        <time>2012-10-10T12:11:46Z</time>
      </trkpt>
      <trkpt lat="44.32236" lon="5.13364">
        <ele>420.7</ele>
        <time>2012-10-10T12:11:51Z</time>
      </trkpt>
      <trkpt lat="44.32247" lon="5.134">
        <ele>419.8</ele>
        <time>2012-10-10T12:11:56Z</time>
      </trkpt>
      <trkpt lat="44.32256" lon="5.13414">
        <ele>422.1</ele>
        <time>2012-10-10T12:12:01Z</time>
      </trkpt>
      <trkpt lat="44.32244" lon="5.13448">
        <ele>416.2</ele>
        <time>2012-10-10T12:12:06Z</time>
      </trkpt>
      <trkpt lat="44.32241" lon="5.13477">
        <ele>412.1</ele>
        <time>2012-10-10T12:12:11Z</time>
      </trkpt>
      <trkpt lat="44.32241" lon="5.13517">
        <ele>409.5</ele>
        <time>2012-10-10T12:12:16Z</time>
      </trkpt>
      <trkpt lat="44.32254" lon="5.13571">
        <ele>410.9</ele>
        <time>2012-10-10T12:12:21Z</time>
      </trkpt>
      <trkpt lat="44.32282" lon="5.1361">
        <ele>418.2</ele>
        <time>2012-10-10T12:12:26Z</time>
      </trkpt>
      <trkpt lat="44.32288" lon="5.13639">
        <ele>420.2</ele>
        <time>2012-10-10T12:12:31Z</time>
      </trkpt>
      <trkpt lat="44.32255" lon="5.13642">
        <ele>414.4</ele>
        <time>2012-10-10T12:12:36Z</time>
      </trkpt>
      <trkpt lat="44.32229" lon="5.13657">
        <ele>412.3</ele>
        <time>2012-10-10T12:12:41Z</time>
      </trkpt>
      <trkpt lat="44.32232" lon="5.13684">
        <ele>416.7</ele>
        <time>2012-10-10T12:12:46Z</time>
      </trkpt>
      <trkpt lat="44.32251" lon="5.13695">
        <ele>420</ele>
        <time>2012-10-10T12:12:51Z</time>
      </trkpt>
      <trkpt lat="44.32268" lon="5.13689">
        <ele>421.5</ele>
        <time>2012-10-10T12:12:56Z</time>
      </trkpt>
      <trkpt lat="44.32289" lon="5.13687">
        <ele>423.8</ele>
        <time>2012-10-10T12:13:01Z</time>
      </trkpt>
      <trkpt lat="44.32304" lon="5.13683">
        <ele>425.8</ele>
        <time>2012-10-10T12:13:06Z</time>
      </trkpt>
      <trkpt lat="44.3232" lon="5.13693">
        <ele>428.7</ele>
        <time>2012-10-10T12:13:11Z</time>
      </trkpt>
      <trkpt lat="44.32338" lon="5.13705">
        <ele>429.9</ele>
        <time>2012-10-10T12:13:16Z</time>
      </trkpt>
      <trkpt lat="44.32349" lon="5.13714">
        <ele>430.1</ele>
        <time>2012-10-10T12:13:21Z</time>
      </trkpt>
      <trkpt lat="44.32366" lon="5.13713">
        <ele>432.9</ele>
        <time>2012-10-10T12:13:26Z</time>
      </trkpt>
      <trkpt lat="44.32384" lon="5.13705">
        <ele>436.4</ele>
        <time>2012-10-10T12:13:31Z</time>
      </trkpt>
      <trkpt lat="44.32402" lon="5.13706">
        <ele>437.2</ele>
        <time>2012-10-10T12:13:36Z</time>
      </trkpt>
      <trkpt lat="44.32417" lon="5.13698">
        <ele>439.3</ele>
        <time>2012-10-10T12:13:41Z</time>
      </trkpt>
      <trkpt lat="44.3243" lon="5.13688">
        <ele>441.7</ele>
        <time>2012-10-10T12:13:46Z</time>
      </trkpt>
      <trkpt lat="44.32446" lon="5.13694">
        <ele>441.4</ele>
        <time>2012-10-10T12:13:51Z</time>
      </trkpt>
      <trkpt lat="44.32436" lon="5.13714">
        <ele>438.2</ele>
        <time>2012-10-10T12:13:56Z</time>
      </trkpt>
      <trkpt lat="44.32428" lon="5.13748">
        <ele>432.8</ele>
        <time>2012-10-10T12:14:01Z</time>
      </trkpt>
      <trkpt lat="44.32454" lon="5.13758">
        <ele>434.9</ele>
        <time>2012-10-10T12:14:06Z</time>
      </trkpt>
      <trkpt lat="44.32475" lon="5.1376">
        <ele>436.9</ele>
        <time>2012-10-10T12:14:11Z</time>
      </trkpt>
      <trkpt lat="44.32491" lon="5.13776">
        <ele>436.3</ele>
        <time>2012-10-10T12:14:16Z</time>
      </trkpt>
      <trkpt lat="44.32504" lon="5.13794">
        <ele>434.2</ele>
        <time>2012-10-10T12:14:21Z</time>
      </trkpt>
      <trkpt lat="44.32521" lon="5.13802">
        <ele>434.7</ele>
        <time>2012-10-10T12:14:26Z</time>
      </trkpt>
      <trkpt lat="44.32541" lon="5.13806">
        <ele>436.9</ele>
        <time>2012-10-10T12:14:31Z</time>
      </trkpt>
      <trkpt lat="44.32556" lon="5.13815">
        <ele>438.4</ele>
        <time>2012-10-10T12:14:36Z</time>
      </trkpt>
      <trkpt lat="44.32551" lon="5.13833">
        <ele>436.4</ele>
        <time>2012-10-10T12:14:41Z</time>
      </trkpt>
      <trkpt lat="44.32535" lon="5.13834">
        <ele>434.1</ele>
        <time>2012-10-10T12:14:46Z</time>
      </trkpt>
      <trkpt lat="44.32519" lon="5.13837">
        <ele>431.9</ele>
        <time>2012-10-10T12:14:51Z</time>
      </trkpt>
      <trkpt lat="44.32515" lon="5.13849">
        <ele>432.9</ele>
        <time>2012-10-10T12:14:56Z</time>
      </trkpt>
      <trkpt lat="44.32518" lon="5.13863">
        <ele>435.8</ele>
        <time>2012-10-10T12:15:01Z</time>
      </trkpt>
      <trkpt lat="44.32526" lon="5.13869">
        <ele>439</ele>
        <time>2012-10-10T12:15:06Z</time>
      </trkpt>
      <trkpt lat="44.32534" lon="5.13874">
        <ele>441.7</ele>
        <time>2012-10-10T12:15:11Z</time>
      </trkpt>
      <trkpt lat="44.32543" lon="5.1388">
        <ele>444.9</ele>
        <time>2012-10-10T12:15:16Z</time>
      </trkpt>
      <trkpt lat="44.32549" lon="5.13885">
        <ele>446.9</ele>
        <time>2012-10-10T12:15:21Z</time>
      </trkpt>
      <trkpt lat="44.32556" lon="5.13889">
        <ele>449</ele>
        <time>2012-10-10T12:15:26Z</time>
      </trkpt>
      <trkpt lat="44.32563" lon="5.13893">
        <ele>450.6</ele>
        <time>2012-10-10T12:15:31Z</time>
      </trkpt>
      <trkpt lat="44.32572" lon="5.13891">
        <ele>451.2</ele>
        <time>2012-10-10T12:15:36Z</time>
      </trkpt>
      <trkpt lat="44.32579" lon="5.13886">
        <ele>450.8</ele>
        <time>2012-10-10T12:15:41Z</time>
      </trkpt>
      <trkpt lat="44.32587" lon="5.13881">
        <ele>450.6</ele>
        <time>2012-10-10T12:15:46Z</time>
      </trkpt>
      <trkpt lat="44.32597" lon="5.13878">
        <ele>451.1</ele>
        <time>2012-10-10T12:15:51Z</time>
      </trkpt>
      <trkpt lat="44.32603" lon="5.13874">
        <ele>451</ele>
        <time>2012-10-10T12:15:56Z</time>
      </trkpt>
      <trkpt lat="44.32611" lon="5.13869">
        <ele>450.9</ele>
        <time>2012-10-10T12:16:01Z</time>
      </trkpt>
      <trkpt lat="44.32618" lon="5.13865">
        <ele>451.1</ele>
        <time>2012-10-10T12:16:06Z</time>
      </trkpt>
      <trkpt lat="44.32623" lon="5.13866">
        <ele>452.4</ele>
        <time>2012-10-10T12:16:11Z</time>
      </trkpt>
      <trkpt lat="44.3263" lon="5.13871">
        <ele>454.9</ele>
        <time>2012-10-10T12:16:16Z</time>
      </trkpt>
      <trkpt lat="44.32635" lon="5.13879">
        <ele>457.9</ele>
        <time>2012-10-10T12:16:21Z</time>
      </trkpt>
      <trkpt lat="44.32637" lon="5.1389">
        <ele>461</ele>
        <time>2012-10-10T12:16:26Z</time>
      </trkpt>
      <trkpt lat="44.3264" lon="5.13898">
        <ele>463.4</ele>
        <time>2012-10-10T12:16:31Z</time>
      </trkpt>
      <trkpt lat="44.32642" lon="5.1391">
        <ele>467.1</ele>
        <time>2012-10-10T12:16:36Z</time>
      </trkpt>
      <trkpt lat="44.32643" lon="5.13923">
        <ele>469.8</ele>
        <time>2012-10-10T12:16:41Z</time>
      </trkpt>
      <trkpt lat="44.32646" lon="5.13929">
        <ele>471.3</ele>
        <time>2012-10-10T12:16:46Z</time>
      </trkpt>
      <trkpt lat="44.32652" lon="5.1393">
        <ele>472.8</ele>
        <time>2012-10-10T12:16:51Z</time>
      </trkpt>
      <trkpt lat="44.32659" lon="5.13935">
        <ele>474.8</ele>
        <time>2012-10-10T12:16:56Z</time>
      </trkpt>
      <trkpt lat="44.32664" lon="5.13939">
        <ele>476.7</ele>
        <time>2012-10-10T12:17:01Z</time>
      </trkpt>
      <trkpt lat="44.32671" lon="5.13943">
        <ele>478.6</ele>
        <time>2012-10-10T12:17:06Z</time>
      </trkpt>
      <trkpt lat="44.32677" lon="5.13946">
        <ele>480.4</ele>
        <time>2012-10-10T12:17:11Z</time>
      </trkpt>
      <trkpt lat="44.32684" lon="5.13952">
        <ele>482.6</ele>
        <time>2012-10-10T12:17:16Z</time>
      </trkpt>
      <trkpt lat="44.32689" lon="5.13956">
        <ele>484.1</ele>
        <time>2012-10-10T12:17:21Z</time>
      </trkpt>
      <trkpt lat="44.32694" lon="5.1396">
        <ele>485.5</ele>
        <time>2012-10-10T12:17:26Z</time>
      </trkpt>
      <trkpt lat="44.327" lon="5.13962">
        <ele>487</ele>
        <time>2012-10-10T12:17:31Z</time>
      </trkpt>
      <trkpt lat="44.32706" lon="5.13964">
        <ele>488.3</ele>
        <time>2012-10-10T12:17:36Z</time>
      </trkpt>
      <trkpt lat="44.32711" lon="5.13969">
        <ele>489.9</ele>
        <time>2012-10-10T12:17:41Z</time>
      </trkpt>
      <trkpt lat="44.32716" lon="5.13973">
        <ele>491.7</ele>
        <time>2012-10-10T12:17:46Z</time>
      </trkpt>
      <trkpt lat="44.32723" lon="5.13972">
        <ele>493.1</ele>
        <time>2012-10-10T12:17:51Z</time>
      </trkpt>
      <trkpt lat="44.32727" lon="5.13965">
        <ele>492.6</ele>
        <time>2012-10-10T12:17:56Z</time>
      </trkpt>
      <trkpt lat="44.32737" lon="5.13961">
        <ele>493.4</ele>
        <time>2012-10-10T12:18:01Z</time>
      </trkpt>
      <trkpt lat="44.32749" lon="5.13954">
        <ele>493.9</ele>
        <time>2012-10-10T12:18:06Z</time>
      </trkpt>
      <trkpt lat="44.32757" lon="5.13952">
        <ele>494.3</ele>
        <time>2012-10-10T12:18:11Z</time>
      </trkpt>
      <trkpt lat="44.32764" lon="5.13953">
        <ele>495.5</ele>
        <time>2012-10-10T12:18:16Z</time>
      </trkpt>
      <trkpt lat="44.32763" lon="5.13962">
        <ele>497.5</ele>
        <time>2012-10-10T12:18:21Z</time>
      </trkpt>
      <trkpt lat="44.32753" lon="5.13976">
        <ele>499.1</ele>
        <time>2012-10-10T12:18:26Z</time>
      </trkpt>
      <trkpt lat="44.32747" lon="5.13986">
        <ele>500.3</ele>
        <time>2012-10-10T12:18:31Z</time>
      </trkpt>
      <trkpt lat="44.32743" lon="5.13999">
        <ele>502</ele>
        <time>2012-10-10T12:18:36Z</time>
      </trkpt>
      <trkpt lat="44.32734" lon="5.14013">
        <ele>502.1</ele>
        <time>2012-10-10T12:18:41Z</time>
      </trkpt>
      <trkpt lat="44.32725" lon="5.14024">
        <ele>501.1</ele>
        <time>2012-10-10T12:18:46Z</time>
      </trkpt>
      <trkpt lat="44.32711" lon="5.14045">
        <ele>498.4</ele>
        <time>2012-10-10T12:18:51Z</time>
      </trkpt>
      <trkpt lat="44.32703" lon="5.14081">
        <ele>496.9</ele>
        <time>2012-10-10T12:18:56Z</time>
      </trkpt>
      <trkpt lat="44.327" lon="5.14117">
        <ele>498.5</ele>
        <time>2012-10-10T12:19:01Z</time>
      </trkpt>
      <trkpt lat="44.32693" lon="5.14152">
        <ele>499.2</ele>
        <time>2012-10-10T12:19:06Z</time>
      </trkpt>
      <trkpt lat="44.3267" lon="5.14172">
        <ele>494.4</ele>
        <time>2012-10-10T12:19:11Z</time>
      </trkpt>
      <trkpt lat="44.32675" lon="5.14206">
        <ele>499.6</ele>
        <time>2012-10-10T12:19:16Z</time>
      </trkpt>
      <trkpt lat="44.32687" lon="5.14221">
        <ele>498.9</ele>
        <time>2012-10-10T12:19:21Z</time>
      </trkpt>
      <trkpt lat="44.32712" lon="5.14258">
        <ele>492.2</ele>
        <time>2012-10-10T12:19:26Z</time>
      </trkpt>
      <trkpt lat="44.32739" lon="5.14316">
        <ele>486.7</ele>
        <time>2012-10-10T12:19:31Z</time>
      </trkpt>
      <trkpt lat="44.32757" lon="5.14349">
        <ele>486.9</ele>
        <time>2012-10-10T12:19:36Z</time>
      </trkpt>
      <trkpt lat="44.32754" lon="5.14363">
        <ele>485.7</ele>
        <time>2012-10-10T12:19:41Z</time>
      </trkpt>
      <trkpt lat="44.3273" lon="5.14383">
        <ele>483.3</ele>
        <time>2012-10-10T12:19:46Z</time>
      </trkpt>
      <trkpt lat="44.3271" lon="5.14416">
        <ele>484.4</ele>
        <time>2012-10-10T12:19:51Z</time>
      </trkpt>
      <trkpt lat="44.32702" lon="5.14437">
        <ele>486</ele>
        <time>2012-10-10T12:19:56Z</time>
      </trkpt>
      <trkpt lat="44.32693" lon="5.14466">
        <ele>487.6</ele>
        <time>2012-10-10T12:20:01Z</time>
      </trkpt>
      <trkpt lat="44.32694" lon="5.14499">
        <ele>489.8</ele>
        <time>2012-10-10T12:20:06Z</time>
      </trkpt>
      <trkpt lat="44.32703" lon="5.14516">
        <ele>490.4</ele>
        <time>2012-10-10T12:20:11Z</time>
      </trkpt>
      <trkpt lat="44.32713" lon="5.14536">
        <ele>490.6</ele>
        <time>2012-10-10T12:20:16Z</time>
      </trkpt>
      <trkpt lat="44.32719" lon="5.14565">
        <ele>487.1</ele>
        <time>2012-10-10T12:20:21Z</time>
      </trkpt>
      <trkpt lat="44.32727" lon="5.14591">
        <ele>485</ele>
        <time>2012-10-10T12:20:26Z</time>
      </trkpt>
      <trkpt lat="44.32741" lon="5.14608">
        <ele>486</ele>
        <time>2012-10-10T12:20:31Z</time>
      </trkpt>
      <trkpt lat="44.32758" lon="5.14616">
        <ele>489.5</ele>
        <time>2012-10-10T12:20:36Z</time>
      </trkpt>
      <trkpt lat="44.3277" lon="5.14606">
        <ele>493.6</ele>
        <time>2012-10-10T12:20:41Z</time>
      </trkpt>
      <trkpt lat="44.32785" lon="5.14609">
        <ele>497.3</ele>
        <time>2012-10-10T12:20:46Z</time>
      </trkpt>
      <trkpt lat="44.32784" lon="5.14634">
        <ele>495.4</ele>
        <time>2012-10-10T12:20:51Z</time>
      </trkpt>
      <trkpt lat="44.3277" lon="5.14664">
        <ele>489.3</ele>
        <time>2012-10-10T12:20:56Z</time>
      </trkpt>
      <trkpt lat="44.32772" lon="5.14697">
        <ele>490.2</ele>
        <time>2012-10-10T12:21:01Z</time>
      </trkpt>
      <trkpt lat="44.32791" lon="5.14711">
        <ele>495.6</ele>
        <time>2012-10-10T12:21:06Z</time>
      </trkpt>
      <trkpt lat="44.32808" lon="5.1473">
        <ele>501.6</ele>
        <time>2012-10-10T12:21:11Z</time>
      </trkpt>
      <trkpt lat="44.3278" lon="5.14729">
        <ele>495.9</ele>
        <time>2012-10-10T12:21:16Z</time>
      </trkpt>
      <trkpt lat="44.32759" lon="5.1474">
        <ele>495.4</ele>
        <time>2012-10-10T12:21:21Z</time>
      </trkpt>
      <trkpt lat="44.32739" lon="5.14757">
        <ele>495.4</ele>
        <time>2012-10-10T12:21:26Z</time>
      </trkpt>
      <trkpt lat="44.32724" lon="5.14764">
        <ele>494.2</ele>
        <time>2012-10-10T12:21:31Z</time>
      </trkpt>
      <trkpt lat="44.32711" lon="5.14764">
        <ele>492.3</ele>
        <time>2012-10-10T12:21:36Z</time>
      </trkpt>
      <trkpt lat="44.32698" lon="5.14778">
        <ele>493.8</ele>
        <time>2012-10-10T12:21:41Z</time>
      </trkpt>
      <trkpt lat="44.32686" lon="5.14794">
        <ele>495.8</ele>
        <time>2012-10-10T12:21:46Z</time>
      </trkpt>
      <trkpt lat="44.32671" lon="5.14817">
        <ele>496.4</ele>
        <time>2012-10-10T12:21:51Z</time>
      </trkpt>
      <trkpt lat="44.32666" lon="5.14839">
        <ele>497</ele>
        <time>2012-10-10T12:21:56Z</time>
      </trkpt>
      <trkpt lat="44.32662" lon="5.14866">
        <ele>496.8</ele>
        <time>2012-10-10T12:22:01Z</time>
      </trkpt>
      <trkpt lat="44.32669" lon="5.14896">
        <ele>497.5</ele>
        <time>2012-10-10T12:22:06Z</time>
      </trkpt>
      <trkpt lat="44.32676" lon="5.14914">
        <ele>497.7</ele>
        <time>2012-10-10T12:22:11Z</time>
      </trkpt>
      <trkpt lat="44.32685" lon="5.14945">
        <ele>495.6</ele>
        <time>2012-10-10T12:22:16Z</time>
      </trkpt>
      <trkpt lat="44.32697" lon="5.1496">
        <ele>497</ele>
        <time>2012-10-10T12:22:21Z</time>
      </trkpt>
      <trkpt lat="44.32707" lon="5.14971">
        <ele>498.3</ele>
        <time>2012-10-10T12:22:26Z</time>
      </trkpt>
      <trkpt lat="44.32721" lon="5.14979">
        <ele>501</ele>
        <time>2012-10-10T12:22:31Z</time>
      </trkpt>
      <trkpt lat="44.32733" lon="5.14993">
        <ele>499.8</ele>
        <time>2012-10-10T12:22:36Z</time>
      </trkpt>
      <trkpt lat="44.32744" lon="5.15006">
        <ele>498.3</ele>
        <time>2012-10-10T12:22:41Z</time>
      </trkpt>
      <trkpt lat="44.32756" lon="5.15014">
        <ele>497.6</ele>
        <time>2012-10-10T12:22:46Z</time>
      </trkpt>
      <trkpt lat="44.32772" lon="5.15011">
        <ele>501.4</ele>
        <time>2012-10-10T12:22:51Z</time>
      </trkpt>
      <trkpt lat="44.32794" lon="5.15026">
        <ele>500.6</ele>
        <time>2012-10-10T12:22:56Z</time>
      </trkpt>
      <trkpt lat="44.32806" lon="5.15042">
        <ele>500.8</ele>
        <time>2012-10-10T12:23:01Z</time>
      </trkpt>
      <trkpt lat="44.32814" lon="5.15052">
        <ele>502.6</ele>
        <time>2012-10-10T12:23:06Z</time>
      </trkpt>
      <trkpt lat="44.32817" lon="5.15058">
        <ele>503.4</ele>
        <time>2012-10-10T12:23:11Z</time>
      </trkpt>
      <trkpt lat="44.32817" lon="5.15066">
        <ele>503.3</ele>
        <time>2012-10-10T12:23:16Z</time>
      </trkpt>
      <trkpt lat="44.32817" lon="5.15069">
        <ele>503.3</ele>
        <time>2012-10-10T12:23:21Z</time>
      </trkpt>
      <trkpt lat="44.32817" lon="5.15071">
        <ele>503.2</ele>
        <time>2012-10-10T12:23:26Z</time>
      </trkpt>
      <trkpt lat="44.32818" lon="5.15076">
        <ele>503.2</ele>
        <time>2012-10-10T12:23:31Z</time>
      </trkpt>
      <trkpt lat="44.32817" lon="5.15076">
        <ele>502.8</ele>
        <time>2012-10-10T12:23:36Z</time>
      </trkpt>
      <trkpt lat="44.32818" lon="5.15076">
        <ele>503.2</ele>
        <time>2012-10-10T12:23:41Z</time>
      </trkpt>
      <trkpt lat="44.32818" lon="5.15076">
        <ele>503.5</ele>
        <time>2012-10-10T12:23:46Z</time>
      </trkpt>
      <trkpt lat="44.32817" lon="5.15076">
        <ele>502.6</ele>
        <time>2012-10-10T12:23:51Z</time>
      </trkpt>
      <trkpt lat="44.32818" lon="5.15075">
        <ele>503.5</ele>
        <time>2012-10-10T12:23:56Z</time>
      </trkpt>
      <trkpt lat="44.32819" lon="5.15077">
        <ele>504.1</ele>
        <time>2012-10-10T12:24:01Z</time>
      </trkpt>
      <trkpt lat="44.32819" lon="5.15077">
        <ele>503.9</ele>
        <time>2012-10-10T12:24:06Z</time>
      </trkpt>
      <trkpt lat="44.32819" lon="5.15077">
        <ele>504</ele>
        <time>2012-10-10T12:24:11Z</time>
      </trkpt>
      <trkpt lat="44.32822" lon="5.15084">
        <ele>505.6</ele>
        <time>2012-10-10T12:24:16Z</time>
      </trkpt>
      <trkpt lat="44.32827" lon="5.15093">
        <ele>507.7</ele>
        <time>2012-10-10T12:24:21Z</time>
      </trkpt>
      <trkpt lat="44.32831" lon="5.15101">
        <ele>509.6</ele>
        <time>2012-10-10T12:24:26Z</time>
      </trkpt>
      <trkpt lat="44.32838" lon="5.1511">
        <ele>512.7</ele>
        <time>2012-10-10T12:24:31Z</time>
      </trkpt>
      <trkpt lat="44.32847" lon="5.15119">
        <ele>516.1</ele>
        <time>2012-10-10T12:24:36Z</time>
      </trkpt>
      <trkpt lat="44.3285" lon="5.15139">
        <ele>513.2</ele>
        <time>2012-10-10T12:24:41Z</time>
      </trkpt>
      <trkpt lat="44.32857" lon="5.15147">
        <ele>514.8</ele>
        <time>2012-10-10T12:24:46Z</time>
      </trkpt>
      <trkpt lat="44.32869" lon="5.15153">
        <ele>519.1</ele>
        <time>2012-10-10T12:24:51Z</time>
      </trkpt>
      <trkpt lat="44.3288" lon="5.15158">
        <ele>522.6</ele>
        <time>2012-10-10T12:24:56Z</time>
      </trkpt>
      <trkpt lat="44.32889" lon="5.15162">
        <ele>525.6</ele>
        <time>2012-10-10T12:25:01Z</time>
      </trkpt>
      <trkpt lat="44.32898" lon="5.15165">
        <ele>528.3</ele>
        <time>2012-10-10T12:25:06Z</time>
      </trkpt>
      <trkpt lat="44.32906" lon="5.1517">
        <ele>529.6</ele>
        <time>2012-10-10T12:25:11Z</time>
      </trkpt>
      <trkpt lat="44.32915" lon="5.15176">
        <ele>530.8</ele>
        <time>2012-10-10T12:25:16Z</time>
      </trkpt>
      <trkpt lat="44.32923" lon="5.1518">
        <ele>531.6</ele>
        <time>2012-10-10T12:25:21Z</time>
      </trkpt>
      <trkpt lat="44.32931" lon="5.15189">
        <ele>530.1</ele>
        <time>2012-10-10T12:25:26Z</time>
      </trkpt>
      <trkpt lat="44.3294" lon="5.15195">
        <ele>530</ele>
        <time>2012-10-10T12:25:31Z</time>
      </trkpt>
      <trkpt lat="44.3295" lon="5.15196">
        <ele>531.4</ele>
        <time>2012-10-10T12:25:36Z</time>
      </trkpt>
      <trkpt lat="44.32965" lon="5.15208">
        <ele>530.8</ele>
        <time>2012-10-10T12:25:41Z</time>
      </trkpt>
      <trkpt lat="44.32967" lon="5.15226">
        <ele>527.7</ele>
        <time>2012-10-10T12:25:46Z</time>
      </trkpt>
      <trkpt lat="44.32978" lon="5.15233">
        <ele>530.2</ele>
        <time>2012-10-10T12:25:51Z</time>
      </trkpt>
      <trkpt lat="44.32996" lon="5.15237">
        <ele>535.7</ele>
        <time>2012-10-10T12:25:56Z</time>
      </trkpt>
      <trkpt lat="44.32991" lon="5.15244">
        <ele>533.3</ele>
        <time>2012-10-10T12:26:01Z</time>
      </trkpt>
      <trkpt lat="44.32977" lon="5.15258">
        <ele>529.2</ele>
        <time>2012-10-10T12:26:06Z</time>
      </trkpt>
      <trkpt lat="44.32971" lon="5.1527">
        <ele>527.9</ele>
        <time>2012-10-10T12:26:11Z</time>
      </trkpt>
      <trkpt lat="44.32976" lon="5.15289">
        <ele>531.1</ele>
        <time>2012-10-10T12:26:16Z</time>
      </trkpt>
      <trkpt lat="44.32983" lon="5.15305">
        <ele>534.4</ele>
        <time>2012-10-10T12:26:21Z</time>
      </trkpt>
      <trkpt lat="44.3299" lon="5.1532">
        <ele>536.3</ele>
        <time>2012-10-10T12:26:26Z</time>
      </trkpt>
      <trkpt lat="44.32997" lon="5.15335">
        <ele>538</ele>
        <time>2012-10-10T12:26:31Z</time>
      </trkpt>
      <trkpt lat="44.33006" lon="5.1535">
        <ele>540.8</ele>
        <time>2012-10-10T12:26:36Z</time>
      </trkpt>
      <trkpt lat="44.32998" lon="5.15364">
        <ele>538.5</ele>
        <time>2012-10-10T12:26:41Z</time>
      </trkpt>
      <trkpt lat="44.32985" lon="5.15358">
        <ele>536.6</ele>
        <time>2012-10-10T12:26:46Z</time>
      </trkpt>
      <trkpt lat="44.32969" lon="5.15353">
        <ele>534.3</ele>
        <time>2012-10-10T12:26:51Z</time>
      </trkpt>
      <trkpt lat="44.32956" lon="5.15356">
        <ele>535.2</ele>
        <time>2012-10-10T12:26:56Z</time>
      </trkpt>
      <trkpt lat="44.32945" lon="5.15364">
        <ele>538.1</ele>
        <time>2012-10-10T12:27:01Z</time>
      </trkpt>
      <trkpt lat="44.32937" lon="5.15376">
        <ele>542.4</ele>
        <time>2012-10-10T12:27:06Z</time>
      </trkpt>
      <trkpt lat="44.3293" lon="5.15385">
        <ele>545.8</ele>
        <time>2012-10-10T12:27:11Z</time>
      </trkpt>
      <trkpt lat="44.3292" lon="5.15396">
        <ele>549</ele>
        <time>2012-10-10T12:27:16Z</time>
      </trkpt>
      <trkpt lat="44.32915" lon="5.15406">
        <ele>551.6</ele>
        <time>2012-10-10T12:27:21Z</time>
      </trkpt>
      <trkpt lat="44.32911" lon="5.15419">
        <ele>554.5</ele>
        <time>2012-10-10T12:27:26Z</time>
      </trkpt>
      <trkpt lat="44.32911" lon="5.15434">
        <ele>556.2</ele>
        <time>2012-10-10T12:27:31Z</time>
      </trkpt>
      <trkpt lat="44.32912" lon="5.15446">
        <ele>557.5</ele>
        <time>2012-10-10T12:27:36Z</time>
      </trkpt>
      <trkpt lat="44.32913" lon="5.15462">
        <ele>558.4</ele>
        <time>2012-10-10T12:27:41Z</time>
      </trkpt>
      <trkpt lat="44.32917" lon="5.15475">
        <ele>559.8</ele>
        <time>2012-10-10T12:27:46Z</time>
      </trkpt>
      <trkpt lat="44.32924" lon="5.15487">
        <ele>560.7</ele>
        <time>2012-10-10T12:27:51Z</time>
      </trkpt>
      <trkpt lat="44.32932" lon="5.15504">
        <ele>562.1</ele>
        <time>2012-10-10T12:27:56Z</time>
      </trkpt>
      <trkpt lat="44.32944" lon="5.15522">
        <ele>563.6</ele>
        <time>2012-10-10T12:28:01Z</time>
      </trkpt>
      <trkpt lat="44.32963" lon="5.15542">
        <ele>565.6</ele>
        <time>2012-10-10T12:28:06Z</time>
      </trkpt>
      <trkpt lat="44.32975" lon="5.15558">
        <ele>565.6</ele>
        <time>2012-10-10T12:28:11Z</time>
      </trkpt>
      <trkpt lat="44.32994" lon="5.15586">
        <ele>566</ele>
        <time>2012-10-10T12:28:16Z</time>
      </trkpt>
      <trkpt lat="44.33008" lon="5.15621">
        <ele>563.2</ele>
        <time>2012-10-10T12:28:21Z</time>
      </trkpt>
      <trkpt lat="44.33025" lon="5.15665">
        <ele>561.9</ele>
        <time>2012-10-10T12:28:26Z</time>
      </trkpt>
      <trkpt lat="44.33018" lon="5.15722">
        <ele>556.1</ele>
        <time>2012-10-10T12:28:31Z</time>
      </trkpt>
      <trkpt lat="44.33021" lon="5.15759">
        <ele>558.3</ele>
        <time>2012-10-10T12:28:36Z</time>
      </trkpt>
      <trkpt lat="44.33001" lon="5.15787">
        <ele>557.4</ele>
        <time>2012-10-10T12:28:41Z</time>
      </trkpt>
      <trkpt lat="44.32995" lon="5.1581">
        <ele>559.2</ele>
        <time>2012-10-10T12:28:46Z</time>
      </trkpt>
      <trkpt lat="44.32997" lon="5.15841">
        <ele>559.5</ele>
        <time>2012-10-10T12:28:51Z</time>
      </trkpt>
      <trkpt lat="44.33" lon="5.15874">
        <ele>559.5</ele>
        <time>2012-10-10T12:28:56Z</time>
      </trkpt>
      <trkpt lat="44.33003" lon="5.15907">
        <ele>557.3</ele>
        <time>2012-10-10T12:29:01Z</time>
      </trkpt>
      <trkpt lat="44.33021" lon="5.1592">
        <ele>556.1</ele>
        <time>2012-10-10T12:29:06Z</time>
      </trkpt>
      <trkpt lat="44.33053" lon="5.15912">
        <ele>556.5</ele>
        <time>2012-10-10T12:29:11Z</time>
      </trkpt>
      <trkpt lat="44.33099" lon="5.15912">
        <ele>552</ele>
        <time>2012-10-10T12:29:16Z</time>
      </trkpt>
      <trkpt lat="44.33136" lon="5.15912">
        <ele>554.2</ele>
        <time>2012-10-10T12:29:21Z</time>
      </trkpt>
      <trkpt lat="44.3312" lon="5.15952">
        <ele>547.9</ele>
        <time>2012-10-10T12:29:26Z</time>
      </trkpt>
      <trkpt lat="44.33117" lon="5.16008">
        <ele>542.5</ele>
        <time>2012-10-10T12:29:31Z</time>
      </trkpt>
      <trkpt lat="44.33137" lon="5.16048">
        <ele>542.8</ele>
        <time>2012-10-10T12:29:36Z</time>
      </trkpt>
      <trkpt lat="44.33158" lon="5.16091">
        <ele>541.4</ele>
        <time>2012-10-10T12:29:41Z</time>
      </trkpt>
      <trkpt lat="44.33189" lon="5.16113">
        <ele>541.2</ele>
        <time>2012-10-10T12:29:46Z</time>
      </trkpt>
      <trkpt lat="44.33214" lon="5.16126">
        <ele>545.5</ele>
        <time>2012-10-10T12:29:51Z</time>
      </trkpt>
      <trkpt lat="44.33204" lon="5.16147">
        <ele>542.7</ele>
        <time>2012-10-10T12:29:56Z</time>
      </trkpt>
      <trkpt lat="44.33207" lon="5.16179">
        <ele>543.3</ele>
        <time>2012-10-10T12:30:01Z</time>
      </trkpt>
      <trkpt lat="44.33222" lon="5.16222">
        <ele>542</ele>
        <time>2012-10-10T12:30:06Z</time>
      </trkpt>
      <trkpt lat="44.33243" lon="5.16256">
        <ele>538.4</ele>
        <time>2012-10-10T12:30:11Z</time>
      </trkpt>
      <trkpt lat="44.33262" lon="5.1628">
        <ele>539.3</ele>
        <time>2012-10-10T12:30:16Z</time>
      </trkpt>
      <trkpt lat="44.3324" lon="5.16294">
        <ele>536.8</ele>
        <time>2012-10-10T12:30:21Z</time>
      </trkpt>
      <trkpt lat="44.33229" lon="5.16324">
        <ele>538</ele>
        <time>2012-10-10T12:30:26Z</time>
      </trkpt>
      <trkpt lat="44.33225" lon="5.1636">
        <ele>540.6</ele>
        <time>2012-10-10T12:30:31Z</time>
      </trkpt>
      <trkpt lat="44.33221" lon="5.16397">
        <ele>541.8</ele>
        <time>2012-10-10T12:30:36Z</time>
      </trkpt>
      <trkpt lat="44.33211" lon="5.16438">
        <ele>540.7</ele>
        <time>2012-10-10T12:30:41Z</time>
      </trkpt>
      <trkpt lat="44.33208" lon="5.16459">
        <ele>539.7</ele>
        <time>2012-10-10T12:30:46Z</time>
      </trkpt>
      <trkpt lat="44.33208" lon="5.16465">
        <ele>539.4</ele>
        <time>2012-10-10T12:30:51Z</time>
      </trkpt>
      <trkpt lat="44.33208" lon="5.16464">
        <ele>539.4</ele>
        <time>2012-10-10T12:30:56Z</time>
      </trkpt>
      <trkpt lat="44.33208" lon="5.16463">
        <ele>539.4</ele>
        <time>2012-10-10T12:31:01Z</time>
      </trkpt>
      <trkpt lat="44.33208" lon="5.16464">
        <ele>539.4</ele>
        <time>2012-10-10T12:31:06Z</time>
      </trkpt>
      <trkpt lat="44.33208" lon="5.16464">
        <ele>539.4</ele>
        <time>2012-10-10T12:31:11Z</time>
      </trkpt>
      <trkpt lat="44.33208" lon="5.16464">
        <ele>539.4</ele>
        <time>2012-10-10T12:31:16Z</time>
      </trkpt>
      <trkpt lat="44.33207" lon="5.16463">
        <ele>539.4</ele>
        <time>2012-10-10T12:31:21Z</time>
      </trkpt>
      <trkpt lat="44.33207" lon="5.16463">
        <ele>539.4</ele>
        <time>2012-10-10T12:31:26Z</time>
      </trkpt>
      <trkpt lat="44.33206" lon="5.16463">
        <ele>539.3</ele>
        <time>2012-10-10T12:31:31Z</time>
      </trkpt>
      <trkpt lat="44.33206" lon="5.16462">
        <ele>539.4</ele>
        <time>2012-10-10T12:31:36Z</time>
      </trkpt>
      <trkpt lat="44.33207" lon="5.16461">
        <ele>539.4</ele>
        <time>2012-10-10T12:31:41Z</time>
      </trkpt>
      <trkpt lat="44.33207" lon="5.16461">
        <ele>539.5</ele>
        <time>2012-10-10T12:31:46Z</time>
      </trkpt>
      <trkpt lat="44.33208" lon="5.16462">
        <ele>539.5</ele>
        <time>2012-10-10T12:31:51Z</time>
      </trkpt>
      <trkpt lat="44.33208" lon="5.16462">
        <ele>539.5</ele>
        <time>2012-10-10T12:31:56Z</time>
      </trkpt>
      <trkpt lat="44.33208" lon="5.16461">
        <ele>539.6</ele>
        <time>2012-10-10T12:32:01Z</time>
      </trkpt>
      <trkpt lat="44.33208" lon="5.16462">
        <ele>539.5</ele>
        <time>2012-10-10T12:32:06Z</time>
      </trkpt>
      <trkpt lat="44.33208" lon="5.16462">
        <ele>539.5</ele>
        <time>2012-10-10T12:32:11Z</time>
      </trkpt>
      <trkpt lat="44.33207" lon="5.16463">
        <ele>539.4</ele>
        <time>2012-10-10T12:32:16Z</time>
      </trkpt>
      <trkpt lat="44.33207" lon="5.16463">
        <ele>539.3</ele>
        <time>2012-10-10T12:32:21Z</time>
      </trkpt>
      <trkpt lat="44.33207" lon="5.16464">
        <ele>539.3</ele>
        <time>2012-10-10T12:32:26Z</time>
      </trkpt>
      <trkpt lat="44.33207" lon="5.16464">
        <ele>539.4</ele>
        <time>2012-10-10T12:32:31Z</time>
      </trkpt>
      <trkpt lat="44.33208" lon="5.16464">
        <ele>539.4</ele>
        <time>2012-10-10T12:32:36Z</time>
      </trkpt>
      <trkpt lat="44.33208" lon="5.16465">
        <ele>539.4</ele>
        <time>2012-10-10T12:32:41Z</time>
      </trkpt>
      <trkpt lat="44.33209" lon="5.16467">
        <ele>539.3</ele>
        <time>2012-10-10T12:32:46Z</time>
      </trkpt>
      <trkpt lat="44.33211" lon="5.16497">
        <ele>536.4</ele>
        <time>2012-10-10T12:32:51Z</time>
      </trkpt>
      <trkpt lat="44.33219" lon="5.16563">
        <ele>526.2</ele>
        <time>2012-10-10T12:32:56Z</time>
      </trkpt>
      <trkpt lat="44.33228" lon="5.16609">
        <ele>521.3</ele>
        <time>2012-10-10T12:33:01Z</time>
      </trkpt>
      <trkpt lat="44.33207" lon="5.16657">
        <ele>521.2</ele>
        <time>2012-10-10T12:33:06Z</time>
      </trkpt>
      <trkpt lat="44.33182" lon="5.16703">
        <ele>521.3</ele>
        <time>2012-10-10T12:33:11Z</time>
      </trkpt>
      <trkpt lat="44.3316" lon="5.16723">
        <ele>523.2</ele>
        <time>2012-10-10T12:33:16Z</time>
      </trkpt>
      <trkpt lat="44.33158" lon="5.16733">
        <ele>525.2</ele>
        <time>2012-10-10T12:33:21Z</time>
      </trkpt>
      <trkpt lat="44.33158" lon="5.16743">
        <ele>527.7</ele>
        <time>2012-10-10T12:33:26Z</time>
      </trkpt>
      <trkpt lat="44.33157" lon="5.16753">
        <ele>529.9</ele>
        <time>2012-10-10T12:33:31Z</time>
      </trkpt>
      <trkpt lat="44.33158" lon="5.1676">
        <ele>531.3</ele>
        <time>2012-10-10T12:33:36Z</time>
      </trkpt>
      <trkpt lat="44.33158" lon="5.16772">
        <ele>533.5</ele>
        <time>2012-10-10T12:33:41Z</time>
      </trkpt>
      <trkpt lat="44.33161" lon="5.16784">
        <ele>535.9</ele>
        <time>2012-10-10T12:33:46Z</time>
      </trkpt>
      <trkpt lat="44.33163" lon="5.16794">
        <ele>537.8</ele>
        <time>2012-10-10T12:33:51Z</time>
      </trkpt>
      <trkpt lat="44.33165" lon="5.16806">
        <ele>539.9</ele>
        <time>2012-10-10T12:33:56Z</time>
      </trkpt>
      <trkpt lat="44.33164" lon="5.16814">
        <ele>540.3</ele>
        <time>2012-10-10T12:34:01Z</time>
      </trkpt>
      <trkpt lat="44.33168" lon="5.16825">
        <ele>541.3</ele>
        <time>2012-10-10T12:34:06Z</time>
      </trkpt>
      <trkpt lat="44.33166" lon="5.16833">
        <ele>541.8</ele>
        <time>2012-10-10T12:34:11Z</time>
      </trkpt>
      <trkpt lat="44.33169" lon="5.16845">
        <ele>542</ele>
        <time>2012-10-10T12:34:16Z</time>
      </trkpt>
      <trkpt lat="44.3317" lon="5.16856">
        <ele>542.1</ele>
        <time>2012-10-10T12:34:21Z</time>
      </trkpt>
      <trkpt lat="44.33177" lon="5.16869">
        <ele>541.3</ele>
        <time>2012-10-10T12:34:26Z</time>
      </trkpt>
      <trkpt lat="44.33186" lon="5.16877">
        <ele>541.1</ele>
        <time>2012-10-10T12:34:31Z</time>
      </trkpt>
      <trkpt lat="44.33192" lon="5.16885">
        <ele>541</ele>
        <time>2012-10-10T12:34:36Z</time>
      </trkpt>
      <trkpt lat="44.33208" lon="5.16893">
        <ele>541.7</ele>
        <time>2012-10-10T12:34:41Z</time>
      </trkpt>
      <trkpt lat="44.33218" lon="5.16898">
        <ele>542.1</ele>
        <time>2012-10-10T12:34:46Z</time>
      </trkpt>
      <trkpt lat="44.33235" lon="5.16909">
        <ele>542.5</ele>
        <time>2012-10-10T12:34:51Z</time>
      </trkpt>
      <trkpt lat="44.33254" lon="5.16924">
        <ele>542.6</ele>
        <time>2012-10-10T12:34:56Z</time>
      </trkpt>
      <trkpt lat="44.33275" lon="5.16921">
        <ele>546.9</ele>
        <time>2012-10-10T12:35:01Z</time>
      </trkpt>
      <trkpt lat="44.33284" lon="5.1692">
        <ele>547.8</ele>
        <time>2012-10-10T12:35:06Z</time>
      </trkpt>
      <trkpt lat="44.33295" lon="5.1692">
        <ele>548.9</ele>
        <time>2012-10-10T12:35:11Z</time>
      </trkpt>
      <trkpt lat="44.33312" lon="5.16921">
        <ele>549.6</ele>
        <time>2012-10-10T12:35:16Z</time>
      </trkpt>
      <trkpt lat="44.3333" lon="5.16931">
        <ele>549.9</ele>
        <time>2012-10-10T12:35:21Z</time>
      </trkpt>
      <trkpt lat="44.33347" lon="5.16938">
        <ele>550.3</ele>
        <time>2012-10-10T12:35:26Z</time>
      </trkpt>
      <trkpt lat="44.33382" lon="5.16931">
        <ele>547.1</ele>
        <time>2012-10-10T12:35:31Z</time>
      </trkpt>
      <trkpt lat="44.33406" lon="5.16936">
        <ele>545</ele>
        <time>2012-10-10T12:35:36Z</time>
      </trkpt>
      <trkpt lat="44.33422" lon="5.16953">
        <ele>545.8</ele>
        <time>2012-10-10T12:35:41Z</time>
      </trkpt>
      <trkpt lat="44.33435" lon="5.16964">
        <ele>545.9</ele>
        <time>2012-10-10T12:35:46Z</time>
      </trkpt>
      <trkpt lat="44.3345" lon="5.16982">
        <ele>546.8</ele>
        <time>2012-10-10T12:35:51Z</time>
      </trkpt>
      <trkpt lat="44.33473" lon="5.17003">
        <ele>547.4</ele>
        <time>2012-10-10T12:35:56Z</time>
      </trkpt>
      <trkpt lat="44.335" lon="5.17024">
        <ele>548.2</ele>
        <time>2012-10-10T12:36:01Z</time>
      </trkpt>
      <trkpt lat="44.33541" lon="5.17027">
        <ele>543.4</ele>
        <time>2012-10-10T12:36:06Z</time>
      </trkpt>
      <trkpt lat="44.33575" lon="5.17032">
        <ele>540</ele>
        <time>2012-10-10T12:36:11Z</time>
      </trkpt>
      <trkpt lat="44.33603" lon="5.17011">
        <ele>532.1</ele>
        <time>2012-10-10T12:36:16Z</time>
      </trkpt>
      <trkpt lat="44.33613" lon="5.16983">
        <ele>525.1</ele>
        <time>2012-10-10T12:36:21Z</time>
      </trkpt>
      <trkpt lat="44.33635" lon="5.16989">
        <ele>524.9</ele>
        <time>2012-10-10T12:36:26Z</time>
      </trkpt>
      <trkpt lat="44.33673" lon="5.17002">
        <ele>523.5</ele>
        <time>2012-10-10T12:36:31Z</time>
      </trkpt>
      <trkpt lat="44.33713" lon="5.17016">
        <ele>519.9</ele>
        <time>2012-10-10T12:36:36Z</time>
      </trkpt>
      <trkpt lat="44.33757" lon="5.17028">
        <ele>511.7</ele>
        <time>2012-10-10T12:36:41Z</time>
      </trkpt>
      <trkpt lat="44.33772" lon="5.17042">
        <ele>508</ele>
        <time>2012-10-10T12:36:46Z</time>
      </trkpt>
      <trkpt lat="44.33786" lon="5.17064">
        <ele>505.6</ele>
        <time>2012-10-10T12:36:51Z</time>
      </trkpt>
      <trkpt lat="44.33807" lon="5.17073">
        <ele>500.8</ele>
        <time>2012-10-10T12:36:56Z</time>
      </trkpt>
      <trkpt lat="44.33821" lon="5.17088">
        <ele>497.3</ele>
        <time>2012-10-10T12:37:01Z</time>
      </trkpt>
      <trkpt lat="44.33825" lon="5.1708">
        <ele>494.6</ele>
        <time>2012-10-10T12:37:06Z</time>
      </trkpt>
      <trkpt lat="44.33807" lon="5.17046">
        <ele>495.9</ele>
        <time>2012-10-10T12:37:11Z</time>
      </trkpt>
      <trkpt lat="44.33796" lon="5.17013">
        <ele>495.2</ele>
        <time>2012-10-10T12:37:16Z</time>
      </trkpt>
      <trkpt lat="44.33793" lon="5.16984">
        <ele>490.2</ele>
        <time>2012-10-10T12:37:21Z</time>
      </trkpt>
      <trkpt lat="44.33793" lon="5.16975">
        <ele>487.8</ele>
        <time>2012-10-10T12:37:26Z</time>
      </trkpt>
      <trkpt lat="44.33794" lon="5.1697">
        <ele>485.7</ele>
        <time>2012-10-10T12:37:31Z</time>
      </trkpt>
      <trkpt lat="44.33798" lon="5.16971">
        <ele>484.8</ele>
        <time>2012-10-10T12:37:36Z</time>
      </trkpt>
      <trkpt lat="44.33802" lon="5.16975">
        <ele>484.4</ele>
        <time>2012-10-10T12:37:41Z</time>
      </trkpt>
      <trkpt lat="44.33808" lon="5.16977">
        <ele>482.4</ele>
        <time>2012-10-10T12:37:46Z</time>
      </trkpt>
      <trkpt lat="44.33817" lon="5.16976">
        <ele>479.4</ele>
        <time>2012-10-10T12:37:51Z</time>
      </trkpt>
      <trkpt lat="44.33829" lon="5.16986">
        <ele>477.1</ele>
        <time>2012-10-10T12:37:56Z</time>
      </trkpt>
      <trkpt lat="44.33844" lon="5.16998">
        <ele>473.6</ele>
        <time>2012-10-10T12:38:01Z</time>
      </trkpt>
      <trkpt lat="44.33858" lon="5.17011">
        <ele>469.6</ele>
        <time>2012-10-10T12:38:06Z</time>
      </trkpt>
      <trkpt lat="44.33861" lon="5.17025">
        <ele>469.8</ele>
        <time>2012-10-10T12:38:11Z</time>
      </trkpt>
      <trkpt lat="44.33872" lon="5.17039">
        <ele>466.7</ele>
        <time>2012-10-10T12:38:16Z</time>
      </trkpt>
      <trkpt lat="44.33885" lon="5.17055">
        <ele>462.1</ele>
        <time>2012-10-10T12:38:21Z</time>
      </trkpt>
      <trkpt lat="44.3389" lon="5.17073">
        <ele>461.5</ele>
        <time>2012-10-10T12:38:26Z</time>
      </trkpt>
      <trkpt lat="44.33899" lon="5.17086">
        <ele>459.4</ele>
        <time>2012-10-10T12:38:31Z</time>
      </trkpt>
      <trkpt lat="44.33908" lon="5.17096">
        <ele>456.1</ele>
        <time>2012-10-10T12:38:36Z</time>
      </trkpt>
      <trkpt lat="44.33906" lon="5.17104">
        <ele>457.2</ele>
        <time>2012-10-10T12:38:41Z</time>
      </trkpt>
      <trkpt lat="44.33906" lon="5.17106">
        <ele>457.1</ele>
        <time>2012-10-10T12:38:46Z</time>
      </trkpt>
      <trkpt lat="44.33907" lon="5.17106">
        <ele>456.7</ele>
        <time>2012-10-10T12:38:51Z</time>
      </trkpt>
      <trkpt lat="44.33908" lon="5.1711">
        <ele>456.6</ele>
        <time>2012-10-10T12:38:56Z</time>
      </trkpt>
      <trkpt lat="44.33907" lon="5.17111">
        <ele>456.8</ele>
        <time>2012-10-10T12:39:01Z</time>
      </trkpt>
      <trkpt lat="44.33908" lon="5.17111">
        <ele>456.6</ele>
        <time>2012-10-10T12:39:06Z</time>
      </trkpt>
      <trkpt lat="44.3391" lon="5.17111">
        <ele>455.8</ele>
        <time>2012-10-10T12:39:11Z</time>
      </trkpt>
      <trkpt lat="44.33909" lon="5.17114">
        <ele>456.3</ele>
        <time>2012-10-10T12:39:16Z</time>
      </trkpt>
      <trkpt lat="44.3391" lon="5.17117">
        <ele>455.7</ele>
        <time>2012-10-10T12:39:21Z</time>
      </trkpt>
      <trkpt lat="44.33914" lon="5.1712">
        <ele>454.4</ele>
        <time>2012-10-10T12:39:26Z</time>
      </trkpt>
      <trkpt lat="44.33916" lon="5.17126">
        <ele>453.9</ele>
        <time>2012-10-10T12:39:31Z</time>
      </trkpt>
      <trkpt lat="44.33915" lon="5.17128">
        <ele>454.1</ele>
        <time>2012-10-10T12:39:36Z</time>
      </trkpt>
      <trkpt lat="44.33918" lon="5.17129">
        <ele>453.5</ele>
        <time>2012-10-10T12:39:41Z</time>
      </trkpt>
      <trkpt lat="44.33927" lon="5.17129">
        <ele>452.6</ele>
        <time>2012-10-10T12:39:46Z</time>
      </trkpt>
      <trkpt lat="44.3393" lon="5.17132">
        <ele>452.2</ele>
        <time>2012-10-10T12:39:51Z</time>
      </trkpt>
      <trkpt lat="44.33934" lon="5.17134">
        <ele>451.6</ele>
        <time>2012-10-10T12:39:56Z</time>
      </trkpt>
      <trkpt lat="44.33938" lon="5.17135">
        <ele>451.2</ele>
        <time>2012-10-10T12:40:01Z</time>
      </trkpt>
      <trkpt lat="44.33943" lon="5.17138">
        <ele>450.3</ele>
        <time>2012-10-10T12:40:06Z</time>
      </trkpt>
      <trkpt lat="44.33947" lon="5.17142">
        <ele>450</ele>
        <time>2012-10-10T12:40:11Z</time>
      </trkpt>
      <trkpt lat="44.33951" lon="5.17148">
        <ele>450</ele>
        <time>2012-10-10T12:40:16Z</time>
      </trkpt>
      <trkpt lat="44.33955" lon="5.17154">
        <ele>450.1</ele>
        <time>2012-10-10T12:40:21Z</time>
      </trkpt>
      <trkpt lat="44.33957" lon="5.17155">
        <ele>450.1</ele>
        <time>2012-10-10T12:40:26Z</time>
      </trkpt>
      <trkpt lat="44.33957" lon="5.17155">
        <ele>450.1</ele>
        <time>2012-10-10T12:40:31Z</time>
      </trkpt>
      <trkpt lat="44.33957" lon="5.17154">
        <ele>450.2</ele>
        <time>2012-10-10T12:40:36Z</time>
      </trkpt>
      <trkpt lat="44.33956" lon="5.17158">
        <ele>450</ele>
        <time>2012-10-10T12:40:41Z</time>
      </trkpt>
      <trkpt lat="44.3396" lon="5.17163">
        <ele>450.2</ele>
        <time>2012-10-10T12:40:46Z</time>
      </trkpt>
      <trkpt lat="44.33967" lon="5.17173">
        <ele>450.6</ele>
        <time>2012-10-10T12:40:51Z</time>
      </trkpt>
      <trkpt lat="44.33972" lon="5.17186">
        <ele>451</ele>
        <time>2012-10-10T12:40:56Z</time>
      </trkpt>
      <trkpt lat="44.33976" lon="5.17195">
        <ele>451.9</ele>
        <time>2012-10-10T12:41:01Z</time>
      </trkpt>
      <trkpt lat="44.33979" lon="5.17199">
        <ele>452.7</ele>
        <time>2012-10-10T12:41:06Z</time>
      </trkpt>
      <trkpt lat="44.3398" lon="5.17202">
        <ele>453</ele>
        <time>2012-10-10T12:41:11Z</time>
      </trkpt>
      <trkpt lat="44.33981" lon="5.17206">
        <ele>453.4</ele>
        <time>2012-10-10T12:41:16Z</time>
      </trkpt>
      <trkpt lat="44.33984" lon="5.17208">
        <ele>454.1</ele>
        <time>2012-10-10T12:41:21Z</time>
      </trkpt>
      <trkpt lat="44.33986" lon="5.1721">
        <ele>454.7</ele>
        <time>2012-10-10T12:41:26Z</time>
      </trkpt>
      <trkpt lat="44.33989" lon="5.17215">
        <ele>455.6</ele>
        <time>2012-10-10T12:41:31Z</time>
      </trkpt>
      <trkpt lat="44.33989" lon="5.17219">
        <ele>455.7</ele>
        <time>2012-10-10T12:41:36Z</time>
      </trkpt>
      <trkpt lat="44.3399" lon="5.17224">
        <ele>456.2</ele>
        <time>2012-10-10T12:41:41Z</time>
      </trkpt>
      <trkpt lat="44.33992" lon="5.17228">
        <ele>456.8</ele>
        <time>2012-10-10T12:41:46Z</time>
      </trkpt>
      <trkpt lat="44.33993" lon="5.17233">
        <ele>456.9</ele>
        <time>2012-10-10T12:41:51Z</time>
      </trkpt>
      <trkpt lat="44.33994" lon="5.17238">
        <ele>457.5</ele>
        <time>2012-10-10T12:41:56Z</time>
      </trkpt>
      <trkpt lat="44.33998" lon="5.17239">
        <ele>458.6</ele>
        <time>2012-10-10T12:42:01Z</time>
      </trkpt>
      <trkpt lat="44.34002" lon="5.17239">
        <ele>459.3</ele>
        <time>2012-10-10T12:42:06Z</time>
      </trkpt>
      <trkpt lat="44.34002" lon="5.17239">
        <ele>459.3</ele>
        <time>2012-10-10T12:42:11Z</time>
      </trkpt>
      <trkpt lat="44.34002" lon="5.17239">
        <ele>459.4</ele>
        <time>2012-10-10T12:42:16Z</time>
      </trkpt>
      <trkpt lat="44.34002" lon="5.17238">
        <ele>459.5</ele>
        <time>2012-10-10T12:42:21Z</time>
      </trkpt>
      <trkpt lat="44.34002" lon="5.17239">
        <ele>459.5</ele>
        <time>2012-10-10T12:42:26Z</time>
      </trkpt>
      <trkpt lat="44.34002" lon="5.1724">
        <ele>459.4</ele>
        <time>2012-10-10T12:42:31Z</time>
      </trkpt>
      <trkpt lat="44.34001" lon="5.1724">
        <ele>459.3</ele>
        <time>2012-10-10T12:42:36Z</time>
      </trkpt>
      <trkpt lat="44.34002" lon="5.17239">
        <ele>459.3</ele>
        <time>2012-10-10T12:42:41Z</time>
      </trkpt>
      <trkpt lat="44.34001" lon="5.17238">
        <ele>459.2</ele>
        <time>2012-10-10T12:42:46Z</time>
      </trkpt>
      <trkpt lat="44.34001" lon="5.17238">
        <ele>459.2</ele>
        <time>2012-10-10T12:42:51Z</time>
      </trkpt>
      <trkpt lat="44.34001" lon="5.17238">
        <ele>459.2</ele>
        <time>2012-10-10T12:42:56Z</time>
      </trkpt>
      <trkpt lat="44.34001" lon="5.17237">
        <ele>459.2</ele>
        <time>2012-10-10T12:43:01Z</time>
      </trkpt>
      <trkpt lat="44.34001" lon="5.17237">
        <ele>459.1</ele>
        <time>2012-10-10T12:43:06Z</time>
      </trkpt>
      <trkpt lat="44.34001" lon="5.17238">
        <ele>459.1</ele>
        <time>2012-10-10T12:43:11Z</time>
      </trkpt>
      <trkpt lat="44.34001" lon="5.17238">
        <ele>459.1</ele>
        <time>2012-10-10T12:43:16Z</time>
      </trkpt>
      <trkpt lat="44.34001" lon="5.17239">
        <ele>459.2</ele>
        <time>2012-10-10T12:43:21Z</time>
      </trkpt>
      <trkpt lat="44.34001" lon="5.1724">
        <ele>459.1</ele>
        <time>2012-10-10T12:43:26Z</time>
      </trkpt>
      <trkpt lat="44.34001" lon="5.1724">
        <ele>459.1</ele>
        <time>2012-10-10T12:43:31Z</time>
      </trkpt>
      <trkpt lat="44.34001" lon="5.1724">
        <ele>459.1</ele>
        <time>2012-10-10T12:43:36Z</time>
      </trkpt>
      <trkpt lat="44.34001" lon="5.1724">
        <ele>459.1</ele>
        <time>2012-10-10T12:43:41Z</time>
      </trkpt>
      <trkpt lat="44.34001" lon="5.1724">
        <ele>459.1</ele>
        <time>2012-10-10T12:43:46Z</time>
      </trkpt>
      <trkpt lat="44.34" lon="5.17241">
        <ele>459</ele>
        <time>2012-10-10T12:43:51Z</time>
      </trkpt>
      <trkpt lat="44.34" lon="5.17241">
        <ele>459</ele>
        <time>2012-10-10T12:43:56Z</time>
      </trkpt>
      <trkpt lat="44.33999" lon="5.1724">
        <ele>458.7</ele>
        <time>2012-10-10T12:44:01Z</time>
      </trkpt>
      <trkpt lat="44.33998" lon="5.17239">
        <ele>458.6</ele>
        <time>2012-10-10T12:44:06Z</time>
      </trkpt>
      <trkpt lat="44.33999" lon="5.17239">
        <ele>458.6</ele>
        <time>2012-10-10T12:44:11Z</time>
      </trkpt>
      <trkpt lat="44.34" lon="5.1724">
        <ele>459</ele>
        <time>2012-10-10T12:44:16Z</time>
      </trkpt>
      <trkpt lat="44.34001" lon="5.1724">
        <ele>459.1</ele>
        <time>2012-10-10T12:44:21Z</time>
      </trkpt>
      <trkpt lat="44.34001" lon="5.1724">
        <ele>459.1</ele>
        <time>2012-10-10T12:44:26Z</time>
      </trkpt>
      <trkpt lat="44.34001" lon="5.1724">
        <ele>459.1</ele>
        <time>2012-10-10T12:44:31Z</time>
      </trkpt>
      <trkpt lat="44.34001" lon="5.1724">
        <ele>459.1</ele>
        <time>2012-10-10T12:44:36Z</time>
      </trkpt>
      <trkpt lat="44.34001" lon="5.1724">
        <ele>459.1</ele>
        <time>2012-10-10T12:44:41Z</time>
      </trkpt>
      <trkpt lat="44.34002" lon="5.17241">
        <ele>459.4</ele>
        <time>2012-10-10T12:44:46Z</time>
      </trkpt>
      <trkpt lat="44.34004" lon="5.17241">
        <ele>459.7</ele>
        <time>2012-10-10T12:44:51Z</time>
      </trkpt>
      <trkpt lat="44.34005" lon="5.17239">
        <ele>459.9</ele>
        <time>2012-10-10T12:44:56Z</time>
      </trkpt>
      <trkpt lat="44.34005" lon="5.17239">
        <ele>460</ele>
        <time>2012-10-10T12:45:01Z</time>
      </trkpt>
      <trkpt lat="44.34008" lon="5.17232">
        <ele>460.7</ele>
        <time>2012-10-10T12:45:06Z</time>
      </trkpt>
      <trkpt lat="44.34012" lon="5.17219">
        <ele>461.5</ele>
        <time>2012-10-10T12:45:11Z</time>
      </trkpt>
      <trkpt lat="44.34017" lon="5.17205">
        <ele>462.4</ele>
        <time>2012-10-10T12:45:16Z</time>
      </trkpt>
      <trkpt lat="44.34023" lon="5.17191">
        <ele>463.5</ele>
        <time>2012-10-10T12:45:21Z</time>
      </trkpt>
      <trkpt lat="44.34032" lon="5.17182">
        <ele>465.3</ele>
        <time>2012-10-10T12:45:26Z</time>
      </trkpt>
      <trkpt lat="44.34044" lon="5.17177">
        <ele>467.8</ele>
        <time>2012-10-10T12:45:31Z</time>
      </trkpt>
      <trkpt lat="44.34052" lon="5.17175">
        <ele>469.6</ele>
        <time>2012-10-10T12:45:36Z</time>
      </trkpt>
      <trkpt lat="44.34063" lon="5.17174">
        <ele>471.6</ele>
        <time>2012-10-10T12:45:41Z</time>
      </trkpt>
      <trkpt lat="44.34072" lon="5.17171">
        <ele>473.5</ele>
        <time>2012-10-10T12:45:46Z</time>
      </trkpt>
      <trkpt lat="44.34083" lon="5.17166">
        <ele>476.1</ele>
        <time>2012-10-10T12:45:51Z</time>
      </trkpt>
      <trkpt lat="44.34092" lon="5.17162">
        <ele>477.4</ele>
        <time>2012-10-10T12:45:56Z</time>
      </trkpt>
      <trkpt lat="44.341" lon="5.17156">
        <ele>479.4</ele>
        <time>2012-10-10T12:46:01Z</time>
      </trkpt>
      <trkpt lat="44.34111" lon="5.1715">
        <ele>481.5</ele>
        <time>2012-10-10T12:46:06Z</time>
      </trkpt>
      <trkpt lat="44.34118" lon="5.17146">
        <ele>482.9</ele>
        <time>2012-10-10T12:46:11Z</time>
      </trkpt>
      <trkpt lat="44.34128" lon="5.17142">
        <ele>484.4</ele>
        <time>2012-10-10T12:46:16Z</time>
      </trkpt>
      <trkpt lat="44.34138" lon="5.17141">
        <ele>485.5</ele>
        <time>2012-10-10T12:46:21Z</time>
      </trkpt>
      <trkpt lat="44.34147" lon="5.1714">
        <ele>485.4</ele>
        <time>2012-10-10T12:46:26Z</time>
      </trkpt>
      <trkpt lat="44.34158" lon="5.17141">
        <ele>484.9</ele>
        <time>2012-10-10T12:46:31Z</time>
      </trkpt>
      <trkpt lat="44.34169" lon="5.17139">
        <ele>484.7</ele>
        <time>2012-10-10T12:46:36Z</time>
      </trkpt>
      <trkpt lat="44.34167" lon="5.17126">
        <ele>488.2</ele>
        <time>2012-10-10T12:46:41Z</time>
      </trkpt>
      <trkpt lat="44.34158" lon="5.1712">
        <ele>490</ele>
        <time>2012-10-10T12:46:46Z</time>
      </trkpt>
      <trkpt lat="44.34146" lon="5.17113">
        <ele>492.2</ele>
        <time>2012-10-10T12:46:51Z</time>
      </trkpt>
      <trkpt lat="44.3413" lon="5.17108">
        <ele>493.1</ele>
        <time>2012-10-10T12:46:56Z</time>
      </trkpt>
      <trkpt lat="44.34119" lon="5.17102">
        <ele>493.4</ele>
        <time>2012-10-10T12:47:01Z</time>
      </trkpt>
      <trkpt lat="44.34108" lon="5.17094">
        <ele>493.4</ele>
        <time>2012-10-10T12:47:06Z</time>
      </trkpt>
      <trkpt lat="44.34108" lon="5.17077">
        <ele>495.8</ele>
        <time>2012-10-10T12:47:11Z</time>
      </trkpt>
      <trkpt lat="44.34113" lon="5.17063">
        <ele>498.5</ele>
        <time>2012-10-10T12:47:16Z</time>
      </trkpt>
      <trkpt lat="44.34115" lon="5.17048">
        <ele>500.6</ele>
        <time>2012-10-10T12:47:21Z</time>
      </trkpt>
      <trkpt lat="44.34116" lon="5.17033">
        <ele>502.1</ele>
        <time>2012-10-10T12:47:26Z</time>
      </trkpt>
      <trkpt lat="44.3412" lon="5.17014">
        <ele>504.1</ele>
        <time>2012-10-10T12:47:31Z</time>
      </trkpt>
      <trkpt lat="44.34123" lon="5.17">
        <ele>505.7</ele>
        <time>2012-10-10T12:47:36Z</time>
      </trkpt>
      <trkpt lat="44.34127" lon="5.16986">
        <ele>508</ele>
        <time>2012-10-10T12:47:41Z</time>
      </trkpt>
      <trkpt lat="44.34133" lon="5.16973">
        <ele>510.2</ele>
        <time>2012-10-10T12:47:46Z</time>
      </trkpt>
      <trkpt lat="44.34141" lon="5.16959">
        <ele>513.3</ele>
        <time>2012-10-10T12:47:51Z</time>
      </trkpt>
      <trkpt lat="44.34146" lon="5.16946">
        <ele>515.3</ele>
        <time>2012-10-10T12:47:56Z</time>
      </trkpt>
      <trkpt lat="44.34144" lon="5.16931">
        <ele>516.2</ele>
        <time>2012-10-10T12:48:01Z</time>
      </trkpt>
      <trkpt lat="44.34137" lon="5.16912">
        <ele>516.3</ele>
        <time>2012-10-10T12:48:06Z</time>
      </trkpt>
      <trkpt lat="44.34134" lon="5.16898">
        <ele>517.5</ele>
        <time>2012-10-10T12:48:11Z</time>
      </trkpt>
      <trkpt lat="44.34132" lon="5.16883">
        <ele>519</ele>
        <time>2012-10-10T12:48:16Z</time>
      </trkpt>
      <trkpt lat="44.34128" lon="5.16869">
        <ele>520.1</ele>
        <time>2012-10-10T12:48:21Z</time>
      </trkpt>
      <trkpt lat="44.34121" lon="5.16855">
        <ele>520.4</ele>
        <time>2012-10-10T12:48:26Z</time>
      </trkpt>
      <trkpt lat="44.34114" lon="5.16843">
        <ele>520.5</ele>
        <time>2012-10-10T12:48:31Z</time>
      </trkpt>
      <trkpt lat="44.34111" lon="5.16828">
        <ele>521.8</ele>
        <time>2012-10-10T12:48:36Z</time>
      </trkpt>
      <trkpt lat="44.34111" lon="5.16808">
        <ele>524.5</ele>
        <time>2012-10-10T12:48:41Z</time>
      </trkpt>
      <trkpt lat="44.34113" lon="5.16795">
        <ele>526.5</ele>
        <time>2012-10-10T12:48:46Z</time>
      </trkpt>
      <trkpt lat="44.34118" lon="5.16782">
        <ele>529.9</ele>
        <time>2012-10-10T12:48:51Z</time>
      </trkpt>
      <trkpt lat="44.34122" lon="5.16764">
        <ele>533.4</ele>
        <time>2012-10-10T12:48:56Z</time>
      </trkpt>
      <trkpt lat="44.34123" lon="5.16753">
        <ele>535.2</ele>
        <time>2012-10-10T12:49:01Z</time>
      </trkpt>
      <trkpt lat="44.34121" lon="5.16738">
        <ele>535.8</ele>
        <time>2012-10-10T12:49:06Z</time>
      </trkpt>
      <trkpt lat="44.34122" lon="5.16719">
        <ele>538.3</ele>
        <time>2012-10-10T12:49:11Z</time>
      </trkpt>
      <trkpt lat="44.3412" lon="5.16703">
        <ele>539.3</ele>
        <time>2012-10-10T12:49:16Z</time>
      </trkpt>
      <trkpt lat="44.34113" lon="5.16691">
        <ele>538.1</ele>
        <time>2012-10-10T12:49:21Z</time>
      </trkpt>
      <trkpt lat="44.34104" lon="5.16684">
        <ele>537.4</ele>
        <time>2012-10-10T12:49:26Z</time>
      </trkpt>
      <trkpt lat="44.34093" lon="5.16675">
        <ele>536.7</ele>
        <time>2012-10-10T12:49:31Z</time>
      </trkpt>
      <trkpt lat="44.34087" lon="5.16665">
        <ele>538.3</ele>
        <time>2012-10-10T12:49:36Z</time>
      </trkpt>
      <trkpt lat="44.34081" lon="5.16652">
        <ele>540.9</ele>
        <time>2012-10-10T12:49:41Z</time>
      </trkpt>
      <trkpt lat="44.34076" lon="5.1664">
        <ele>543.3</ele>
        <time>2012-10-10T12:49:46Z</time>
      </trkpt>
      <trkpt lat="44.34069" lon="5.16627">
        <ele>544.9</ele>
        <time>2012-10-10T12:49:51Z</time>
      </trkpt>
      <trkpt lat="44.34063" lon="5.16614">
        <ele>546.9</ele>
        <time>2012-10-10T12:49:56Z</time>
      </trkpt>
      <trkpt lat="44.34056" lon="5.16601">
        <ele>548.2</ele>
        <time>2012-10-10T12:50:01Z</time>
      </trkpt>
      <trkpt lat="44.34048" lon="5.16586">
        <ele>551.1</ele>
        <time>2012-10-10T12:50:06Z</time>
      </trkpt>
      <trkpt lat="44.34044" lon="5.16574">
        <ele>553.1</ele>
        <time>2012-10-10T12:50:11Z</time>
      </trkpt>
      <trkpt lat="44.3404" lon="5.16559">
        <ele>555.8</ele>
        <time>2012-10-10T12:50:16Z</time>
      </trkpt>
      <trkpt lat="44.34036" lon="5.16544">
        <ele>558.3</ele>
        <time>2012-10-10T12:50:21Z</time>
      </trkpt>
      <trkpt lat="44.34032" lon="5.16531">
        <ele>560.5</ele>
        <time>2012-10-10T12:50:26Z</time>
      </trkpt>
      <trkpt lat="44.34024" lon="5.1652">
        <ele>561.3</ele>
        <time>2012-10-10T12:50:31Z</time>
      </trkpt>
      <trkpt lat="44.34016" lon="5.16511">
        <ele>561.8</ele>
        <time>2012-10-10T12:50:36Z</time>
      </trkpt>
      <trkpt lat="44.34006" lon="5.165">
        <ele>562.3</ele>
        <time>2012-10-10T12:50:41Z</time>
      </trkpt>
      <trkpt lat="44.33998" lon="5.16495">
        <ele>563</ele>
        <time>2012-10-10T12:50:46Z</time>
      </trkpt>
      <trkpt lat="44.33988" lon="5.16492">
        <ele>565.2</ele>
        <time>2012-10-10T12:50:51Z</time>
      </trkpt>
      <trkpt lat="44.33981" lon="5.1648">
        <ele>569.3</ele>
        <time>2012-10-10T12:50:56Z</time>
      </trkpt>
      <trkpt lat="44.33985" lon="5.16475">
        <ele>570</ele>
        <time>2012-10-10T12:51:01Z</time>
      </trkpt>
      <trkpt lat="44.33995" lon="5.1648">
        <ele>567.3</ele>
        <time>2012-10-10T12:51:06Z</time>
      </trkpt>
      <trkpt lat="44.34002" lon="5.16484">
        <ele>565.9</ele>
        <time>2012-10-10T12:51:11Z</time>
      </trkpt>
      <trkpt lat="44.34011" lon="5.16485">
        <ele>567.4</ele>
        <time>2012-10-10T12:51:16Z</time>
      </trkpt>
      <trkpt lat="44.34023" lon="5.16489">
        <ele>568.4</ele>
        <time>2012-10-10T12:51:21Z</time>
      </trkpt>
      <trkpt lat="44.34034" lon="5.16489">
        <ele>571.2</ele>
        <time>2012-10-10T12:51:26Z</time>
      </trkpt>
      <trkpt lat="44.34048" lon="5.16495">
        <ele>574.4</ele>
        <time>2012-10-10T12:51:31Z</time>
      </trkpt>
      <trkpt lat="44.34057" lon="5.16503">
        <ele>575.9</ele>
        <time>2012-10-10T12:51:36Z</time>
      </trkpt>
      <trkpt lat="44.34063" lon="5.16515">
        <ele>575.9</ele>
        <time>2012-10-10T12:51:41Z</time>
      </trkpt>
      <trkpt lat="44.3407" lon="5.16529">
        <ele>576</ele>
        <time>2012-10-10T12:51:46Z</time>
      </trkpt>
      <trkpt lat="44.34078" lon="5.16541">
        <ele>576.1</ele>
        <time>2012-10-10T12:51:51Z</time>
      </trkpt>
      <trkpt lat="44.34088" lon="5.1655">
        <ele>577.7</ele>
        <time>2012-10-10T12:51:56Z</time>
      </trkpt>
      <trkpt lat="44.34099" lon="5.1656">
        <ele>580.2</ele>
        <time>2012-10-10T12:52:01Z</time>
      </trkpt>
      <trkpt lat="44.34111" lon="5.16572">
        <ele>581.5</ele>
        <time>2012-10-10T12:52:06Z</time>
      </trkpt>
      <trkpt lat="44.34121" lon="5.16576">
        <ele>583.2</ele>
        <time>2012-10-10T12:52:11Z</time>
      </trkpt>
      <trkpt lat="44.34134" lon="5.16575">
        <ele>586.9</ele>
        <time>2012-10-10T12:52:16Z</time>
      </trkpt>
      <trkpt lat="44.3415" lon="5.16576">
        <ele>589</ele>
        <time>2012-10-10T12:52:21Z</time>
      </trkpt>
      <trkpt lat="44.34165" lon="5.16577">
        <ele>590.5</ele>
        <time>2012-10-10T12:52:26Z</time>
      </trkpt>
      <trkpt lat="44.34176" lon="5.16579">
        <ele>591.8</ele>
        <time>2012-10-10T12:52:31Z</time>
      </trkpt>
      <trkpt lat="44.34193" lon="5.16584">
        <ele>593.5</ele>
        <time>2012-10-10T12:52:36Z</time>
      </trkpt>
      <trkpt lat="44.34208" lon="5.16597">
        <ele>593.9</ele>
        <time>2012-10-10T12:52:41Z</time>
      </trkpt>
      <trkpt lat="44.34218" lon="5.16608">
        <ele>593.8</ele>
        <time>2012-10-10T12:52:46Z</time>
      </trkpt>
      <trkpt lat="44.34231" lon="5.1662">
        <ele>593.6</ele>
        <time>2012-10-10T12:52:51Z</time>
      </trkpt>
      <trkpt lat="44.34247" lon="5.16629">
        <ele>594.4</ele>
        <time>2012-10-10T12:52:56Z</time>
      </trkpt>
      <trkpt lat="44.34261" lon="5.16631">
        <ele>595</ele>
        <time>2012-10-10T12:53:01Z</time>
      </trkpt>
      <trkpt lat="44.34282" lon="5.16634">
        <ele>595.3</ele>
        <time>2012-10-10T12:53:06Z</time>
      </trkpt>
      <trkpt lat="44.34305" lon="5.16628">
        <ele>597.1</ele>
        <time>2012-10-10T12:53:11Z</time>
      </trkpt>
      <trkpt lat="44.34324" lon="5.16625">
        <ele>598.2</ele>
        <time>2012-10-10T12:53:16Z</time>
      </trkpt>
      <trkpt lat="44.3434" lon="5.16624">
        <ele>599.3</ele>
        <time>2012-10-10T12:53:21Z</time>
      </trkpt>
      <trkpt lat="44.3436" lon="5.16629">
        <ele>599.3</ele>
        <time>2012-10-10T12:53:26Z</time>
      </trkpt>
      <trkpt lat="44.34379" lon="5.16633">
        <ele>599.9</ele>
        <time>2012-10-10T12:53:31Z</time>
      </trkpt>
      <trkpt lat="44.34391" lon="5.16636">
        <ele>600.5</ele>
        <time>2012-10-10T12:53:36Z</time>
      </trkpt>
      <trkpt lat="44.34404" lon="5.16642">
        <ele>600.5</ele>
        <time>2012-10-10T12:53:41Z</time>
      </trkpt>
      <trkpt lat="44.34421" lon="5.1665">
        <ele>600.9</ele>
        <time>2012-10-10T12:53:46Z</time>
      </trkpt>
      <trkpt lat="44.34438" lon="5.16656">
        <ele>601.8</ele>
        <time>2012-10-10T12:53:51Z</time>
      </trkpt>
      <trkpt lat="44.34457" lon="5.16658">
        <ele>604.3</ele>
        <time>2012-10-10T12:53:56Z</time>
      </trkpt>
      <trkpt lat="44.34477" lon="5.1666">
        <ele>607.1</ele>
        <time>2012-10-10T12:54:01Z</time>
      </trkpt>
      <trkpt lat="44.34496" lon="5.16661">
        <ele>608.8</ele>
        <time>2012-10-10T12:54:06Z</time>
      </trkpt>
      <trkpt lat="44.34508" lon="5.16664">
        <ele>608.9</ele>
        <time>2012-10-10T12:54:11Z</time>
      </trkpt>
      <trkpt lat="44.34524" lon="5.16666">
        <ele>610</ele>
        <time>2012-10-10T12:54:16Z</time>
      </trkpt>
      <trkpt lat="44.34539" lon="5.16664">
        <ele>611.3</ele>
        <time>2012-10-10T12:54:21Z</time>
      </trkpt>
      <trkpt lat="44.34549" lon="5.16661">
        <ele>612.8</ele>
        <time>2012-10-10T12:54:26Z</time>
      </trkpt>
      <trkpt lat="44.34562" lon="5.1666">
        <ele>613.5</ele>
        <time>2012-10-10T12:54:31Z</time>
      </trkpt>
      <trkpt lat="44.34576" lon="5.16652">
        <ele>616.4</ele>
        <time>2012-10-10T12:54:36Z</time>
      </trkpt>
      <trkpt lat="44.34583" lon="5.16644">
        <ele>619.4</ele>
        <time>2012-10-10T12:54:41Z</time>
      </trkpt>
      <trkpt lat="44.34591" lon="5.16639">
        <ele>622.2</ele>
        <time>2012-10-10T12:54:46Z</time>
      </trkpt>
      <trkpt lat="44.34601" lon="5.16632">
        <ele>625.4</ele>
        <time>2012-10-10T12:54:51Z</time>
      </trkpt>
      <trkpt lat="44.3461" lon="5.16638">
        <ele>625.1</ele>
        <time>2012-10-10T12:54:56Z</time>
      </trkpt>
      <trkpt lat="44.34614" lon="5.16649">
        <ele>622.6</ele>
        <time>2012-10-10T12:55:01Z</time>
      </trkpt>
      <trkpt lat="44.34615" lon="5.16658">
        <ele>620.3</ele>
        <time>2012-10-10T12:55:06Z</time>
      </trkpt>
      <trkpt lat="44.34628" lon="5.1667">
        <ele>620.1</ele>
        <time>2012-10-10T12:55:11Z</time>
      </trkpt>
      <trkpt lat="44.34643" lon="5.16673">
        <ele>624.4</ele>
        <time>2012-10-10T12:55:16Z</time>
      </trkpt>
      <trkpt lat="44.34654" lon="5.16686">
        <ele>624.5</ele>
        <time>2012-10-10T12:55:21Z</time>
      </trkpt>
      <trkpt lat="44.34668" lon="5.16706">
        <ele>623</ele>
        <time>2012-10-10T12:55:26Z</time>
      </trkpt>
      <trkpt lat="44.34694" lon="5.16751">
        <ele>612.8</ele>
        <time>2012-10-10T12:55:31Z</time>
      </trkpt>
      <trkpt lat="44.34712" lon="5.16775">
        <ele>605.5</ele>
        <time>2012-10-10T12:55:36Z</time>
      </trkpt>
      <trkpt lat="44.34737" lon="5.16798">
        <ele>598.8</ele>
        <time>2012-10-10T12:55:41Z</time>
      </trkpt>
      <trkpt lat="44.34762" lon="5.16819">
        <ele>589.7</ele>
        <time>2012-10-10T12:55:46Z</time>
      </trkpt>
      <trkpt lat="44.34787" lon="5.16812">
        <ele>587.8</ele>
        <time>2012-10-10T12:55:51Z</time>
      </trkpt>
      <trkpt lat="44.34823" lon="5.16805">
        <ele>583.9</ele>
        <time>2012-10-10T12:55:56Z</time>
      </trkpt>
      <trkpt lat="44.34854" lon="5.16799">
        <ele>585</ele>
        <time>2012-10-10T12:56:01Z</time>
      </trkpt>
      <trkpt lat="44.34887" lon="5.16811">
        <ele>582.5</ele>
        <time>2012-10-10T12:56:06Z</time>
      </trkpt>
      <trkpt lat="44.34908" lon="5.16825">
        <ele>582.3</ele>
        <time>2012-10-10T12:56:11Z</time>
      </trkpt>
      <trkpt lat="44.34933" lon="5.16844">
        <ele>578.2</ele>
        <time>2012-10-10T12:56:16Z</time>
      </trkpt>
      <trkpt lat="44.34963" lon="5.16853">
        <ele>573.4</ele>
        <time>2012-10-10T12:56:21Z</time>
      </trkpt>
      <trkpt lat="44.34967" lon="5.16857">
        <ele>571.5</ele>
        <time>2012-10-10T12:56:26Z</time>
      </trkpt>
      <trkpt lat="44.34965" lon="5.16859">
        <ele>570.4</ele>
        <time>2012-10-10T12:56:31Z</time>
      </trkpt>
      <trkpt lat="44.34962" lon="5.16863">
        <ele>569.2</ele>
        <time>2012-10-10T12:56:36Z</time>
      </trkpt>
      <trkpt lat="44.34963" lon="5.16863">
        <ele>569</ele>
        <time>2012-10-10T12:56:41Z</time>
      </trkpt>
      <trkpt lat="44.34965" lon="5.16866">
        <ele>568</ele>
        <time>2012-10-10T12:56:46Z</time>
      </trkpt>
      <trkpt lat="44.34965" lon="5.16872">
        <ele>565.9</ele>
        <time>2012-10-10T12:56:51Z</time>
      </trkpt>
      <trkpt lat="44.34965" lon="5.16873">
        <ele>565.8</ele>
        <time>2012-10-10T12:56:56Z</time>
      </trkpt>
      <trkpt lat="44.3497" lon="5.16875">
        <ele>565.4</ele>
        <time>2012-10-10T12:57:01Z</time>
      </trkpt>
      <trkpt lat="44.34985" lon="5.16884">
        <ele>568.6</ele>
        <time>2012-10-10T12:57:06Z</time>
      </trkpt>
      <trkpt lat="44.34995" lon="5.16897">
        <ele>568.8</ele>
        <time>2012-10-10T12:57:11Z</time>
      </trkpt>
      <trkpt lat="44.35007" lon="5.16922">
        <ele>562.8</ele>
        <time>2012-10-10T12:57:16Z</time>
      </trkpt>
      <trkpt lat="44.35021" lon="5.16941">
        <ele>557.3</ele>
        <time>2012-10-10T12:57:21Z</time>
      </trkpt>
      <trkpt lat="44.35045" lon="5.1695">
        <ele>554.7</ele>
        <time>2012-10-10T12:57:26Z</time>
      </trkpt>
      <trkpt lat="44.35074" lon="5.16951">
        <ele>550.7</ele>
        <time>2012-10-10T12:57:31Z</time>
      </trkpt>
      <trkpt lat="44.351" lon="5.16954">
        <ele>546.4</ele>
        <time>2012-10-10T12:57:36Z</time>
      </trkpt>
      <trkpt lat="44.35126" lon="5.1696">
        <ele>540.2</ele>
        <time>2012-10-10T12:57:41Z</time>
      </trkpt>
      <trkpt lat="44.35145" lon="5.16958">
        <ele>536.8</ele>
        <time>2012-10-10T12:57:46Z</time>
      </trkpt>
      <trkpt lat="44.35162" lon="5.16963">
        <ele>534.1</ele>
        <time>2012-10-10T12:57:51Z</time>
      </trkpt>
      <trkpt lat="44.35182" lon="5.16992">
        <ele>527.2</ele>
        <time>2012-10-10T12:57:56Z</time>
      </trkpt>
      <trkpt lat="44.35194" lon="5.17023">
        <ele>519.1</ele>
        <time>2012-10-10T12:58:01Z</time>
      </trkpt>
      <trkpt lat="44.35204" lon="5.17017">
        <ele>517.8</ele>
        <time>2012-10-10T12:58:06Z</time>
      </trkpt>
      <trkpt lat="44.35205" lon="5.17016">
        <ele>517.8</ele>
        <time>2012-10-10T12:58:11Z</time>
      </trkpt>
      <trkpt lat="44.35206" lon="5.17014">
        <ele>517.9</ele>
        <time>2012-10-10T12:58:16Z</time>
      </trkpt>
      <trkpt lat="44.35207" lon="5.17014">
        <ele>517.7</ele>
        <time>2012-10-10T12:58:21Z</time>
      </trkpt>
      <trkpt lat="44.35206" lon="5.17016">
        <ele>517.5</ele>
        <time>2012-10-10T12:58:26Z</time>
      </trkpt>
      <trkpt lat="44.35206" lon="5.17017">
        <ele>517.2</ele>
        <time>2012-10-10T12:58:31Z</time>
      </trkpt>
      <trkpt lat="44.35206" lon="5.17014">
        <ele>517.9</ele>
        <time>2012-10-10T12:58:36Z</time>
      </trkpt>
      <trkpt lat="44.35206" lon="5.17011">
        <ele>518.6</ele>
        <time>2012-10-10T12:58:41Z</time>
      </trkpt>
      <trkpt lat="44.35206" lon="5.1701">
        <ele>518.8</ele>
        <time>2012-10-10T12:58:46Z</time>
      </trkpt>
      <trkpt lat="44.35206" lon="5.17009">
        <ele>519</ele>
        <time>2012-10-10T12:58:51Z</time>
      </trkpt>
      <trkpt lat="44.35207" lon="5.1701">
        <ele>518.6</ele>
        <time>2012-10-10T12:58:56Z</time>
      </trkpt>
      <trkpt lat="44.35208" lon="5.1701">
        <ele>518.4</ele>
        <time>2012-10-10T12:59:01Z</time>
      </trkpt>
      <trkpt lat="44.35208" lon="5.1701">
        <ele>518.5</ele>
        <time>2012-10-10T12:59:06Z</time>
      </trkpt>
      <trkpt lat="44.35206" lon="5.1701">
        <ele>518.7</ele>
        <time>2012-10-10T12:59:11Z</time>
      </trkpt>
      <trkpt lat="44.35207" lon="5.17009">
        <ele>518.8</ele>
        <time>2012-10-10T12:59:16Z</time>
      </trkpt>
      <trkpt lat="44.35207" lon="5.17008">
        <ele>519</ele>
        <time>2012-10-10T12:59:21Z</time>
      </trkpt>
      <trkpt lat="44.35209" lon="5.17008">
        <ele>518.5</ele>
        <time>2012-10-10T12:59:26Z</time>
      </trkpt>
      <trkpt lat="44.35208" lon="5.17008">
        <ele>518.7</ele>
        <time>2012-10-10T12:59:31Z</time>
      </trkpt>
      <trkpt lat="44.35207" lon="5.17007">
        <ele>519.3</ele>
        <time>2012-10-10T12:59:36Z</time>
      </trkpt>
      <trkpt lat="44.35207" lon="5.17007">
        <ele>519.2</ele>
        <time>2012-10-10T12:59:41Z</time>
      </trkpt>
      <trkpt lat="44.35207" lon="5.17007">
        <ele>519.2</ele>
        <time>2012-10-10T12:59:46Z</time>
      </trkpt>
      <trkpt lat="44.35205" lon="5.17009">
        <ele>519.1</ele>
        <time>2012-10-10T12:59:51Z</time>
      </trkpt>
      <trkpt lat="44.35206" lon="5.17011">
        <ele>518.7</ele>
        <time>2012-10-10T12:59:56Z</time>
      </trkpt>
      <trkpt lat="44.35205" lon="5.17011">
        <ele>518.9</ele>
        <time>2012-10-10T13:00:01Z</time>
      </trkpt>
      <trkpt lat="44.35204" lon="5.17013">
        <ele>518.5</ele>
        <time>2012-10-10T13:00:06Z</time>
      </trkpt>
      <trkpt lat="44.35205" lon="5.17012">
        <ele>518.7</ele>
        <time>2012-10-10T13:00:11Z</time>
      </trkpt>
      <trkpt lat="44.35209" lon="5.17011">
        <ele>517.8</ele>
        <time>2012-10-10T13:00:16Z</time>
      </trkpt>
      <trkpt lat="44.35228" lon="5.17004">
        <ele>514</ele>
        <time>2012-10-10T13:00:21Z</time>
      </trkpt>
      <trkpt lat="44.35241" lon="5.16998">
        <ele>510.9</ele>
        <time>2012-10-10T13:00:26Z</time>
      </trkpt>
      <trkpt lat="44.35253" lon="5.16992">
        <ele>507.3</ele>
        <time>2012-10-10T13:00:31Z</time>
      </trkpt>
      <trkpt lat="44.35257" lon="5.16987">
        <ele>507.1</ele>
        <time>2012-10-10T13:00:36Z</time>
      </trkpt>
      <trkpt lat="44.3526" lon="5.16979">
        <ele>507.3</ele>
        <time>2012-10-10T13:00:41Z</time>
      </trkpt>
      <trkpt lat="44.35264" lon="5.16978">
        <ele>505.6</ele>
        <time>2012-10-10T13:00:46Z</time>
      </trkpt>
      <trkpt lat="44.35269" lon="5.16978">
        <ele>503.8</ele>
        <time>2012-10-10T13:00:51Z</time>
      </trkpt>
      <trkpt lat="44.35274" lon="5.16978">
        <ele>501.6</ele>
        <time>2012-10-10T13:00:56Z</time>
      </trkpt>
      <trkpt lat="44.35277" lon="5.16979">
        <ele>499.7</ele>
        <time>2012-10-10T13:01:01Z</time>
      </trkpt>
      <trkpt lat="44.35282" lon="5.16982">
        <ele>497.1</ele>
        <time>2012-10-10T13:01:06Z</time>
      </trkpt>
      <trkpt lat="44.35282" lon="5.16984">
        <ele>496.7</ele>
        <time>2012-10-10T13:01:11Z</time>
      </trkpt>
      <trkpt lat="44.3528" lon="5.16986">
        <ele>497</ele>
        <time>2012-10-10T13:01:16Z</time>
      </trkpt>
      <trkpt lat="44.35279" lon="5.16985">
        <ele>497.6</ele>
        <time>2012-10-10T13:01:21Z</time>
      </trkpt>
      <trkpt lat="44.35281" lon="5.16984">
        <ele>497.1</ele>
        <time>2012-10-10T13:01:26Z</time>
      </trkpt>
      <trkpt lat="44.35289" lon="5.16983">
        <ele>493.5</ele>
        <time>2012-10-10T13:01:31Z</time>
      </trkpt>
      <trkpt lat="44.35297" lon="5.16982">
        <ele>490</ele>
        <time>2012-10-10T13:01:36Z</time>
      </trkpt>
      <trkpt lat="44.35308" lon="5.16977">
        <ele>486.3</ele>
        <time>2012-10-10T13:01:41Z</time>
      </trkpt>
      <trkpt lat="44.35313" lon="5.16962">
        <ele>487.2</ele>
        <time>2012-10-10T13:01:46Z</time>
      </trkpt>
      <trkpt lat="44.35321" lon="5.16949">
        <ele>486.4</ele>
        <time>2012-10-10T13:01:51Z</time>
      </trkpt>
      <trkpt lat="44.35322" lon="5.16945">
        <ele>486.9</ele>
        <time>2012-10-10T13:01:56Z</time>
      </trkpt>
      <trkpt lat="44.35321" lon="5.16942">
        <ele>487.7</ele>
        <time>2012-10-10T13:02:01Z</time>
      </trkpt>
      <trkpt lat="44.35321" lon="5.16941">
        <ele>487.9</ele>
        <time>2012-10-10T13:02:06Z</time>
      </trkpt>
      <trkpt lat="44.35321" lon="5.16941">
        <ele>487.8</ele>
        <time>2012-10-10T13:02:11Z</time>
      </trkpt>
      <trkpt lat="44.35321" lon="5.16941">
        <ele>487.9</ele>
        <time>2012-10-10T13:02:16Z</time>
      </trkpt>
      <trkpt lat="44.35321" lon="5.16941">
        <ele>487.9</ele>
        <time>2012-10-10T13:02:21Z</time>
      </trkpt>
      <trkpt lat="44.35321" lon="5.16942">
        <ele>487.9</ele>
        <time>2012-10-10T13:02:26Z</time>
      </trkpt>
      <trkpt lat="44.35321" lon="5.16943">
        <ele>487.8</ele>
        <time>2012-10-10T13:02:31Z</time>
      </trkpt>
      <trkpt lat="44.35323" lon="5.16945">
        <ele>486.4</ele>
        <time>2012-10-10T13:02:36Z</time>
      </trkpt>
      <trkpt lat="44.35323" lon="5.16944">
        <ele>486.4</ele>
        <time>2012-10-10T13:02:41Z</time>
      </trkpt>
      <trkpt lat="44.35323" lon="5.16938">
        <ele>487.4</ele>
        <time>2012-10-10T13:02:46Z</time>
      </trkpt>
      <trkpt lat="44.35321" lon="5.16932">
        <ele>489.2</ele>
        <time>2012-10-10T13:02:51Z</time>
      </trkpt>
      <trkpt lat="44.35322" lon="5.16932">
        <ele>488.8</ele>
        <time>2012-10-10T13:02:56Z</time>
      </trkpt>
      <trkpt lat="44.35323" lon="5.16932">
        <ele>488.7</ele>
        <time>2012-10-10T13:03:01Z</time>
      </trkpt>
      <trkpt lat="44.35324" lon="5.16927">
        <ele>488.8</ele>
        <time>2012-10-10T13:03:06Z</time>
      </trkpt>
      <trkpt lat="44.35325" lon="5.16925">
        <ele>488.8</ele>
        <time>2012-10-10T13:03:11Z</time>
      </trkpt>
      <trkpt lat="44.35326" lon="5.16924">
        <ele>488.8</ele>
        <time>2012-10-10T13:03:16Z</time>
      </trkpt>
      <trkpt lat="44.35328" lon="5.16925">
        <ele>487.5</ele>
        <time>2012-10-10T13:03:21Z</time>
      </trkpt>
      <trkpt lat="44.3533" lon="5.16925">
        <ele>486.9</ele>
        <time>2012-10-10T13:03:26Z</time>
      </trkpt>
      <trkpt lat="44.35332" lon="5.16923">
        <ele>486.5</ele>
        <time>2012-10-10T13:03:31Z</time>
      </trkpt>
      <trkpt lat="44.35334" lon="5.16922">
        <ele>486</ele>
        <time>2012-10-10T13:03:36Z</time>
      </trkpt>
      <trkpt lat="44.35334" lon="5.16923">
        <ele>485.8</ele>
        <time>2012-10-10T13:03:41Z</time>
      </trkpt>
      <trkpt lat="44.35337" lon="5.16921">
        <ele>485.8</ele>
        <time>2012-10-10T13:03:46Z</time>
      </trkpt>
      <trkpt lat="44.35337" lon="5.16921">
        <ele>485.8</ele>
        <time>2012-10-10T13:03:51Z</time>
      </trkpt>
      <trkpt lat="44.35336" lon="5.1692">
        <ele>485.9</ele>
        <time>2012-10-10T13:03:56Z</time>
      </trkpt>
      <trkpt lat="44.35335" lon="5.1692">
        <ele>486.2</ele>
        <time>2012-10-10T13:04:01Z</time>
      </trkpt>
      <trkpt lat="44.35332" lon="5.16918">
        <ele>487.3</ele>
        <time>2012-10-10T13:04:06Z</time>
      </trkpt>
      <trkpt lat="44.35331" lon="5.16916">
        <ele>488.2</ele>
        <time>2012-10-10T13:04:11Z</time>
      </trkpt>
      <trkpt lat="44.3533" lon="5.16915">
        <ele>488.6</ele>
        <time>2012-10-10T13:04:16Z</time>
      </trkpt>
      <trkpt lat="44.35331" lon="5.16914">
        <ele>488.5</ele>
        <time>2012-10-10T13:04:21Z</time>
      </trkpt>
      <trkpt lat="44.35333" lon="5.16915">
        <ele>487.4</ele>
        <time>2012-10-10T13:04:26Z</time>
      </trkpt>
      <trkpt lat="44.35335" lon="5.16909">
        <ele>488.4</ele>
        <time>2012-10-10T13:04:31Z</time>
      </trkpt>
      <trkpt lat="44.3534" lon="5.16896">
        <ele>490.7</ele>
        <time>2012-10-10T13:04:36Z</time>
      </trkpt>
      <trkpt lat="44.35342" lon="5.16888">
        <ele>492.3</ele>
        <time>2012-10-10T13:04:41Z</time>
      </trkpt>
      <trkpt lat="44.35345" lon="5.16886">
        <ele>492.8</ele>
        <time>2012-10-10T13:04:46Z</time>
      </trkpt>
      <trkpt lat="44.35344" lon="5.16888">
        <ele>492.2</ele>
        <time>2012-10-10T13:04:51Z</time>
      </trkpt>
      <trkpt lat="44.35344" lon="5.16888">
        <ele>492.2</ele>
        <time>2012-10-10T13:04:56Z</time>
      </trkpt>
      <trkpt lat="44.35343" lon="5.16889">
        <ele>491.9</ele>
        <time>2012-10-10T13:05:01Z</time>
      </trkpt>
      <trkpt lat="44.35343" lon="5.16894">
        <ele>490.8</ele>
        <time>2012-10-10T13:05:06Z</time>
      </trkpt>
      <trkpt lat="44.35347" lon="5.16892">
        <ele>490.7</ele>
        <time>2012-10-10T13:05:11Z</time>
      </trkpt>
      <trkpt lat="44.35351" lon="5.16895">
        <ele>489.8</ele>
        <time>2012-10-10T13:05:16Z</time>
      </trkpt>
      <trkpt lat="44.35352" lon="5.16898">
        <ele>488.9</ele>
        <time>2012-10-10T13:05:21Z</time>
      </trkpt>
      <trkpt lat="44.35353" lon="5.16899">
        <ele>488.5</ele>
        <time>2012-10-10T13:05:26Z</time>
      </trkpt>
      <trkpt lat="44.35355" lon="5.16901">
        <ele>487.8</ele>
        <time>2012-10-10T13:05:31Z</time>
      </trkpt>
      <trkpt lat="44.35355" lon="5.16903">
        <ele>487.3</ele>
        <time>2012-10-10T13:05:36Z</time>
      </trkpt>
      <trkpt lat="44.35361" lon="5.16899">
        <ele>487.5</ele>
        <time>2012-10-10T13:05:41Z</time>
      </trkpt>
      <trkpt lat="44.35365" lon="5.16893">
        <ele>489.8</ele>
        <time>2012-10-10T13:05:46Z</time>
      </trkpt>
      <trkpt lat="44.35365" lon="5.16891">
        <ele>490.3</ele>
        <time>2012-10-10T13:05:51Z</time>
      </trkpt>
      <trkpt lat="44.35368" lon="5.1689">
        <ele>491.1</ele>
        <time>2012-10-10T13:05:56Z</time>
      </trkpt>
      <trkpt lat="44.35372" lon="5.16891">
        <ele>491.8</ele>
        <time>2012-10-10T13:06:01Z</time>
      </trkpt>
      <trkpt lat="44.35377" lon="5.16891">
        <ele>492.9</ele>
        <time>2012-10-10T13:06:06Z</time>
      </trkpt>
      <trkpt lat="44.35383" lon="5.16889">
        <ele>494.8</ele>
        <time>2012-10-10T13:06:11Z</time>
      </trkpt>
      <trkpt lat="44.35388" lon="5.16888">
        <ele>496.1</ele>
        <time>2012-10-10T13:06:16Z</time>
      </trkpt>
      <trkpt lat="44.35395" lon="5.16893">
        <ele>495.9</ele>
        <time>2012-10-10T13:06:21Z</time>
      </trkpt>
      <trkpt lat="44.35395" lon="5.16893">
        <ele>495.9</ele>
        <time>2012-10-10T13:06:26Z</time>
      </trkpt>
      <trkpt lat="44.35395" lon="5.16893">
        <ele>495.9</ele>
        <time>2012-10-10T13:06:31Z</time>
      </trkpt>
      <trkpt lat="44.35396" lon="5.16893">
        <ele>496</ele>
        <time>2012-10-10T13:06:36Z</time>
      </trkpt>
      <trkpt lat="44.35397" lon="5.16894">
        <ele>495.9</ele>
        <time>2012-10-10T13:06:41Z</time>
      </trkpt>
      <trkpt lat="44.35399" lon="5.16891">
        <ele>497.3</ele>
        <time>2012-10-10T13:06:46Z</time>
      </trkpt>
      <trkpt lat="44.35401" lon="5.16887">
        <ele>498.8</ele>
        <time>2012-10-10T13:06:51Z</time>
      </trkpt>
      <trkpt lat="44.35406" lon="5.16879">
        <ele>502.2</ele>
        <time>2012-10-10T13:06:56Z</time>
      </trkpt>
      <trkpt lat="44.35411" lon="5.16875">
        <ele>504.4</ele>
        <time>2012-10-10T13:07:01Z</time>
      </trkpt>
      <trkpt lat="44.35416" lon="5.16869">
        <ele>507.3</ele>
        <time>2012-10-10T13:07:06Z</time>
      </trkpt>
      <trkpt lat="44.35424" lon="5.16866">
        <ele>509.1</ele>
        <time>2012-10-10T13:07:11Z</time>
      </trkpt>
      <trkpt lat="44.35431" lon="5.16864">
        <ele>510.5</ele>
        <time>2012-10-10T13:07:16Z</time>
      </trkpt>
      <trkpt lat="44.3544" lon="5.1686">
        <ele>512.9</ele>
        <time>2012-10-10T13:07:21Z</time>
      </trkpt>
      <trkpt lat="44.35451" lon="5.1686">
        <ele>514.1</ele>
        <time>2012-10-10T13:07:26Z</time>
      </trkpt>
      <trkpt lat="44.35465" lon="5.16857">
        <ele>516</ele>
        <time>2012-10-10T13:07:31Z</time>
      </trkpt>
      <trkpt lat="44.35475" lon="5.16856">
        <ele>517.4</ele>
        <time>2012-10-10T13:07:36Z</time>
      </trkpt>
      <trkpt lat="44.35488" lon="5.16851">
        <ele>520</ele>
        <time>2012-10-10T13:07:41Z</time>
      </trkpt>
      <trkpt lat="44.355" lon="5.16851">
        <ele>520.9</ele>
        <time>2012-10-10T13:07:46Z</time>
      </trkpt>
      <trkpt lat="44.35507" lon="5.16854">
        <ele>521</ele>
        <time>2012-10-10T13:07:51Z</time>
      </trkpt>
      <trkpt lat="44.35517" lon="5.16858">
        <ele>521.2</ele>
        <time>2012-10-10T13:07:56Z</time>
      </trkpt>
      <trkpt lat="44.35527" lon="5.16862">
        <ele>521.5</ele>
        <time>2012-10-10T13:08:01Z</time>
      </trkpt>
      <trkpt lat="44.35536" lon="5.16866">
        <ele>522</ele>
        <time>2012-10-10T13:08:06Z</time>
      </trkpt>
      <trkpt lat="44.35547" lon="5.16869">
        <ele>523.4</ele>
        <time>2012-10-10T13:08:11Z</time>
      </trkpt>
      <trkpt lat="44.35558" lon="5.16869">
        <ele>525.5</ele>
        <time>2012-10-10T13:08:16Z</time>
      </trkpt>
      <trkpt lat="44.3557" lon="5.16872">
        <ele>527.2</ele>
        <time>2012-10-10T13:08:21Z</time>
      </trkpt>
      <trkpt lat="44.35579" lon="5.16872">
        <ele>529.4</ele>
        <time>2012-10-10T13:08:26Z</time>
      </trkpt>
      <trkpt lat="44.3559" lon="5.1687">
        <ele>531.4</ele>
        <time>2012-10-10T13:08:31Z</time>
      </trkpt>
      <trkpt lat="44.356" lon="5.16867">
        <ele>533.9</ele>
        <time>2012-10-10T13:08:36Z</time>
      </trkpt>
      <trkpt lat="44.35608" lon="5.16863">
        <ele>536.1</ele>
        <time>2012-10-10T13:08:41Z</time>
      </trkpt>
      <trkpt lat="44.35617" lon="5.16858">
        <ele>538.2</ele>
        <time>2012-10-10T13:08:46Z</time>
      </trkpt>
      <trkpt lat="44.35626" lon="5.16854">
        <ele>540.2</ele>
        <time>2012-10-10T13:08:51Z</time>
      </trkpt>
      <trkpt lat="44.35636" lon="5.16847">
        <ele>542.5</ele>
        <time>2012-10-10T13:08:56Z</time>
      </trkpt>
      <trkpt lat="44.35643" lon="5.16842">
        <ele>543.8</ele>
        <time>2012-10-10T13:09:01Z</time>
      </trkpt>
      <trkpt lat="44.35649" lon="5.16836">
        <ele>545.5</ele>
        <time>2012-10-10T13:09:06Z</time>
      </trkpt>
      <trkpt lat="44.35653" lon="5.16825">
        <ele>547.9</ele>
        <time>2012-10-10T13:09:11Z</time>
      </trkpt>
      <trkpt lat="44.35649" lon="5.16818">
        <ele>549.7</ele>
        <time>2012-10-10T13:09:16Z</time>
      </trkpt>
      <trkpt lat="44.35642" lon="5.16817">
        <ele>550.2</ele>
        <time>2012-10-10T13:09:21Z</time>
      </trkpt>
      <trkpt lat="44.35635" lon="5.16815">
        <ele>550.7</ele>
        <time>2012-10-10T13:09:26Z</time>
      </trkpt>
      <trkpt lat="44.35624" lon="5.16812">
        <ele>552.1</ele>
        <time>2012-10-10T13:09:31Z</time>
      </trkpt>
      <trkpt lat="44.35618" lon="5.1681">
        <ele>553.1</ele>
        <time>2012-10-10T13:09:36Z</time>
      </trkpt>
      <trkpt lat="44.35614" lon="5.16806">
        <ele>554.6</ele>
        <time>2012-10-10T13:09:41Z</time>
      </trkpt>
      <trkpt lat="44.35618" lon="5.16806">
        <ele>554.5</ele>
        <time>2012-10-10T13:09:46Z</time>
      </trkpt>
      <trkpt lat="44.35618" lon="5.16806">
        <ele>554.5</ele>
        <time>2012-10-10T13:09:51Z</time>
      </trkpt>
      <trkpt lat="44.3562" lon="5.16805">
        <ele>554.5</ele>
        <time>2012-10-10T13:09:56Z</time>
      </trkpt>
      <trkpt lat="44.3562" lon="5.16805">
        <ele>554.5</ele>
        <time>2012-10-10T13:10:01Z</time>
      </trkpt>
      <trkpt lat="44.3563" lon="5.16801">
        <ele>555</ele>
        <time>2012-10-10T13:10:06Z</time>
      </trkpt>
      <trkpt lat="44.3565" lon="5.16794">
        <ele>555.4</ele>
        <time>2012-10-10T13:10:11Z</time>
      </trkpt>
      <trkpt lat="44.35676" lon="5.16796">
        <ele>553.9</ele>
        <time>2012-10-10T13:10:16Z</time>
      </trkpt>
      <trkpt lat="44.35701" lon="5.16814">
        <ele>551</ele>
        <time>2012-10-10T13:10:21Z</time>
      </trkpt>
      <trkpt lat="44.35711" lon="5.16827">
        <ele>549.3</ele>
        <time>2012-10-10T13:10:26Z</time>
      </trkpt>
      <trkpt lat="44.35728" lon="5.1684">
        <ele>548.3</ele>
        <time>2012-10-10T13:10:31Z</time>
      </trkpt>
      <trkpt lat="44.35747" lon="5.16854">
        <ele>547.7</ele>
        <time>2012-10-10T13:10:36Z</time>
      </trkpt>
      <trkpt lat="44.35759" lon="5.16869">
        <ele>547.3</ele>
        <time>2012-10-10T13:10:41Z</time>
      </trkpt>
      <trkpt lat="44.3577" lon="5.16882">
        <ele>547.7</ele>
        <time>2012-10-10T13:10:46Z</time>
      </trkpt>
      <trkpt lat="44.35781" lon="5.16893">
        <ele>548.3</ele>
        <time>2012-10-10T13:10:51Z</time>
      </trkpt>
      <trkpt lat="44.35794" lon="5.16899">
        <ele>550.3</ele>
        <time>2012-10-10T13:10:56Z</time>
      </trkpt>
      <trkpt lat="44.35801" lon="5.16895">
        <ele>551.7</ele>
        <time>2012-10-10T13:11:01Z</time>
      </trkpt>
      <trkpt lat="44.35809" lon="5.16891">
        <ele>553.5</ele>
        <time>2012-10-10T13:11:06Z</time>
      </trkpt>
      <trkpt lat="44.35819" lon="5.16885">
        <ele>555.6</ele>
        <time>2012-10-10T13:11:11Z</time>
      </trkpt>
      <trkpt lat="44.35827" lon="5.16879">
        <ele>557.5</ele>
        <time>2012-10-10T13:11:16Z</time>
      </trkpt>
      <trkpt lat="44.35835" lon="5.16874">
        <ele>559.3</ele>
        <time>2012-10-10T13:11:21Z</time>
      </trkpt>
      <trkpt lat="44.35845" lon="5.1687">
        <ele>560.9</ele>
        <time>2012-10-10T13:11:26Z</time>
      </trkpt>
      <trkpt lat="44.35851" lon="5.16859">
        <ele>562.7</ele>
        <time>2012-10-10T13:11:31Z</time>
      </trkpt>
      <trkpt lat="44.35855" lon="5.1685">
        <ele>563.9</ele>
        <time>2012-10-10T13:11:36Z</time>
      </trkpt>
      <trkpt lat="44.35862" lon="5.16841">
        <ele>565.5</ele>
        <time>2012-10-10T13:11:41Z</time>
      </trkpt>
      <trkpt lat="44.3587" lon="5.16829">
        <ele>567.1</ele>
        <time>2012-10-10T13:11:46Z</time>
      </trkpt>
      <trkpt lat="44.35878" lon="5.16824">
        <ele>567.8</ele>
        <time>2012-10-10T13:11:51Z</time>
      </trkpt>
      <trkpt lat="44.35888" lon="5.1682">
        <ele>568.5</ele>
        <time>2012-10-10T13:11:56Z</time>
      </trkpt>
      <trkpt lat="44.35898" lon="5.16808">
        <ele>568.8</ele>
        <time>2012-10-10T13:12:01Z</time>
      </trkpt>
      <trkpt lat="44.35909" lon="5.16798">
        <ele>568.7</ele>
        <time>2012-10-10T13:12:06Z</time>
      </trkpt>
      <trkpt lat="44.35921" lon="5.16792">
        <ele>567.4</ele>
        <time>2012-10-10T13:12:11Z</time>
      </trkpt>
      <trkpt lat="44.35929" lon="5.16785">
        <ele>565.8</ele>
        <time>2012-10-10T13:12:16Z</time>
      </trkpt>
      <trkpt lat="44.35932" lon="5.16786">
        <ele>565.1</ele>
        <time>2012-10-10T13:12:21Z</time>
      </trkpt>
      <trkpt lat="44.35933" lon="5.16783">
        <ele>565</ele>
        <time>2012-10-10T13:12:26Z</time>
      </trkpt>
      <trkpt lat="44.3594" lon="5.1678">
        <ele>563.9</ele>
        <time>2012-10-10T13:12:31Z</time>
      </trkpt>
      <trkpt lat="44.35957" lon="5.16783">
        <ele>557.1</ele>
        <time>2012-10-10T13:12:36Z</time>
      </trkpt>
      <trkpt lat="44.35978" lon="5.1678">
        <ele>549.3</ele>
        <time>2012-10-10T13:12:41Z</time>
      </trkpt>
      <trkpt lat="44.35982" lon="5.16758">
        <ele>548.7</ele>
        <time>2012-10-10T13:12:46Z</time>
      </trkpt>
      <trkpt lat="44.35988" lon="5.16749">
        <ele>546.8</ele>
        <time>2012-10-10T13:12:51Z</time>
      </trkpt>
      <trkpt lat="44.36" lon="5.1677">
        <ele>541.8</ele>
        <time>2012-10-10T13:12:56Z</time>
      </trkpt>
      <trkpt lat="44.3601" lon="5.16786">
        <ele>535.7</ele>
        <time>2012-10-10T13:13:01Z</time>
      </trkpt>
      <trkpt lat="44.36028" lon="5.16805">
        <ele>529.9</ele>
        <time>2012-10-10T13:13:06Z</time>
      </trkpt>
      <trkpt lat="44.36034" lon="5.16828">
        <ele>524.9</ele>
        <time>2012-10-10T13:13:11Z</time>
      </trkpt>
      <trkpt lat="44.36046" lon="5.16839">
        <ele>519.3</ele>
        <time>2012-10-10T13:13:16Z</time>
      </trkpt>
      <trkpt lat="44.36066" lon="5.16845">
        <ele>513.5</ele>
        <time>2012-10-10T13:13:21Z</time>
      </trkpt>
      <trkpt lat="44.3609" lon="5.1688">
        <ele>509.1</ele>
        <time>2012-10-10T13:13:26Z</time>
      </trkpt>
      <trkpt lat="44.36117" lon="5.16898">
        <ele>503.5</ele>
        <time>2012-10-10T13:13:31Z</time>
      </trkpt>
      <trkpt lat="44.36149" lon="5.16916">
        <ele>496.7</ele>
        <time>2012-10-10T13:13:36Z</time>
      </trkpt>
      <trkpt lat="44.36162" lon="5.16951">
        <ele>492.9</ele>
        <time>2012-10-10T13:13:41Z</time>
      </trkpt>
      <trkpt lat="44.3618" lon="5.16991">
        <ele>490</ele>
        <time>2012-10-10T13:13:46Z</time>
      </trkpt>
      <trkpt lat="44.36181" lon="5.17038">
        <ele>485.5</ele>
        <time>2012-10-10T13:13:51Z</time>
      </trkpt>
      <trkpt lat="44.3618" lon="5.17039">
        <ele>485.4</ele>
        <time>2012-10-10T13:13:56Z</time>
      </trkpt>
      <trkpt lat="44.36179" lon="5.17037">
        <ele>485.6</ele>
        <time>2012-10-10T13:14:01Z</time>
      </trkpt>
      <trkpt lat="44.36179" lon="5.17037">
        <ele>485.6</ele>
        <time>2012-10-10T13:14:06Z</time>
      </trkpt>
      <trkpt lat="44.36177" lon="5.17044">
        <ele>484.9</ele>
        <time>2012-10-10T13:14:11Z</time>
      </trkpt>
      <trkpt lat="44.36165" lon="5.17063">
        <ele>480.6</ele>
        <time>2012-10-10T13:14:16Z</time>
      </trkpt>
      <trkpt lat="44.36178" lon="5.17116">
        <ele>474.9</ele>
        <time>2012-10-10T13:14:21Z</time>
      </trkpt>
      <trkpt lat="44.36205" lon="5.17138">
        <ele>472.5</ele>
        <time>2012-10-10T13:14:26Z</time>
      </trkpt>
      <trkpt lat="44.36233" lon="5.17139">
        <ele>474.7</ele>
        <time>2012-10-10T13:14:31Z</time>
      </trkpt>
      <trkpt lat="44.36254" lon="5.1715">
        <ele>474.3</ele>
        <time>2012-10-10T13:14:36Z</time>
      </trkpt>
      <trkpt lat="44.36282" lon="5.17165">
        <ele>473.2</ele>
        <time>2012-10-10T13:14:41Z</time>
      </trkpt>
      <trkpt lat="44.36309" lon="5.17176">
        <ele>472.5</ele>
        <time>2012-10-10T13:14:46Z</time>
      </trkpt>
      <trkpt lat="44.36341" lon="5.17193">
        <ele>469.6</ele>
        <time>2012-10-10T13:14:51Z</time>
      </trkpt>
      <trkpt lat="44.36383" lon="5.17216">
        <ele>466</ele>
        <time>2012-10-10T13:14:56Z</time>
      </trkpt>
      <trkpt lat="44.36412" lon="5.17238">
        <ele>463.8</ele>
        <time>2012-10-10T13:15:01Z</time>
      </trkpt>
      <trkpt lat="44.36452" lon="5.17264">
        <ele>461.9</ele>
        <time>2012-10-10T13:15:06Z</time>
      </trkpt>
      <trkpt lat="44.3648" lon="5.17283">
        <ele>462.9</ele>
        <time>2012-10-10T13:15:11Z</time>
      </trkpt>
      <trkpt lat="44.36499" lon="5.17296">
        <ele>464.2</ele>
        <time>2012-10-10T13:15:16Z</time>
      </trkpt>
      <trkpt lat="44.36518" lon="5.17302">
        <ele>464.5</ele>
        <time>2012-10-10T13:15:21Z</time>
      </trkpt>
      <trkpt lat="44.36538" lon="5.17317">
        <ele>464.5</ele>
        <time>2012-10-10T13:15:26Z</time>
      </trkpt>
      <trkpt lat="44.36556" lon="5.17338">
        <ele>464.7</ele>
        <time>2012-10-10T13:15:31Z</time>
      </trkpt>
      <trkpt lat="44.36563" lon="5.17352">
        <ele>464.2</ele>
        <time>2012-10-10T13:15:36Z</time>
      </trkpt>
      <trkpt lat="44.36569" lon="5.17366">
        <ele>463.1</ele>
        <time>2012-10-10T13:15:41Z</time>
      </trkpt>
      <trkpt lat="44.36576" lon="5.17385">
        <ele>463.1</ele>
        <time>2012-10-10T13:15:46Z</time>
      </trkpt>
      <trkpt lat="44.36576" lon="5.17393">
        <ele>462.4</ele>
        <time>2012-10-10T13:15:51Z</time>
      </trkpt>
      <trkpt lat="44.36581" lon="5.17404">
        <ele>461.4</ele>
        <time>2012-10-10T13:15:56Z</time>
      </trkpt>
      <trkpt lat="44.36593" lon="5.17409">
        <ele>463</ele>
        <time>2012-10-10T13:16:01Z</time>
      </trkpt>
      <trkpt lat="44.366" lon="5.17424">
        <ele>463</ele>
        <time>2012-10-10T13:16:06Z</time>
      </trkpt>
      <trkpt lat="44.36615" lon="5.1744">
        <ele>464.1</ele>
        <time>2012-10-10T13:16:11Z</time>
      </trkpt>
      <trkpt lat="44.36629" lon="5.17448">
        <ele>464.9</ele>
        <time>2012-10-10T13:16:16Z</time>
      </trkpt>
      <trkpt lat="44.36648" lon="5.17463">
        <ele>464.9</ele>
        <time>2012-10-10T13:16:21Z</time>
      </trkpt>
      <trkpt lat="44.36662" lon="5.17466">
        <ele>466.2</ele>
        <time>2012-10-10T13:16:26Z</time>
      </trkpt>
      <trkpt lat="44.36672" lon="5.17469">
        <ele>465.9</ele>
        <time>2012-10-10T13:16:31Z</time>
      </trkpt>
      <trkpt lat="44.36691" lon="5.17465">
        <ele>464.4</ele>
        <time>2012-10-10T13:16:36Z</time>
      </trkpt>
      <trkpt lat="44.36706" lon="5.17463">
        <ele>462.5</ele>
        <time>2012-10-10T13:16:41Z</time>
      </trkpt>
      <trkpt lat="44.36722" lon="5.17458">
        <ele>460.6</ele>
        <time>2012-10-10T13:16:46Z</time>
      </trkpt>
      <trkpt lat="44.36731" lon="5.17458">
        <ele>459.7</ele>
        <time>2012-10-10T13:16:51Z</time>
      </trkpt>
      <trkpt lat="44.36731" lon="5.17459">
        <ele>459.6</ele>
        <time>2012-10-10T13:16:56Z</time>
      </trkpt>
      <trkpt lat="44.36733" lon="5.17461">
        <ele>459</ele>
        <time>2012-10-10T13:17:01Z</time>
      </trkpt>
      <trkpt lat="44.36736" lon="5.17461">
        <ele>458.6</ele>
        <time>2012-10-10T13:17:06Z</time>
      </trkpt>
      <trkpt lat="44.36742" lon="5.17463">
        <ele>457.7</ele>
        <time>2012-10-10T13:17:11Z</time>
      </trkpt>
      <trkpt lat="44.36753" lon="5.17471">
        <ele>455</ele>
        <time>2012-10-10T13:17:16Z</time>
      </trkpt>
      <trkpt lat="44.36783" lon="5.17482">
        <ele>451.6</ele>
        <time>2012-10-10T13:17:21Z</time>
      </trkpt>
      <trkpt lat="44.36811" lon="5.17495">
        <ele>451.3</ele>
        <time>2012-10-10T13:17:26Z</time>
      </trkpt>
      <trkpt lat="44.36833" lon="5.17497">
        <ele>452.3</ele>
        <time>2012-10-10T13:17:31Z</time>
      </trkpt>
      <trkpt lat="44.3685" lon="5.17503">
        <ele>452.9</ele>
        <time>2012-10-10T13:17:36Z</time>
      </trkpt>
      <trkpt lat="44.36867" lon="5.17507">
        <ele>453.3</ele>
        <time>2012-10-10T13:17:41Z</time>
      </trkpt>
      <trkpt lat="44.3689" lon="5.17514">
        <ele>453.1</ele>
        <time>2012-10-10T13:17:46Z</time>
      </trkpt>
      <trkpt lat="44.36905" lon="5.17518">
        <ele>452.4</ele>
        <time>2012-10-10T13:17:51Z</time>
      </trkpt>
      <trkpt lat="44.36931" lon="5.17526">
        <ele>450.5</ele>
        <time>2012-10-10T13:17:56Z</time>
      </trkpt>
      <trkpt lat="44.36959" lon="5.1753">
        <ele>446.8</ele>
        <time>2012-10-10T13:18:01Z</time>
      </trkpt>
      <trkpt lat="44.36996" lon="5.17551">
        <ele>440.8</ele>
        <time>2012-10-10T13:18:06Z</time>
      </trkpt>
      <trkpt lat="44.37021" lon="5.17555">
        <ele>440.2</ele>
        <time>2012-10-10T13:18:11Z</time>
      </trkpt>
      <trkpt lat="44.37036" lon="5.17565">
        <ele>438.7</ele>
        <time>2012-10-10T13:18:16Z</time>
      </trkpt>
      <trkpt lat="44.37045" lon="5.17604">
        <ele>430.4</ele>
        <time>2012-10-10T13:18:21Z</time>
      </trkpt>
      <trkpt lat="44.37062" lon="5.17621">
        <ele>429.7</ele>
        <time>2012-10-10T13:18:26Z</time>
      </trkpt>
      <trkpt lat="44.37086" lon="5.17631">
        <ele>432.1</ele>
        <time>2012-10-10T13:18:31Z</time>
      </trkpt>
      <trkpt lat="44.37099" lon="5.17638">
        <ele>429.2</ele>
        <time>2012-10-10T13:18:36Z</time>
      </trkpt>
      <trkpt lat="44.37121" lon="5.17653">
        <ele>422.6</ele>
        <time>2012-10-10T13:18:41Z</time>
      </trkpt>
      <trkpt lat="44.37136" lon="5.17674">
        <ele>413.7</ele>
        <time>2012-10-10T13:18:46Z</time>
      </trkpt>
      <trkpt lat="44.37148" lon="5.17709">
        <ele>404.8</ele>
        <time>2012-10-10T13:18:51Z</time>
      </trkpt>
      <trkpt lat="44.37176" lon="5.17743">
        <ele>400.7</ele>
        <time>2012-10-10T13:18:56Z</time>
      </trkpt>
      <trkpt lat="44.37197" lon="5.17747">
        <ele>401.6</ele>
        <time>2012-10-10T13:19:01Z</time>
      </trkpt>
      <trkpt lat="44.37216" lon="5.17756">
        <ele>403.1</ele>
        <time>2012-10-10T13:19:06Z</time>
      </trkpt>
      <trkpt lat="44.37226" lon="5.17779">
        <ele>403.7</ele>
        <time>2012-10-10T13:19:11Z</time>
      </trkpt>
      <trkpt lat="44.37239" lon="5.17788">
        <ele>402.9</ele>
        <time>2012-10-10T13:19:16Z</time>
      </trkpt>
      <trkpt lat="44.37253" lon="5.178">
        <ele>404.5</ele>
        <time>2012-10-10T13:19:21Z</time>
      </trkpt>
      <trkpt lat="44.37271" lon="5.17805">
        <ele>404.9</ele>
        <time>2012-10-10T13:19:26Z</time>
      </trkpt>
      <trkpt lat="44.37294" lon="5.17802">
        <ele>403.1</ele>
        <time>2012-10-10T13:19:31Z</time>
      </trkpt>
      <trkpt lat="44.37318" lon="5.17799">
        <ele>400.3</ele>
        <time>2012-10-10T13:19:36Z</time>
      </trkpt>
      <trkpt lat="44.37346" lon="5.17799">
        <ele>397.1</ele>
        <time>2012-10-10T13:19:41Z</time>
      </trkpt>
      <trkpt lat="44.37378" lon="5.17797">
        <ele>391.7</ele>
        <time>2012-10-10T13:19:46Z</time>
      </trkpt>
      <trkpt lat="44.37405" lon="5.17801">
        <ele>387.8</ele>
        <time>2012-10-10T13:19:51Z</time>
      </trkpt>
      <trkpt lat="44.37443" lon="5.17812">
        <ele>383</ele>
        <time>2012-10-10T13:19:56Z</time>
      </trkpt>
      <trkpt lat="44.37471" lon="5.17796">
        <ele>377</ele>
        <time>2012-10-10T13:20:01Z</time>
      </trkpt>
      <trkpt lat="44.37499" lon="5.17782">
        <ele>369.8</ele>
        <time>2012-10-10T13:20:06Z</time>
      </trkpt>
      <trkpt lat="44.37521" lon="5.17779">
        <ele>366.9</ele>
        <time>2012-10-10T13:20:11Z</time>
      </trkpt>
      <trkpt lat="44.3755" lon="5.17785">
        <ele>368.7</ele>
        <time>2012-10-10T13:20:16Z</time>
      </trkpt>
      <trkpt lat="44.37578" lon="5.17786">
        <ele>369.7</ele>
        <time>2012-10-10T13:20:21Z</time>
      </trkpt>
      <trkpt lat="44.37583" lon="5.17762">
        <ele>366.8</ele>
        <time>2012-10-10T13:20:26Z</time>
      </trkpt>
      <trkpt lat="44.37587" lon="5.17723">
        <ele>366.4</ele>
        <time>2012-10-10T13:20:31Z</time>
      </trkpt>
      <trkpt lat="44.37585" lon="5.1769">
        <ele>367.4</ele>
        <time>2012-10-10T13:20:36Z</time>
      </trkpt>
      <trkpt lat="44.37595" lon="5.17673">
        <ele>368.9</ele>
        <time>2012-10-10T13:20:41Z</time>
      </trkpt>
      <trkpt lat="44.37614" lon="5.17666">
        <ele>370.1</ele>
        <time>2012-10-10T13:20:46Z</time>
      </trkpt>
      <trkpt lat="44.37634" lon="5.17653">
        <ele>369</ele>
        <time>2012-10-10T13:20:51Z</time>
      </trkpt>
      <trkpt lat="44.37669" lon="5.1763">
        <ele>365</ele>
        <time>2012-10-10T13:20:56Z</time>
      </trkpt>
      <trkpt lat="44.37697" lon="5.17614">
        <ele>362</ele>
        <time>2012-10-10T13:21:01Z</time>
      </trkpt>
      <trkpt lat="44.37738" lon="5.17586">
        <ele>359</ele>
        <time>2012-10-10T13:21:06Z</time>
      </trkpt>
      <trkpt lat="44.37791" lon="5.17548">
        <ele>351</ele>
        <time>2012-10-10T13:21:11Z</time>
      </trkpt>
      <trkpt lat="44.3784" lon="5.1752">
        <ele>345.9</ele>
        <time>2012-10-10T13:21:16Z</time>
      </trkpt>
      <trkpt lat="44.37881" lon="5.17502">
        <ele>342.1</ele>
        <time>2012-10-10T13:21:21Z</time>
      </trkpt>
      <trkpt lat="44.37931" lon="5.17476">
        <ele>337.3</ele>
        <time>2012-10-10T13:21:26Z</time>
      </trkpt>
      <trkpt lat="44.37983" lon="5.17444">
        <ele>331.3</ele>
        <time>2012-10-10T13:21:31Z</time>
      </trkpt>
      <trkpt lat="44.38037" lon="5.17436">
        <ele>328.5</ele>
        <time>2012-10-10T13:21:36Z</time>
      </trkpt>
      <trkpt lat="44.38099" lon="5.17396">
        <ele>322.2</ele>
        <time>2012-10-10T13:21:41Z</time>
      </trkpt>
      <trkpt lat="44.38134" lon="5.17357">
        <ele>316.6</ele>
        <time>2012-10-10T13:21:46Z</time>
      </trkpt>
      <trkpt lat="44.38175" lon="5.17333">
        <ele>309</ele>
        <time>2012-10-10T13:21:51Z</time>
      </trkpt>
      <trkpt lat="44.38218" lon="5.17349">
        <ele>304.6</ele>
        <time>2012-10-10T13:21:56Z</time>
      </trkpt>
      <trkpt lat="44.3826" lon="5.1737">
        <ele>302</ele>
        <time>2012-10-10T13:22:01Z</time>
      </trkpt>
      <trkpt lat="44.38288" lon="5.17381">
        <ele>298.5</ele>
        <time>2012-10-10T13:22:06Z</time>
      </trkpt>
      <trkpt lat="44.38279" lon="5.17358">
        <ele>296.2</ele>
        <time>2012-10-10T13:22:11Z</time>
      </trkpt>
      <trkpt lat="44.38275" lon="5.17354">
        <ele>295.8</ele>
        <time>2012-10-10T13:22:16Z</time>
      </trkpt>
      <trkpt lat="44.38275" lon="5.17351">
        <ele>295.2</ele>
        <time>2012-10-10T13:22:21Z</time>
      </trkpt>
      <trkpt lat="44.38273" lon="5.17352">
        <ele>295.7</ele>
        <time>2012-10-10T13:22:26Z</time>
      </trkpt>
      <trkpt lat="44.38271" lon="5.17352">
        <ele>295.9</ele>
        <time>2012-10-10T13:22:31Z</time>
      </trkpt>
      <trkpt lat="44.38271" lon="5.17352">
        <ele>296</ele>
        <time>2012-10-10T13:22:36Z</time>
      </trkpt>
      <trkpt lat="44.3827" lon="5.1735">
        <ele>295.7</ele>
        <time>2012-10-10T13:22:41Z</time>
      </trkpt>
      <trkpt lat="44.38272" lon="5.17349">
        <ele>295.3</ele>
        <time>2012-10-10T13:22:46Z</time>
      </trkpt>
      <trkpt lat="44.38272" lon="5.17351">
        <ele>295.6</ele>
        <time>2012-10-10T13:22:51Z</time>
      </trkpt>
      <trkpt lat="44.38271" lon="5.17352">
        <ele>296</ele>
        <time>2012-10-10T13:22:56Z</time>
      </trkpt>
      <trkpt lat="44.38267" lon="5.17349">
        <ele>295.9</ele>
        <time>2012-10-10T13:23:01Z</time>
      </trkpt>
      <trkpt lat="44.38249" lon="5.17336">
        <ele>295.6</ele>
        <time>2012-10-10T13:23:06Z</time>
      </trkpt>
      <trkpt lat="44.38216" lon="5.17316">
        <ele>294</ele>
        <time>2012-10-10T13:23:11Z</time>
      </trkpt>
      <trkpt lat="44.3819" lon="5.17299">
        <ele>292.9</ele>
        <time>2012-10-10T13:23:16Z</time>
      </trkpt>
      <trkpt lat="44.38157" lon="5.17285">
        <ele>292.7</ele>
        <time>2012-10-10T13:23:21Z</time>
      </trkpt>
      <trkpt lat="44.38125" lon="5.17284">
        <ele>291.5</ele>
        <time>2012-10-10T13:23:26Z</time>
      </trkpt>
      <trkpt lat="44.38095" lon="5.17296">
        <ele>292.2</ele>
        <time>2012-10-10T13:23:31Z</time>
      </trkpt>
      <trkpt lat="44.38067" lon="5.17308">
        <ele>291.7</ele>
        <time>2012-10-10T13:23:36Z</time>
      </trkpt>
      <trkpt lat="44.38034" lon="5.17321">
        <ele>289.9</ele>
        <time>2012-10-10T13:23:41Z</time>
      </trkpt>
      <trkpt lat="44.37992" lon="5.17333">
        <ele>289.7</ele>
        <time>2012-10-10T13:23:46Z</time>
      </trkpt>
      <trkpt lat="44.37963" lon="5.17333">
        <ele>288.9</ele>
        <time>2012-10-10T13:23:51Z</time>
      </trkpt>
      <trkpt lat="44.37927" lon="5.17322">
        <ele>286.8</ele>
        <time>2012-10-10T13:23:56Z</time>
      </trkpt>
      <trkpt lat="44.37891" lon="5.17305">
        <ele>286.7</ele>
        <time>2012-10-10T13:24:01Z</time>
      </trkpt>
      <trkpt lat="44.37852" lon="5.17302">
        <ele>285.6</ele>
        <time>2012-10-10T13:24:06Z</time>
      </trkpt>
      <trkpt lat="44.37814" lon="5.17306">
        <ele>285.3</ele>
        <time>2012-10-10T13:24:11Z</time>
      </trkpt>
      <trkpt lat="44.37777" lon="5.1731">
        <ele>285.1</ele>
        <time>2012-10-10T13:24:16Z</time>
      </trkpt>
      <trkpt lat="44.37736" lon="5.17331">
        <ele>285.4</ele>
        <time>2012-10-10T13:24:21Z</time>
      </trkpt>
      <trkpt lat="44.37712" lon="5.17349">
        <ele>285</ele>
        <time>2012-10-10T13:24:26Z</time>
      </trkpt>
      <trkpt lat="44.37682" lon="5.17371">
        <ele>285</ele>
        <time>2012-10-10T13:24:31Z</time>
      </trkpt>
      <trkpt lat="44.37655" lon="5.17397">
        <ele>285.5</ele>
        <time>2012-10-10T13:24:36Z</time>
      </trkpt>
      <trkpt lat="44.37625" lon="5.17421">
        <ele>286.3</ele>
        <time>2012-10-10T13:24:41Z</time>
      </trkpt>
      <trkpt lat="44.37591" lon="5.1743">
        <ele>287.5</ele>
        <time>2012-10-10T13:24:46Z</time>
      </trkpt>
      <trkpt lat="44.37555" lon="5.17428">
        <ele>287.3</ele>
        <time>2012-10-10T13:24:51Z</time>
      </trkpt>
      <trkpt lat="44.37513" lon="5.17424">
        <ele>286.1</ele>
        <time>2012-10-10T13:24:56Z</time>
      </trkpt>
      <trkpt lat="44.37488" lon="5.17429">
        <ele>288.8</ele>
        <time>2012-10-10T13:25:01Z</time>
      </trkpt>
      <trkpt lat="44.37462" lon="5.17431">
        <ele>291.1</ele>
        <time>2012-10-10T13:25:06Z</time>
      </trkpt>
      <trkpt lat="44.37435" lon="5.17423">
        <ele>292.8</ele>
        <time>2012-10-10T13:25:11Z</time>
      </trkpt>
      <trkpt lat="44.37422" lon="5.17405">
        <ele>293.1</ele>
        <time>2012-10-10T13:25:16Z</time>
      </trkpt>
      <trkpt lat="44.37407" lon="5.17376">
        <ele>290.5</ele>
        <time>2012-10-10T13:25:21Z</time>
      </trkpt>
      <trkpt lat="44.37386" lon="5.17331">
        <ele>288.2</ele>
        <time>2012-10-10T13:25:26Z</time>
      </trkpt>
      <trkpt lat="44.37377" lon="5.1728">
        <ele>286.5</ele>
        <time>2012-10-10T13:25:31Z</time>
      </trkpt>
      <trkpt lat="44.37378" lon="5.17227">
        <ele>284.2</ele>
        <time>2012-10-10T13:25:36Z</time>
      </trkpt>
      <trkpt lat="44.37372" lon="5.17176">
        <ele>284</ele>
        <time>2012-10-10T13:25:41Z</time>
      </trkpt>
      <trkpt lat="44.37366" lon="5.1712">
        <ele>285</ele>
        <time>2012-10-10T13:25:46Z</time>
      </trkpt>
      <trkpt lat="44.37363" lon="5.17087">
        <ele>285.6</ele>
        <time>2012-10-10T13:25:51Z</time>
      </trkpt>
      <trkpt lat="44.37374" lon="5.17054">
        <ele>283.2</ele>
        <time>2012-10-10T13:25:56Z</time>
      </trkpt>
      <trkpt lat="44.37405" lon="5.17057">
        <ele>280</ele>
        <time>2012-10-10T13:26:01Z</time>
      </trkpt>
      <trkpt lat="44.37437" lon="5.17062">
        <ele>283.5</ele>
        <time>2012-10-10T13:26:06Z</time>
      </trkpt>
      <trkpt lat="44.37458" lon="5.17091">
        <ele>283.9</ele>
        <time>2012-10-10T13:26:11Z</time>
      </trkpt>
      <trkpt lat="44.3747" lon="5.17134">
        <ele>283.9</ele>
        <time>2012-10-10T13:26:16Z</time>
      </trkpt>
      <trkpt lat="44.37501" lon="5.17158">
        <ele>287.1</ele>
        <time>2012-10-10T13:26:21Z</time>
      </trkpt>
      <trkpt lat="44.37518" lon="5.17137">
        <ele>288.6</ele>
        <time>2012-10-10T13:26:26Z</time>
      </trkpt>
      <trkpt lat="44.37535" lon="5.17108">
        <ele>289.1</ele>
        <time>2012-10-10T13:26:31Z</time>
      </trkpt>
      <trkpt lat="44.37553" lon="5.17081">
        <ele>292.1</ele>
        <time>2012-10-10T13:26:36Z</time>
      </trkpt>
      <trkpt lat="44.37567" lon="5.17049">
        <ele>290.8</ele>
        <time>2012-10-10T13:26:41Z</time>
      </trkpt>
      <trkpt lat="44.37586" lon="5.17041">
        <ele>292.5</ele>
        <time>2012-10-10T13:26:46Z</time>
      </trkpt>
      <trkpt lat="44.37597" lon="5.17068">
        <ele>294.5</ele>
        <time>2012-10-10T13:26:51Z</time>
      </trkpt>
      <trkpt lat="44.3761" lon="5.17097">
        <ele>294.5</ele>
        <time>2012-10-10T13:26:56Z</time>
      </trkpt>
      <trkpt lat="44.37633" lon="5.17089">
        <ele>295.6</ele>
        <time>2012-10-10T13:27:01Z</time>
      </trkpt>
      <trkpt lat="44.37653" lon="5.17073">
        <ele>296.7</ele>
        <time>2012-10-10T13:27:06Z</time>
      </trkpt>
      <trkpt lat="44.37679" lon="5.17056">
        <ele>297.4</ele>
        <time>2012-10-10T13:27:11Z</time>
      </trkpt>
      <trkpt lat="44.37697" lon="5.17046">
        <ele>297.7</ele>
        <time>2012-10-10T13:27:16Z</time>
      </trkpt>
      <trkpt lat="44.37716" lon="5.17029">
        <ele>297.8</ele>
        <time>2012-10-10T13:27:21Z</time>
      </trkpt>
      <trkpt lat="44.37721" lon="5.17006">
        <ele>297.9</ele>
        <time>2012-10-10T13:27:26Z</time>
      </trkpt>
      <trkpt lat="44.37712" lon="5.16968">
        <ele>295.8</ele>
        <time>2012-10-10T13:27:31Z</time>
      </trkpt>
      <trkpt lat="44.377" lon="5.16922">
        <ele>294.8</ele>
        <time>2012-10-10T13:27:36Z</time>
      </trkpt>
      <trkpt lat="44.37688" lon="5.16887">
        <ele>292.8</ele>
        <time>2012-10-10T13:27:41Z</time>
      </trkpt>
      <trkpt lat="44.37669" lon="5.16824">
        <ele>292.5</ele>
        <time>2012-10-10T13:27:46Z</time>
      </trkpt>
      <trkpt lat="44.37657" lon="5.16791">
        <ele>294</ele>
        <time>2012-10-10T13:27:51Z</time>
      </trkpt>
      <trkpt lat="44.37633" lon="5.16764">
        <ele>294.9</ele>
        <time>2012-10-10T13:27:56Z</time>
      </trkpt>
      <trkpt lat="44.37612" lon="5.16739">
        <ele>294.7</ele>
        <time>2012-10-10T13:28:01Z</time>
      </trkpt>
      <trkpt lat="44.37623" lon="5.16729">
        <ele>297.7</ele>
        <time>2012-10-10T13:28:06Z</time>
      </trkpt>
      <trkpt lat="44.37623" lon="5.16716">
        <ele>299.7</ele>
        <time>2012-10-10T13:28:11Z</time>
      </trkpt>
      <trkpt lat="44.37621" lon="5.16703">
        <ele>301.5</ele>
        <time>2012-10-10T13:28:16Z</time>
      </trkpt>
      <trkpt lat="44.37623" lon="5.1669">
        <ele>304.7</ele>
        <time>2012-10-10T13:28:21Z</time>
      </trkpt>
      <trkpt lat="44.37631" lon="5.16691">
        <ele>305.9</ele>
        <time>2012-10-10T13:28:26Z</time>
      </trkpt>
      <trkpt lat="44.3764" lon="5.16694">
        <ele>306.5</ele>
        <time>2012-10-10T13:28:31Z</time>
      </trkpt>
      <trkpt lat="44.3765" lon="5.16693">
        <ele>309.3</ele>
        <time>2012-10-10T13:28:36Z</time>
      </trkpt>
      <trkpt lat="44.37659" lon="5.16689">
        <ele>312.8</ele>
        <time>2012-10-10T13:28:41Z</time>
      </trkpt>
      <trkpt lat="44.37668" lon="5.16687">
        <ele>315.6</ele>
        <time>2012-10-10T13:28:46Z</time>
      </trkpt>
      <trkpt lat="44.37676" lon="5.1668">
        <ele>317.8</ele>
        <time>2012-10-10T13:28:51Z</time>
      </trkpt>
      <trkpt lat="44.37684" lon="5.16672">
        <ele>319.6</ele>
        <time>2012-10-10T13:28:56Z</time>
      </trkpt>
      <trkpt lat="44.37688" lon="5.16668">
        <ele>320.2</ele>
        <time>2012-10-10T13:29:01Z</time>
      </trkpt>
      <trkpt lat="44.37693" lon="5.16665">
        <ele>321.3</ele>
        <time>2012-10-10T13:29:06Z</time>
      </trkpt>
      <trkpt lat="44.37702" lon="5.16657">
        <ele>324.9</ele>
        <time>2012-10-10T13:29:11Z</time>
      </trkpt>
      <trkpt lat="44.37706" lon="5.16654">
        <ele>326.3</ele>
        <time>2012-10-10T13:29:16Z</time>
      </trkpt>
      <trkpt lat="44.3771" lon="5.16652">
        <ele>327</ele>
        <time>2012-10-10T13:29:21Z</time>
      </trkpt>
      <trkpt lat="44.37716" lon="5.16648">
        <ele>328.4</ele>
        <time>2012-10-10T13:29:26Z</time>
      </trkpt>
      <trkpt lat="44.37723" lon="5.16642">
        <ele>330</ele>
        <time>2012-10-10T13:29:31Z</time>
      </trkpt>
      <trkpt lat="44.37729" lon="5.16637">
        <ele>330.4</ele>
        <time>2012-10-10T13:29:36Z</time>
      </trkpt>
      <trkpt lat="44.37733" lon="5.16634">
        <ele>331.6</ele>
        <time>2012-10-10T13:29:41Z</time>
      </trkpt>
      <trkpt lat="44.37739" lon="5.16627">
        <ele>334.1</ele>
        <time>2012-10-10T13:29:46Z</time>
      </trkpt>
      <trkpt lat="44.37745" lon="5.16624">
        <ele>334.7</ele>
        <time>2012-10-10T13:29:51Z</time>
      </trkpt>
      <trkpt lat="44.37751" lon="5.1662">
        <ele>335.5</ele>
        <time>2012-10-10T13:29:56Z</time>
      </trkpt>
      <trkpt lat="44.37757" lon="5.16616">
        <ele>335.6</ele>
        <time>2012-10-10T13:30:01Z</time>
      </trkpt>
      <trkpt lat="44.37763" lon="5.16609">
        <ele>337.3</ele>
        <time>2012-10-10T13:30:06Z</time>
      </trkpt>
      <trkpt lat="44.3777" lon="5.16607">
        <ele>336.3</ele>
        <time>2012-10-10T13:30:11Z</time>
      </trkpt>
      <trkpt lat="44.37775" lon="5.16601">
        <ele>338.4</ele>
        <time>2012-10-10T13:30:16Z</time>
      </trkpt>
      <trkpt lat="44.3778" lon="5.16592">
        <ele>342.4</ele>
        <time>2012-10-10T13:30:21Z</time>
      </trkpt>
      <trkpt lat="44.37784" lon="5.16588">
        <ele>343.2</ele>
        <time>2012-10-10T13:30:26Z</time>
      </trkpt>
      <trkpt lat="44.37789" lon="5.16584">
        <ele>344.4</ele>
        <time>2012-10-10T13:30:31Z</time>
      </trkpt>
      <trkpt lat="44.37797" lon="5.1658">
        <ele>344.1</ele>
        <time>2012-10-10T13:30:36Z</time>
      </trkpt>
      <trkpt lat="44.378" lon="5.16579">
        <ele>344.1</ele>
        <time>2012-10-10T13:30:41Z</time>
      </trkpt>
      <trkpt lat="44.37801" lon="5.16579">
        <ele>343.5</ele>
        <time>2012-10-10T13:30:46Z</time>
      </trkpt>
      <trkpt lat="44.37806" lon="5.16576">
        <ele>343.7</ele>
        <time>2012-10-10T13:30:51Z</time>
      </trkpt>
      <trkpt lat="44.37811" lon="5.16573">
        <ele>343.7</ele>
        <time>2012-10-10T13:30:56Z</time>
      </trkpt>
      <trkpt lat="44.37816" lon="5.16571">
        <ele>343.8</ele>
        <time>2012-10-10T13:31:01Z</time>
      </trkpt>
      <trkpt lat="44.37823" lon="5.16567">
        <ele>344.6</ele>
        <time>2012-10-10T13:31:06Z</time>
      </trkpt>
      <trkpt lat="44.37831" lon="5.16559">
        <ele>347.8</ele>
        <time>2012-10-10T13:31:11Z</time>
      </trkpt>
      <trkpt lat="44.37838" lon="5.16553">
        <ele>349.6</ele>
        <time>2012-10-10T13:31:16Z</time>
      </trkpt>
      <trkpt lat="44.37843" lon="5.16545">
        <ele>350.7</ele>
        <time>2012-10-10T13:31:21Z</time>
      </trkpt>
      <trkpt lat="44.37848" lon="5.16539">
        <ele>350.9</ele>
        <time>2012-10-10T13:31:26Z</time>
      </trkpt>
      <trkpt lat="44.37855" lon="5.16532">
        <ele>350.6</ele>
        <time>2012-10-10T13:31:31Z</time>
      </trkpt>
      <trkpt lat="44.3786" lon="5.16523">
        <ele>351.1</ele>
        <time>2012-10-10T13:31:36Z</time>
      </trkpt>
      <trkpt lat="44.37864" lon="5.16514">
        <ele>352.5</ele>
        <time>2012-10-10T13:31:41Z</time>
      </trkpt>
      <trkpt lat="44.37869" lon="5.165">
        <ele>355.2</ele>
        <time>2012-10-10T13:31:46Z</time>
      </trkpt>
      <trkpt lat="44.37872" lon="5.16491">
        <ele>356.4</ele>
        <time>2012-10-10T13:31:51Z</time>
      </trkpt>
      <trkpt lat="44.37876" lon="5.16481">
        <ele>357.7</ele>
        <time>2012-10-10T13:31:56Z</time>
      </trkpt>
      <trkpt lat="44.3788" lon="5.16471">
        <ele>359.1</ele>
        <time>2012-10-10T13:32:01Z</time>
      </trkpt>
      <trkpt lat="44.37884" lon="5.16461">
        <ele>360.1</ele>
        <time>2012-10-10T13:32:06Z</time>
      </trkpt>
      <trkpt lat="44.37888" lon="5.16449">
        <ele>362.2</ele>
        <time>2012-10-10T13:32:11Z</time>
      </trkpt>
      <trkpt lat="44.37891" lon="5.16442">
        <ele>363.1</ele>
        <time>2012-10-10T13:32:16Z</time>
      </trkpt>
      <trkpt lat="44.37896" lon="5.16433">
        <ele>365.1</ele>
        <time>2012-10-10T13:32:21Z</time>
      </trkpt>
      <trkpt lat="44.379" lon="5.16425">
        <ele>366.7</ele>
        <time>2012-10-10T13:32:26Z</time>
      </trkpt>
      <trkpt lat="44.37904" lon="5.16418">
        <ele>368</ele>
        <time>2012-10-10T13:32:31Z</time>
      </trkpt>
      <trkpt lat="44.37912" lon="5.1641">
        <ele>368.9</ele>
        <time>2012-10-10T13:32:36Z</time>
      </trkpt>
      <trkpt lat="44.37916" lon="5.16403">
        <ele>370.1</ele>
        <time>2012-10-10T13:32:41Z</time>
      </trkpt>
      <trkpt lat="44.37917" lon="5.16397">
        <ele>372.2</ele>
        <time>2012-10-10T13:32:46Z</time>
      </trkpt>
      <trkpt lat="44.37909" lon="5.16399">
        <ele>374</ele>
        <time>2012-10-10T13:32:51Z</time>
      </trkpt>
      <trkpt lat="44.37912" lon="5.16393">
        <ele>375.1</ele>
        <time>2012-10-10T13:32:56Z</time>
      </trkpt>
      <trkpt lat="44.37915" lon="5.16385">
        <ele>377</ele>
        <time>2012-10-10T13:33:01Z</time>
      </trkpt>
      <trkpt lat="44.37919" lon="5.16377">
        <ele>378.3</ele>
        <time>2012-10-10T13:33:06Z</time>
      </trkpt>
      <trkpt lat="44.37922" lon="5.16366">
        <ele>380.9</ele>
        <time>2012-10-10T13:33:11Z</time>
      </trkpt>
      <trkpt lat="44.37924" lon="5.1636">
        <ele>382</ele>
        <time>2012-10-10T13:33:16Z</time>
      </trkpt>
      <trkpt lat="44.37927" lon="5.16352">
        <ele>383.9</ele>
        <time>2012-10-10T13:33:21Z</time>
      </trkpt>
      <trkpt lat="44.3793" lon="5.16344">
        <ele>385.6</ele>
        <time>2012-10-10T13:33:26Z</time>
      </trkpt>
      <trkpt lat="44.37932" lon="5.16336">
        <ele>387.9</ele>
        <time>2012-10-10T13:33:31Z</time>
      </trkpt>
      <trkpt lat="44.37933" lon="5.16326">
        <ele>391</ele>
        <time>2012-10-10T13:33:36Z</time>
      </trkpt>
      <trkpt lat="44.37936" lon="5.16319">
        <ele>391.7</ele>
        <time>2012-10-10T13:33:41Z</time>
      </trkpt>
      <trkpt lat="44.37938" lon="5.16309">
        <ele>393.6</ele>
        <time>2012-10-10T13:33:46Z</time>
      </trkpt>
      <trkpt lat="44.37941" lon="5.16302">
        <ele>393.7</ele>
        <time>2012-10-10T13:33:51Z</time>
      </trkpt>
      <trkpt lat="44.37944" lon="5.16292">
        <ele>394.3</ele>
        <time>2012-10-10T13:33:56Z</time>
      </trkpt>
      <trkpt lat="44.37947" lon="5.16277">
        <ele>396.9</ele>
        <time>2012-10-10T13:34:01Z</time>
      </trkpt>
      <trkpt lat="44.37935" lon="5.16252">
        <ele>397.3</ele>
        <time>2012-10-10T13:34:06Z</time>
      </trkpt>
      <trkpt lat="44.37918" lon="5.16242">
        <ele>398.8</ele>
        <time>2012-10-10T13:34:11Z</time>
      </trkpt>
      <trkpt lat="44.37905" lon="5.16239">
        <ele>398.2</ele>
        <time>2012-10-10T13:34:16Z</time>
      </trkpt>
      <trkpt lat="44.37887" lon="5.16247">
        <ele>397.8</ele>
        <time>2012-10-10T13:34:21Z</time>
      </trkpt>
      <trkpt lat="44.37883" lon="5.16256">
        <ele>397.8</ele>
        <time>2012-10-10T13:34:26Z</time>
      </trkpt>
      <trkpt lat="44.37882" lon="5.16256">
        <ele>397.8</ele>
        <time>2012-10-10T13:34:31Z</time>
      </trkpt>
      <trkpt lat="44.37881" lon="5.16255">
        <ele>397.4</ele>
        <time>2012-10-10T13:34:36Z</time>
      </trkpt>
      <trkpt lat="44.37879" lon="5.16254">
        <ele>397</ele>
        <time>2012-10-10T13:34:41Z</time>
      </trkpt>
      <trkpt lat="44.37869" lon="5.16255">
        <ele>395.1</ele>
        <time>2012-10-10T13:34:46Z</time>
      </trkpt>
      <trkpt lat="44.37836" lon="5.1625">
        <ele>389.5</ele>
        <time>2012-10-10T13:34:51Z</time>
      </trkpt>
      <trkpt lat="44.37777" lon="5.16258">
        <ele>382.9</ele>
        <time>2012-10-10T13:34:56Z</time>
      </trkpt>
      <trkpt lat="44.37725" lon="5.16284">
        <ele>376.6</ele>
        <time>2012-10-10T13:35:01Z</time>
      </trkpt>
      <trkpt lat="44.37668" lon="5.16282">
        <ele>367.1</ele>
        <time>2012-10-10T13:35:06Z</time>
      </trkpt>
      <trkpt lat="44.37596" lon="5.16262">
        <ele>360.5</ele>
        <time>2012-10-10T13:35:11Z</time>
      </trkpt>
      <trkpt lat="44.37553" lon="5.16277">
        <ele>355.5</ele>
        <time>2012-10-10T13:35:16Z</time>
      </trkpt>
      <trkpt lat="44.37506" lon="5.16261">
        <ele>350.7</ele>
        <time>2012-10-10T13:35:21Z</time>
      </trkpt>
      <trkpt lat="44.37463" lon="5.16267">
        <ele>341.1</ele>
        <time>2012-10-10T13:35:26Z</time>
      </trkpt>
      <trkpt lat="44.37417" lon="5.16242">
        <ele>332.7</ele>
        <time>2012-10-10T13:35:31Z</time>
      </trkpt>
      <trkpt lat="44.37404" lon="5.16207">
        <ele>329.7</ele>
        <time>2012-10-10T13:35:36Z</time>
      </trkpt>
      <trkpt lat="44.37403" lon="5.1619">
        <ele>332</ele>
        <time>2012-10-10T13:35:41Z</time>
      </trkpt>
      <trkpt lat="44.37402" lon="5.1617">
        <ele>334.3</ele>
        <time>2012-10-10T13:35:46Z</time>
      </trkpt>
      <trkpt lat="44.37405" lon="5.16157">
        <ele>335.4</ele>
        <time>2012-10-10T13:35:51Z</time>
      </trkpt>
      <trkpt lat="44.37407" lon="5.16155">
        <ele>336.6</ele>
        <time>2012-10-10T13:35:56Z</time>
      </trkpt>
    </trkseg>
  </trk>
</gpx>